[[{"header":{"parameterUnit":"m.s-1","parameterCategory":1,"la1":30.6,"la2":29.2853,"lo1":-89.7004,"lo2":-87.6739,"dy":0.0162,"dx":0.0183,"nx":112,"ny":82,"refTime":"2023-04-14T12:00:00:Z","depth":0,"parameterNumber":2,"parameterNumberName":"U-component_of_WINDS"},"data":[0.0,0.0,0.0,0.0,0.0,0.0,0.0,0.0,0.0,0.0,0.0,0.0,0.0,0.0,0.0,0.0,0.0,0.0,0.0,0.0,0.0,0.0,0.0,0.0,0.0,0.0,0.0,0.0,0.0,0.0,0.0,0.0,0.0,0.0,0.0,0.0,0.0,0.0,0.0,0.0,0.0,0.0,0.0,0.0,0.0,0.0,0.0,0.0,0.0,0.0,0.0,0.0,0.0,0.0,0.0,0.0,0.0,0.0,0.0,0.0,0.0,0.0,0.0,0.0,0.0,0.0,0.0,0.0,0.0,0.0,0.0,0.0,0.0,0.0,0.0,0.0,0.0,0.0,0.0,0.0,0.0,0.0,0.0,0.0,0.0,0.0,0.0,0.0,0.0,0.0,0.0,-1.7126,-2.0233,-2.1287,-1.9239,-1.8723,-1.8076,-1.7039,0.0,0.0,0.0,0.0,0.0,0.0,0.0,0.0,0.0,0.0,0.0,0.0,0.0,0.0,0.0,0.0,0.0,0.0,0.0,0.0,0.0,0.0,0.0,0.0,0.0,0.0,0.0,0.0,0.0,0.0,0.0,0.0,0.0,0.0,0.0,0.0,0.0,0.0,0.0,0.0,0.0,0.0,0.0,0.0,0.0,0.0,0.0,0.0,0.0,0.0,0.0,0.0,0.0,0.0,0.0,0.0,0.0,0.0,0.0,0.0,0.0,0.0,0.0,0.0,0.0,0.0,0.0,0.0,0.0,0.0,0.0,0.0,0.0,0.0,0.0,0.0,0.0,0.0,0.0,0.0,0.0,0.0,0.0,0.0,0.0,0.0,0.0,0.0,0.0,0.0,0.0,0.0,0.0,0.0,0.0,0.0,0.0,0.0,0.0,0.0,0.0,0.0,0.0,0.0,-1.4759,-1.6776,-1.8477,-1.9564,-1.9811,-1.7699,-1.6758,-1.7685,0.0,0.0,0.0,0.0,0.0,0.0,0.0,0.0,0.0,0.0,0.0,0.0,0.0,0.0,0.0,0.0,0.0,0.0,0.0,0.0,0.0,0.0,0.0,0.0,0.0,0.0,0.0,0.0,0.0,0.0,0.0,0.0,0.0,0.0,0.0,0.0,0.0,0.0,0.0,0.0,0.0,0.0,0.0,0.0,0.0,0.0,0.0,0.0,0.0,0.0,0.0,0.0,0.0,0.0,0.0,0.0,0.0,0.0,0.0,0.0,0.0,0.0,0.0,0.0,0.0,0.0,0.0,0.0,0.0,0.0,0.0,0.0,0.0,0.0,0.0,0.0,0.0,0.0,0.0,0.0,0.0,0.0,0.0,0.0,0.0,0.0,0.0,0.0,0.0,0.0,0.0,0.0,0.0,0.0,0.0,0.0,0.0,0.0,0.0,0.0,0.0,0.0,0.0,-1.4347,-1.528,-1.6243,-1.8245,-1.9304,-1.8848,-1.7023,-1.629,-1.7241,-1.5668,0.0,0.0,0.0,0.0,0.0,0.0,0.0,0.0,0.0,0.0,0.0,0.0,0.0,0.0,0.0,0.0,0.0,0.0,0.0,0.0,0.0,0.0,0.0,0.0,0.0,0.0,0.0,0.0,0.0,0.0,0.0,0.0,0.0,0.0,0.0,0.0,0.0,0.0,0.0,0.0,0.0,0.0,0.0,0.0,0.0,0.0,0.0,0.0,0.0,0.0,0.0,0.0,0.0,0.0,0.0,0.0,0.0,0.0,0.0,0.0,0.0,0.0,0.0,0.0,0.0,0.0,0.0,0.0,0.0,0.0,0.0,0.0,0.0,0.0,0.0,0.0,0.0,0.0,0.0,0.0,0.0,0.0,0.0,0.0,0.0,0.0,0.0,0.0,0.0,0.0,0.0,0.0,0.0,0.0,0.0,0.0,0.0,0.0,0.0,0.0,0.0,0.0,-1.453,-1.5086,-1.5766,-1.7713,-1.8542,-1.7513,-1.6022,-1.5528,-1.6381,-1.4633,0.0,0.0,0.0,0.0,0.0,0.0,0.0,0.0,0.0,0.0,0.0,0.0,0.0,0.0,0.0,0.0,0.0,0.0,0.0,0.0,0.0,0.0,0.0,0.0,0.0,0.0,0.0,0.0,0.0,0.0,0.0,0.0,0.0,0.0,0.0,0.0,0.0,0.0,0.0,0.0,0.0,0.0,0.0,0.0,0.0,0.0,0.0,0.0,0.0,0.0,0.0,0.0,0.0,0.0,0.0,0.0,0.0,0.0,0.0,0.0,0.0,0.0,0.0,0.0,0.0,0.0,0.0,0.0,0.0,0.0,0.0,0.0,0.0,0.0,0.0,0.0,0.0,0.0,0.0,0.0,0.0,0.0,0.0,0.0,0.0,0.0,0.0,0.0,0.0,0.0,0.0,0.0,0.0,0.0,0.0,0.0,0.0,0.0,0.0,0.0,0.0,0.0,-1.3451,-1.3337,-1.5404,-1.5791,-1.6024,-1.6281,-1.4239,-1.3626,-1.5292,-1.3803,0.0,0.0,0.0,0.0,0.0,0.0,0.0,0.0,0.0,0.0,0.0,0.0,0.0,0.0,0.0,0.0,0.0,0.0,0.0,0.0,0.0,0.0,0.0,0.0,0.0,0.0,0.0,0.0,0.0,0.0,0.0,0.0,0.0,0.0,0.0,0.0,0.0,0.0,0.0,0.0,0.0,0.0,0.0,0.0,0.0,0.0,0.0,0.0,0.0,0.0,0.0,0.0,0.0,0.0,0.0,0.0,0.0,0.0,0.0,0.0,0.0,0.0,0.0,0.0,0.0,0.0,0.0,0.0,0.0,0.0,0.0,0.0,0.0,0.0,0.0,0.0,0.0,0.0,0.0,0.0,0.0,0.0,0.0,0.0,0.0,0.0,0.0,0.0,0.0,0.0,0.0,0.0,0.0,0.0,0.0,0.0,0.0,0.0,0.0,0.0,0.0,0.0,-1.3378,-1.3489,0.0,-1.5325,-1.5587,-1.5582,-1.3815,-1.3259,-1.4588,0.0,0.0,0.0,0.0,0.0,0.0,0.0,0.0,0.0,0.0,0.0,0.0,0.0,0.0,0.0,0.0,0.0,0.0,0.0,0.0,0.0,0.0,0.0,0.0,0.0,0.0,0.0,0.0,0.0,0.0,0.0,0.0,0.0,0.0,0.0,0.0,0.0,0.0,0.0,0.0,0.0,0.0,0.0,0.0,0.0,0.0,0.0,0.0,0.0,0.0,0.0,0.0,0.0,0.0,0.0,0.0,0.0,0.0,0.0,0.0,0.0,0.0,0.0,0.0,0.0,0.0,0.0,0.0,0.0,0.0,0.0,0.0,0.0,0.0,0.0,0.0,0.0,0.0,0.0,0.0,0.0,0.0,0.0,0.0,0.0,0.0,0.0,0.0,0.0,0.0,0.0,0.0,0.0,0.0,0.0,0.0,0.0,0.0,0.0,0.0,0.0,0.0,-1.3625,-1.3117,-1.3049,0.0,-1.4532,-1.4667,-1.4402,-1.2854,-1.2445,-1.3733,0.0,0.0,0.0,0.0,0.0,0.0,0.0,0.0,0.0,0.0,0.0,0.0,0.0,0.0,0.0,0.0,0.0,0.0,0.0,0.0,0.0,0.0,0.0,0.0,0.0,0.0,0.0,0.0,0.0,0.0,0.0,0.0,0.0,0.0,0.0,0.0,0.0,0.0,0.0,0.0,0.0,0.0,0.0,0.0,0.0,0.0,0.0,0.0,0.0,0.0,0.0,0.0,0.0,0.0,0.0,0.0,0.0,0.0,0.0,0.0,0.0,0.0,0.0,0.0,0.0,0.0,0.0,0.0,0.0,0.0,0.0,0.0,0.0,0.0,0.0,0.0,0.0,0.0,0.0,0.0,0.0,0.0,0.0,0.0,0.0,0.0,0.0,0.0,0.0,0.0,0.0,0.0,0.0,0.0,0.0,0.0,0.0,0.0,0.0,0.0,0.0,0.0,-1.4318,-1.2517,-1.1695,-1.3244,-1.3156,-1.2896,-1.2604,-1.1138,-1.0958,0.0,0.0,0.0,0.0,0.0,0.0,0.0,0.0,0.0,0.0,0.0,0.0,0.0,0.0,0.0,0.0,0.0,0.0,0.0,0.0,0.0,0.0,0.0,0.0,0.0,0.0,0.0,0.0,0.0,0.0,0.0,0.0,0.0,0.0,0.0,0.0,0.0,0.0,0.0,0.0,0.0,0.0,0.0,0.0,0.0,0.0,0.0,0.0,0.0,0.0,0.0,0.0,0.0,0.0,0.0,0.0,0.0,0.0,0.0,0.0,0.0,0.0,0.0,0.0,0.0,0.0,0.0,0.0,0.0,0.0,0.0,0.0,0.0,0.0,0.0,0.0,0.0,0.0,0.0,0.0,0.0,0.0,0.0,0.0,0.0,0.0,0.0,0.0,0.0,0.0,0.0,0.0,0.0,0.0,0.0,0.0,0.0,0.0,0.0,0.0,0.0,0.0,0.0,-1.4318,-1.2517,-1.1695,-1.3244,-1.3156,-1.2693,-1.1967,-1.1287,-1.1241,-1.2036,0.0,0.0,0.0,0.0,0.0,0.0,0.0,0.0,0.0,0.0,0.0,0.0,0.0,0.0,0.0,0.0,0.0,0.0,0.0,0.0,0.0,0.0,0.0,0.0,0.0,0.0,0.0,0.0,0.0,0.0,0.0,0.0,0.0,0.0,0.0,0.0,0.0,0.0,0.0,0.0,0.0,0.0,0.0,0.0,0.0,0.0,0.0,0.0,0.0,0.0,0.0,0.0,0.0,0.0,0.0,0.0,0.0,0.0,0.0,0.0,0.0,0.0,0.0,0.0,0.0,0.0,0.0,0.0,0.0,0.0,0.0,0.0,0.0,0.0,0.0,0.0,0.0,0.0,0.0,0.0,0.0,0.0,0.0,0.0,0.0,0.0,0.0,0.0,0.0,0.0,0.0,0.0,0.0,0.0,0.0,0.0,0.0,0.0,0.0,0.0,0.0,0.0,-1.474,-1.2686,-1.1695,-1.3244,-1.306,-1.2495,-1.167,-1.1265,-1.1252,-1.1771,0.0,0.0,0.0,0.0,0.0,0.0,0.0,0.0,0.0,0.0,0.0,0.0,0.0,0.0,0.0,0.0,0.0,0.0,0.0,0.0,0.0,0.0,0.0,0.0,0.0,0.0,0.0,0.0,0.0,0.0,0.0,0.0,0.0,0.0,0.0,0.0,0.0,0.0,0.0,0.0,0.0,0.0,0.0,0.0,0.0,0.0,0.0,0.0,0.0,0.0,0.0,0.0,0.0,0.0,0.0,0.0,0.0,0.0,0.0,0.0,0.0,0.0,0.0,0.0,0.0,0.0,0.0,0.0,0.0,0.0,0.0,0.0,0.0,0.0,0.0,0.0,0.0,0.0,0.0,0.0,0.0,0.0,0.0,0.0,0.0,0.0,0.0,0.0,0.0,0.0,0.0,0.0,0.0,0.0,0.0,0.0,0.0,0.0,0.0,0.0,0.0,0.0,-1.5511,-1.3075,-1.1831,-1.343,-1.3026,-1.2382,-1.1757,-1.1233,-1.1182,-1.176,0.0,0.0,0.0,0.0,0.0,0.0,0.0,0.0,0.0,0.0,0.0,0.0,0.0,0.0,0.0,0.0,0.0,0.0,0.0,0.0,0.0,0.0,0.0,0.0,0.0,0.0,0.0,0.0,0.0,0.0,0.0,0.0,0.0,0.0,0.0,0.0,0.0,0.0,0.0,0.0,0.0,0.0,0.0,0.0,0.0,0.0,0.0,0.0,0.0,0.0,0.0,0.0,0.0,0.0,0.0,0.0,0.0,0.0,0.0,0.0,-2.0417,0.0,0.0,0.0,0.0,0.0,0.0,0.0,0.0,0.0,0.0,0.0,0.0,0.0,0.0,0.0,0.0,0.0,0.0,0.0,0.0,0.0,0.0,0.0,0.0,0.0,0.0,0.0,0.0,0.0,0.0,0.0,0.0,0.0,0.0,0.0,0.0,0.0,0.0,0.0,0.0,0.0,-1.6282,-1.3879,-1.2838,-1.4911,-1.3802,-1.2787,-1.2498,-1.2117,-1.1861,-1.1801,-1.2239,0.0,0.0,0.0,0.0,0.0,0.0,0.0,0.0,0.0,0.0,0.0,0.0,0.0,0.0,0.0,0.0,0.0,0.0,0.0,0.0,0.0,0.0,0.0,0.0,0.0,0.0,0.0,0.0,0.0,0.0,0.0,0.0,0.0,0.0,0.0,0.0,0.0,0.0,0.0,0.0,0.0,0.0,0.0,0.0,0.0,0.0,0.0,0.0,0.0,0.0,0.0,0.0,0.0,0.0,0.0,0.0,0.0,0.0,0.0,0.0,-2.1417,0.0,0.0,0.0,0.0,0.0,0.0,0.0,0.0,0.0,0.0,0.0,0.0,0.0,0.0,0.0,0.0,0.0,0.0,0.0,0.0,0.0,0.0,0.0,0.0,0.0,0.0,0.0,0.0,0.0,0.0,0.0,0.0,0.0,0.0,0.0,0.0,0.0,0.0,0.0,0.0,-1.6512,-1.442,-1.354,-1.5392,-1.4674,-1.3867,-1.3413,-1.2976,-1.2572,-1.22,-1.2572,0.0,0.0,0.0,0.0,0.0,0.0,0.0,0.0,0.0,0.0,0.0,0.0,0.0,0.0,0.0,0.0,0.0,0.0,0.0,0.0,0.0,0.0,0.0,0.0,0.0,0.0,0.0,0.0,0.0,0.0,0.0,0.0,0.0,0.0,0.0,0.0,0.0,0.0,0.0,0.0,0.0,0.0,0.0,0.0,0.0,0.0,0.0,0.0,0.0,0.0,0.0,0.0,0.0,-2.4691,-2.4948,-2.5083,-2.4931,-2.5218,-2.5693,-2.3866,-2.2581,-2.1786,0.0,0.0,0.0,0.0,0.0,0.0,0.0,0.0,0.0,0.0,0.0,0.0,0.0,0.0,0.0,0.0,0.0,0.0,0.0,0.0,0.0,0.0,0.0,0.0,0.0,-2.2124,-2.1586,0.0,0.0,0.0,0.0,0.0,0.0,0.0,0.0,0.0,0.0,0.0,0.0,-1.6553,-1.4988,-1.4353,-1.5832,-1.5549,-1.5066,-1.4529,-1.3961,-1.3394,-1.2825,-1.2907,-1.3031,0.0,0.0,0.0,0.0,0.0,0.0,0.0,0.0,0.0,0.0,0.0,0.0,0.0,0.0,0.0,0.0,0.0,0.0,0.0,0.0,0.0,0.0,0.0,0.0,0.0,0.0,0.0,0.0,0.0,0.0,0.0,0.0,-2.3701,-2.3401,0.0,0.0,0.0,0.0,0.0,0.0,0.0,0.0,0.0,0.0,0.0,0.0,0.0,0.0,-2.6527,-2.7098,-2.7469,-2.7632,-2.6807,-2.6742,-2.7334,-2.6691,-2.6454,-2.6539,-2.6251,0.0,-2.4017,-2.3416,0.0,0.0,0.0,0.0,0.0,0.0,0.0,0.0,0.0,0.0,0.0,0.0,0.0,0.0,0.0,0.0,0.0,0.0,0.0,0.0,0.0,0.0,-2.2127,-2.1512,-2.1343,-2.1265,0.0,-2.0564,-2.0125,-1.9526,0.0,0.0,0.0,0.0,0.0,0.0,0.0,0.0,-1.6766,-1.5893,-1.5883,-1.7343,-1.6325,-1.5667,-1.5967,-1.5358,-1.4549,-1.3603,-1.3568,-1.3473,-1.3211,-1.3817,0.0,0.0,0.0,0.0,0.0,0.0,0.0,0.0,0.0,0.0,0.0,0.0,0.0,0.0,0.0,0.0,0.0,0.0,0.0,0.0,0.0,0.0,0.0,0.0,0.0,0.0,0.0,0.0,0.0,-2.5897,-2.6497,-2.5627,-2.6107,-2.6268,0.0,0.0,0.0,0.0,0.0,0.0,0.0,0.0,0.0,-2.9229,-2.957,-2.9463,-2.8845,-2.9482,-2.9645,-2.931,-2.9251,-2.9397,-2.9702,-2.9381,-2.9467,-2.9822,-2.9397,-2.8874,-2.8079,-2.5642,-2.4458,-2.4154,0.0,0.0,0.0,0.0,0.0,-2.3966,-2.3646,-2.3543,0.0,0.0,0.0,0.0,0.0,0.0,0.0,0.0,0.0,0.0,0.0,0.0,0.0,-2.3035,-2.3052,-2.2934,-2.2527,-2.1947,-2.1298,0.0,-2.0054,-1.977,-1.993,0.0,0.0,0.0,0.0,0.0,-1.7304,-1.7033,-1.7236,-1.8302,-1.7845,-1.7361,-1.7149,-1.6331,-1.5526,-1.4808,-1.4485,-1.4326,-1.4315,-1.4819,-1.5184,0.0,0.0,0.0,0.0,0.0,0.0,0.0,0.0,0.0,0.0,0.0,0.0,0.0,0.0,0.0,0.0,0.0,0.0,0.0,0.0,0.0,0.0,0.0,0.0,0.0,0.0,0.0,0.0,-2.7622,-2.8361,-2.712,-2.8393,-2.8916,0.0,0.0,0.0,0.0,0.0,0.0,-3.1551,-3.2395,-3.2958,-3.3211,-3.3426,-3.2936,-3.1669,-3.243,-3.237,-3.1509,-3.1867,-3.2138,-3.2307,-3.1935,-3.2154,-3.2818,-3.207,-3.1765,-3.1478,-2.7926,-2.6353,-2.61,-2.5558,-2.5354,-2.5354,-2.5354,-2.5354,-2.532,-2.5134,-2.5066,-2.4965,-2.4423,0.0,-2.3833,-2.3088,0.0,0.0,0.0,0.0,-2.2987,-2.3528,-2.3816,-2.4103,-2.466,-2.4778,-2.4575,-2.3848,-2.3105,-2.231,0.0,-2.1038,-2.097,-2.1156,0.0,0.0,0.0,0.0,-1.7907,-1.8065,-1.8256,-1.8577,-1.913,-1.9012,-1.8674,-1.8132,-1.7222,-1.6463,-1.5917,-1.5514,-1.5255,-1.5203,-1.5652,-1.587,-1.5799,0.0,0.0,0.0,0.0,0.0,0.0,0.0,0.0,0.0,0.0,0.0,0.0,0.0,0.0,0.0,0.0,0.0,0.0,0.0,0.0,0.0,0.0,0.0,0.0,0.0,0.0,0.0,0.0,0.0,-2.6469,-2.8584,0.0,0.0,0.0,0.0,-3.1082,-3.2331,-3.3223,-3.362,-3.4422,-3.4848,-3.488,-3.5679,-3.5952,-3.5613,-3.6482,-3.6367,-3.5312,-3.4658,-3.4709,-3.5329,-3.3931,-3.3694,-3.4336,-3.3609,-3.3288,-3.3068,-3.0076,-2.8383,-2.7689,-2.7655,-2.7638,-2.7638,-2.7638,-2.7638,-2.7536,-2.6826,-2.6589,-2.6573,-2.6539,-2.6065,-2.5355,-2.4609,-2.4389,0.0,0.0,-2.4389,-2.4389,-2.444,-2.4949,-2.5507,-2.5541,-2.5541,-2.5338,-2.4609,-2.3864,-2.2919,0.0,-2.0585,-2.0302,-2.1072,0.0,-2.0818,-2.0065,-2.0534,-2.0463,-1.9041,-1.9456,-1.99,-1.9934,-1.9321,-1.8877,-1.8843,-1.8172,-1.7428,-1.6688,-1.6627,-1.6181,-1.524,-1.5824,-1.6049,-1.5795,-1.7123,0.0,0.0,0.0,0.0,0.0,0.0,0.0,0.0,0.0,0.0,0.0,0.0,0.0,0.0,0.0,0.0,0.0,0.0,0.0,0.0,0.0,0.0,0.0,0.0,0.0,0.0,0.0,0.0,-3.0793,-3.2999,0.0,-3.359,-3.3037,-3.325,-3.4464,-3.4973,-3.5729,-3.6876,-3.7716,-3.8395,-3.8912,-3.8844,-3.8618,-3.8215,-3.8158,-3.7763,-3.7094,-3.6823,-3.684,-3.7036,-3.6045,-3.5746,-3.5949,-3.5165,-3.4822,-3.4687,-3.3169,-3.1819,-3.0649,-3.0176,-2.9989,-2.9989,-2.9989,-2.9989,-2.9956,-2.9685,-2.9583,-2.9431,-2.8502,-2.7317,-2.6167,-2.5423,-2.5203,-2.5101,-2.4626,-2.4491,-2.4609,-2.5067,-2.5406,-2.5711,-2.6201,-2.6302,-2.5981,-2.4762,-2.4288,-2.3678,-2.2192,-2.1295,-2.1008,-2.1786,-2.1079,-2.0517,-2.0737,-2.0585,-2.0234,-1.9676,-2.0297,-2.0771,-2.0771,-2.0547,-2.0175,-1.9642,-1.8927,-1.8183,-1.7456,-1.7405,-1.7243,-1.6886,-1.7099,-1.7405,-1.7786,-1.8456,-1.8771,0.0,0.0,0.0,0.0,0.0,0.0,0.0,0.0,0.0,0.0,0.0,0.0,0.0,0.0,0.0,0.0,0.0,0.0,0.0,0.0,0.0,0.0,0.0,0.0,0.0,0.0,-3.3599,-3.441,-3.6237,-3.7261,-3.6903,-3.5791,-3.5626,-3.6902,-3.721,-3.7935,-3.9259,-4.0092,-4.0799,-4.1325,-4.0957,-4.0495,-3.9979,-3.9573,-3.9009,-3.8278,-3.8278,-3.8278,-3.8261,-3.7499,-3.732,-3.7489,-3.6451,-3.6163,-3.6309,-3.5571,-3.4714,-3.3698,-3.2425,-3.1935,-3.1968,-3.2222,-3.2154,-3.1935,-3.1935,-3.1613,-3.1038,-3.0076,-2.8722,-2.7317,-2.6556,-2.6336,-2.6184,-2.5455,-2.5235,-2.5354,-2.5845,-2.5981,-2.6099,-2.6573,-2.6691,-2.6353,-2.5151,-2.488,-2.4525,-2.3274,-2.2243,-2.1732,-2.2212,-2.1451,-2.1045,-2.1833,-2.1278,-2.0876,-2.1113,-2.1397,-2.1566,-2.1566,-2.1343,-2.0987,-2.0454,-1.9722,-1.9051,-1.8577,-1.8544,-1.8544,-1.8544,-1.8544,-1.8763,-1.9266,-1.9616,-1.9993,-2.0403,0.0,0.0,0.0,0.0,0.0,0.0,0.0,0.0,0.0,0.0,0.0,0.0,0.0,0.0,0.0,0.0,0.0,0.0,0.0,0.0,0.0,0.0,0.0,-3.0465,-3.353,-3.6073,-3.6906,-3.7882,-3.8412,-3.818,-3.7142,-3.7053,-3.8431,-3.9118,-3.9817,-4.0598,-4.1382,-4.181,-4.181,-4.1789,-4.149,-4.0903,-4.088,-4.0264,-3.9022,-3.9022,-3.9022,-3.9005,-3.8278,-3.8311,-3.8886,-3.7455,-3.7212,-3.7821,-3.7134,-3.6829,-3.6609,-3.4387,-3.3491,-3.3558,-3.4269,-3.4083,-3.3474,-3.344,-3.2476,-3.1258,-3.1241,-3.0262,-2.8925,-2.8111,-2.7874,-2.7722,-2.6979,-2.6759,-2.6759,-2.6759,-2.6742,-2.6725,-2.6725,-2.6708,-2.6488,-2.5761,-2.5592,-2.5389,-2.4643,-2.3342,-2.2347,-2.233,-2.2313,-2.2533,-2.3257,-2.2767,0.0,-2.3274,-2.275,-2.2296,-2.233,-2.1667,-2.1224,-2.1224,-2.05,-2.0018,-2.0002,-2.0002,-2.0002,-2.0002,-2.0002,-2.0002,-2.0035,-2.0568,-2.097,-2.1224,0.0,0.0,0.0,0.0,0.0,0.0,0.0,0.0,0.0,0.0,0.0,0.0,0.0,0.0,0.0,0.0,0.0,0.0,0.0,0.0,0.0,0.0,-3.4217,-3.4217,-3.5948,-3.7732,-3.9138,-4.0217,-4.1009,-4.1357,-4.072,-4.0624,-4.1453,-4.1294,-4.1241,-4.1453,-4.1687,-4.181,-4.181,-4.138,-4.1064,-4.0903,-4.0504,-4.0152,-3.9808,-3.9808,-3.9808,-3.9774,-3.9022,-3.8514,-3.8176,-3.777,-3.7398,-3.7134,-3.7449,-3.7601,-3.7483,-3.6315,-3.5504,-3.5008,-3.5211,-3.516,-3.4906,-3.4387,-3.3575,-3.2713,-3.2154,-3.1362,-3.0446,-2.9702,-2.9463,-2.9313,-2.8587,-2.8367,-2.8367,-2.8367,-2.7926,-2.7503,-2.7503,-2.7097,-2.6488,-2.5761,-2.5592,-2.5389,-2.4643,-2.4169,-2.3729,-2.319,-2.2649,-2.2364,-2.2567,-2.2431,0.0,-2.2581,-2.2431,-2.2499,-2.3038,-2.2446,-2.2006,-2.2006,-2.1295,-2.0619,-2.0035,-2.0002,-2.0002,-2.0002,-2.0002,-2.0268,-2.0856,-2.1549,-2.1921,0.0,0.0,0.0,0.0,0.0,0.0,0.0,0.0,0.0,0.0,0.0,0.0,0.0,0.0,0.0,0.0,0.0,0.0,0.0,0.0,0.0,0.0,-3.5365,-3.713,-3.7685,-3.8348,-3.9428,-4.105,-4.1348,-4.175,-4.2616,-4.1703,-4.1331,-4.1895,-4.142,-4.1099,-4.1099,-4.1099,-4.1099,-4.1099,-4.0767,-4.0577,-4.0577,-4.0254,-4.0096,-4.0096,-4.0096,-4.0096,-4.0096,-3.9673,-3.9249,0.0,-3.8481,-3.8278,-3.82,-3.8311,-3.8362,0.0,0.0,0.0,0.0,0.0,-3.5802,-3.5994,-3.5233,-3.4489,-3.3744,-3.3,-3.2276,-3.1481,-3.0429,-3.0108,-2.9956,-2.9213,-2.8993,-2.8993,-2.8993,-2.8653,-2.8298,-2.8298,-2.7977,-2.7435,-2.6674,-2.6522,-2.6302,-2.5558,0.0,0.0,-2.4391,-2.346,-2.2868,-2.3173,-2.2699,-2.2398,-2.2733,-2.2496,-2.2448,-2.2885,-2.2564,-2.2296,-2.2296,-2.1904,0.0,0.0,0.0,-2.0961,-2.0961,-2.0961,0.0,0.0,0.0,-2.2296,-2.2296,0.0,0.0,0.0,-2.1651,-2.1887,0.0,0.0,0.0,0.0,0.0,0.0,0.0,0.0,0.0,0.0,0.0,0.0,0.0,0.0,0.0,0.0,-3.838,-3.9516,-4.0629,-4.0651,-4.1058,-4.2462,-4.1631,-4.1386,-4.2506,-4.11,-4.0336,-4.0856,-4.0417,-4.0096,-4.0096,0.0,0.0,0.0,0.0,-4.0096,-4.0096,-4.0096,-4.0096,-4.0096,-4.0096,-4.0096,-4.0096,-4.0096,-4.0062,-3.9943,-3.9385,-3.9453,-3.9943,-3.9343,-3.9073,-3.8836,-3.7388,-3.6745,-3.6592,-3.5853,-3.6062,0.0,0.0,0.0,0.0,-3.3643,-3.2899,-3.2056,-3.0734,-3.0294,-3.0091,-2.9433,-2.9247,-2.9247,-2.9247,-2.9196,-2.9128,-2.9128,-2.9061,-2.8807,-2.8077,-2.7942,-2.7739,-2.708,-2.6353,-2.5846,-2.5846,-2.456,-2.3729,-2.4288,-2.3257,-2.2632,-2.319,-2.2699,-2.233,-2.2429,0.0,0.0,-2.2429,-2.2347,-2.2296,-2.2296,-2.2296,-2.2296,-2.2296,-2.2296,-2.2296,-2.2296,-2.2296,-2.2296,-2.2296,-2.2296,-2.2296,-2.2296,-2.2296,-2.2296,0.0,0.0,0.0,0.0,0.0,0.0,0.0,0.0,0.0,0.0,0.0,0.0,0.0,0.0,0.0,-3.838,-4.0467,-4.1885,-4.1951,-4.2348,-4.2527,-4.2253,-4.157,-4.1439,-4.2149,-4.0923,-4.0336,-4.0856,-4.0417,-4.0096,-4.0096,-4.0096,0.0,-4.0096,-4.0096,-4.0096,-4.0096,-4.0096,-4.0096,-4.0096,0.0,0.0,-4.0096,-4.0096,-3.9791,-3.9225,-3.9706,-3.9639,-3.9242,-3.9706,-3.9554,-3.8836,-3.7388,-3.64,-3.5802,-3.565,-3.5701,-3.5701,-3.4962,-3.4624,-3.437,-3.3643,-3.2899,-3.2242,-3.1972,-3.1464,0.0,-3.0801,-3.0768,-3.0768,-3.0768,-3.0328,-2.9888,-2.9888,-2.9431,-2.8959,-2.8807,-2.8773,-2.8739,-2.8587,-2.7926,-2.7367,-2.7367,-2.5659,-2.4135,-2.3678,-2.3359,-2.3021,-2.2567,-2.2381,-2.253,-2.3122,-2.2649,-2.2533,-2.3139,-2.2634,-2.2296,-2.2296,-2.2296,-2.2296,-2.2296,-2.2296,-2.2296,-2.2296,-2.2296,-2.2296,-2.2296,-2.2296,-2.2296,-2.2296,-2.2296,-2.2296,0.0,0.0,0.0,0.0,0.0,0.0,0.0,0.0,0.0,0.0,0.0,-3.5162,0.0,0.0,-3.8894,-4.0288,-4.1901,-4.284,-4.2351,-4.3223,-4.3597,-4.2753,-4.2125,-4.1988,-4.259,-4.1783,-4.1308,-4.1585,-4.1359,-4.1213,-4.1213,-4.0832,-4.0646,-4.0646,-4.0299,-4.0096,-4.0096,-4.0096,-4.0096,-4.0096,-4.0096,-4.0096,-4.0096,-4.0096,-3.991,-3.9571,-3.9943,-3.9893,-3.9588,-3.996,-3.9673,-3.892,-3.82,-3.7432,-3.6721,-3.6349,-3.6197,-3.6096,-3.5318,-3.5064,-3.4928,-3.4184,-3.3694,-3.3343,-3.2949,-3.2594,-3.2222,-3.185,-3.2019,-3.2222,-3.1853,-3.1481,-3.119,-3.119,-3.0632,-2.9989,-2.9617,-2.955,-2.9431,-2.9077,-2.867,-2.8399,-2.8399,-2.7486,-2.6251,-2.4729,-2.4188,-2.3831,-2.3444,-2.3071,-2.2987,-2.3359,-2.275,-2.2448,-2.2818,-2.2499,-2.2296,-2.2296,-2.2296,-2.2296,-2.2296,-2.2296,-2.2296,-2.2296,-2.2296,-2.2296,-2.2296,-2.2296,-2.2296,-2.2296,-2.2296,-2.2296,0.0,0.0,0.0,0.0,0.0,0.0,0.0,0.0,-3.458,-3.5723,-3.6526,-3.753,-3.9159,-3.9792,-4.0554,-4.2031,-4.2987,-4.3386,-4.2821,-4.3836,-4.4317,-4.3563,-4.2918,-4.2702,-4.3184,-4.267,-4.2286,-4.2286,-4.2286,-4.2286,-4.2286,-4.1728,-4.1407,-4.1407,-4.0832,-4.0536,-4.0536,-4.0536,-4.0468,-4.0316,-4.0316,-4.0248,-4.0096,-4.0096,-4.0096,-4.0096,-4.0096,-4.0096,-4.0096,-4.0096,-3.9757,-3.9208,-3.9208,-3.8853,-3.8227,-3.7354,-3.7015,-3.6891,-3.6113,-3.5819,-3.5723,-3.4962,-3.4607,-3.4387,-3.3795,-3.3508,-3.3288,-3.2682,-3.2933,-3.3271,-3.2682,-3.2513,-3.2479,-3.2327,-3.1853,-3.1207,-3.048,-3.0311,-3.0142,-2.9551,-2.9314,-2.9213,-2.9213,-2.9094,-2.8282,-2.615,-2.532,-2.4812,-2.4541,-2.3983,-2.3562,-2.341,-2.2868,-2.2462,-2.2313,-2.2296,-2.2296,-2.2296,-2.2296,-2.2296,-2.2296,-2.2296,-2.2296,-2.2296,-2.2296,-2.2296,-2.2296,-2.2296,-2.2296,-2.2296,-2.2296,-2.2296,-2.6607,-2.7615,-2.9729,-3.2303,-3.3119,-3.4165,0.0,0.0,-3.7625,-3.8401,-3.9154,-3.9738,-3.9974,-4.1006,-4.2132,-4.31,-4.3776,-4.4242,-4.4342,-4.4496,-4.4558,-4.4444,-4.3762,-4.3284,-4.3366,-4.2729,-4.2286,-4.2286,-4.2286,-4.2286,-4.2286,-4.2219,-4.2168,-4.2168,-4.2083,-4.2033,-4.2033,-4.2033,-4.1728,-4.1085,-4.1085,-4.073,-4.0096,-4.0096,-4.0096,-4.0096,-4.0096,-4.0096,-4.0096,-4.0096,-4.0045,-3.9977,-3.9977,-3.9943,-3.969,-3.8294,-3.7787,-3.7669,-3.6907,-3.6677,-3.6518,-3.574,-3.503,-3.4472,-3.4387,-3.3914,-3.3389,-3.3305,-3.3339,-3.3389,-3.3305,-3.3288,-3.3119,-3.2462,-3.2242,-3.1972,-3.1241,-3.1072,-3.1055,-3.0954,-3.0429,-2.9989,-2.9989,-2.9431,-2.8451,-2.681,-2.6505,-2.598,-2.466,-2.4423,-2.4135,-2.346,-2.3325,-2.3004,-2.2347,-2.2296,-2.2296,-2.2296,-2.2296,-2.2296,-2.2296,-2.2296,-2.2296,-2.2296,-2.2296,-2.2296,-2.2296,-2.2296,-2.2296,-2.2296,-2.2296,-2.2296,-2.9856,-3.0798,-3.2138,-3.3667,-3.5351,-3.7077,-3.8633,-3.9089,-3.9377,-4.0138,-4.0865,-4.1508,-4.1922,-4.2481,-4.3131,0.0,-4.4327,-4.4511,-4.4592,-4.4198,-4.391,-4.391,-4.3234,-4.3115,-4.4012,-4.3403,-4.3132,-4.3616,-4.365,-4.365,-4.365,-4.3183,-4.2946,-4.2946,-4.2523,-4.2286,-4.2286,-4.1863,-4.1508,-4.1204,-4.0747,-4.0417,-4.0096,-4.0096,-4.0096,-4.0096,-4.0096,-4.0096,-4.0096,-4.0096,-4.0096,-4.0096,-4.0096,-4.0096,-3.9977,-3.892,-3.8531,-3.843,-3.7702,-3.7144,-3.6745,-3.64,-3.5774,-3.5148,-3.5148,-3.4906,-3.4585,-3.4167,-3.4353,-3.4568,-3.415,-3.4032,-3.3964,-3.3664,-3.3237,-3.2848,-3.2544,-3.2476,-3.2476,-3.2476,-3.2239,-3.1884,-3.1444,-3.1125,-3.0415,-2.8907,-2.7909,-2.7114,-2.6505,-2.5676,-2.4695,-2.3511,-2.3393,-2.3105,-2.2347,-2.2296,-2.2296,-2.2296,-2.2296,-2.2296,-2.2296,-2.2296,-2.2296,-2.2296,-2.2296,-2.2296,-2.2296,-2.2296,-2.2296,-2.2296,-2.2296,-2.2296,-3.2043,-3.3001,-3.3902,-3.5133,-3.7381,-3.9462,-4.007,-4.0629,-4.1271,-4.2252,-4.254,-4.2777,-4.3291,-4.3392,-4.3578,-4.4164,-4.4479,-4.4615,-4.4615,-4.391,-4.3392,-4.3392,-4.2574,-4.2506,-4.3853,-4.3623,-4.3741,-4.4547,-4.4615,-4.4615,-4.4615,-4.4045,-4.3741,-4.3741,-4.32,-4.2828,-4.2608,-4.2286,-4.183,-4.1204,-4.0849,-4.0502,-4.0096,-4.0096,-4.0096,-4.0096,-4.0096,-4.0096,-4.0096,-4.0096,-4.0096,-4.0096,-4.0096,-4.0096,-4.0045,-3.9503,-3.9292,-3.9191,-3.8464,-3.7838,-3.7371,-3.7185,-3.6705,-3.6225,-3.6225,-3.609,-3.5825,-3.5267,-3.5368,-3.5481,-3.4945,-3.4793,-3.4742,-3.4539,-3.4083,-3.366,-3.344,-3.3406,-3.3406,-3.3406,-3.3406,-3.3237,-3.2699,-3.2615,-3.2154,-3.0903,-2.9565,-2.8517,-2.7891,-2.6505,-2.5118,-2.3833,-2.3697,-2.3325,-2.2381,-2.2496,-2.2516,-2.2313,-2.2496,-2.2499,-2.2296,-2.2499,-2.2513,-2.2296,-2.2296,-2.2296,-2.2296,-2.2296,-2.2296,-2.2296,-2.2296,-2.2296,-3.1958,-3.3046,-3.4267,-3.7087,-3.8954,-4.062,-4.2767,-4.3274,-4.3713,-4.5263,-4.4401,-4.3358,-4.3392,-4.3392,-4.3392,-4.3426,-4.4079,-4.4615,-4.4615,-4.391,-4.3392,-4.3392,-4.2134,-4.1525,0.0,-4.2997,-4.3741,-4.4547,-4.4615,-4.4615,-4.4615,-4.4581,-4.4564,-4.4564,-4.4547,-4.4147,-4.3358,-4.4113,-4.3369,-4.1221,-4.1897,-4.1474,-4.0096,-4.0096,-4.0096,-4.0096,-4.0096,-4.0096,-4.0096,-4.0096,-4.0096,-4.0096,-4.0096,-4.0096,-4.0096,-4.0079,-4.0079,-3.996,-3.9208,-3.8937,-3.8819,-3.8108,-3.7855,-3.7838,-3.7838,-3.733,-3.6761,-3.6745,-3.618,-3.5583,-3.5566,-3.5566,-3.538,-3.4675,-3.4472,-3.4269,-3.3558,-3.3406,-3.3406,-3.3406,-3.3406,-3.3406,-3.3372,-3.3372,-3.3119,-3.2361,-3.1562,-3.0311,-2.8077,-2.6505,-2.5321,-2.4541,-2.4457,-2.3881,-2.2415,-2.297,-2.3054,-2.2361,-2.297,-2.3054,-2.233,-2.2987,-2.3038,-2.2313,-2.2296,-2.2296,-2.2296,-2.2296,-2.2296,-2.2296,-2.2296,-2.2296,-3.3157,-3.5585,-3.7876,-4.023,-4.2337,-4.4028,-4.4773,-4.4942,-4.479,-4.4271,-4.2997,-4.1948,-4.1948,-4.1533,-4.1516,-4.2506,-4.3318,-4.3995,-4.453,-4.391,-4.3234,-4.2726,-4.1796,0.0,0.0,0.0,0.0,-4.3758,-4.4282,-4.4615,-4.4615,-4.506,-4.5094,-4.4632,-4.506,-4.4959,-4.4198,-4.3944,-4.3436,-4.2632,-4.1931,-4.1305,-4.0798,-4.0333,-4.0096,-4.0096,-4.0096,-4.0096,-4.0096,-4.0096,-4.0096,-4.0096,-4.0096,-4.0096,-4.0096,-4.0096,-4.0096,-4.0062,-3.9825,-3.9419,-3.8954,-3.87,-3.8311,-3.7905,-3.7905,-3.7736,-3.7533,-3.7533,-3.733,-3.7144,-3.7144,-3.7144,-3.6941,-3.6203,-3.6034,-3.5791,-3.5047,-3.4856,-3.4856,-3.4856,-3.4856,-3.4687,-3.4201,-3.4134,-3.3711,-3.2479,-3.0838,-2.9262,-2.7976,-2.6945,-2.6048,-2.5304,-2.522,-2.4831,-2.3833,-2.4,-2.4017,-2.378,-2.4,-2.4017,-2.378,-2.3528,-2.3274,-2.3038,-2.3038,-2.2801,-2.2296,-2.2801,-2.2784,-2.2313,-2.2801,-2.2784,-3.5558,-3.8473,-4.1151,-4.3033,-4.4621,-4.5771,-4.6024,-4.5466,-4.4621,-4.3595,-4.1813,-4.0409,-4.0409,-3.9597,-3.9495,-4.1238,-4.1914,-4.2777,-4.4395,-4.3673,-4.3047,-4.3098,-4.2455,-4.2185,0.0,0.0,0.0,-4.3792,-4.4553,-4.4976,-4.4976,-4.5686,-4.5754,-4.501,-4.5449,-4.5213,-4.4181,-4.3944,-4.369,-4.3375,-4.2168,-4.1593,-4.1576,-4.0815,-4.0476,-4.0485,-4.0214,-4.0096,-4.0096,-4.0096,-4.0096,-4.0096,-4.0096,-4.0096,-4.0096,-4.0096,-4.0096,-4.0096,-4.0096,-3.9791,-3.9402,-3.9402,-3.9056,-3.8684,-3.8684,-3.8497,-3.8294,-3.8294,-3.8108,-3.7905,-3.7905,-3.7905,-3.7787,-3.7297,-3.6998,-3.666,-3.6146,-3.5785,-3.56,-3.56,-3.56,-3.5447,-3.4979,-3.4455,-3.3778,-3.2852,-3.0801,-2.911,-2.8332,-2.7334,-2.642,-2.5693,-2.5845,-2.5592,-2.4592,-2.4745,-2.4778,-2.4508,-2.4745,-2.4778,-2.4508,-2.4305,-2.4052,-2.3814,-2.3797,-2.3427,-2.2685,-2.3427,-2.341,-2.2716,-2.3444,-2.3528,-3.8957,-4.1462,-4.3916,-4.5449,-4.5821,-4.5974,-4.6599,-4.4981,-4.3314,-4.3162,-4.0771,-3.8728,0.0,0.0,-3.7442,-3.9699,-4.0164,-4.1314,-4.4242,-4.3447,-4.3047,0.0,0.0,0.0,0.0,0.0,0.0,-4.4716,0.0,-4.572,-4.5754,-4.6464,-4.6515,-4.5788,-4.5771,-4.5043,-4.3511,-4.4231,-4.4215,-4.3443,-4.2709,-4.2354,-4.232,-4.1593,-4.1238,-4.117,-4.0468,-4.013,-4.0096,-4.0096,-4.0096,-4.0096,-4.0096,-4.0096,-4.0096,-4.0096,-4.0096,-4.0096,-4.0096,-4.0096,-4.0096,-4.0096,-4.0096,-4.0096,-4.0096,-3.9622,-3.9056,-3.9056,-3.8548,-3.8024,-3.8024,-3.8024,-3.8007,-3.7973,-3.7415,-3.6897,-3.6863,-3.6231,-3.5667,-3.5701,-3.5684,-3.565,-3.56,-3.4366,-3.3406,-3.3406,-3.1529,-2.9837,-2.9094,-2.769,-2.6471,-2.5744,-2.6285,-2.6116,-2.4728,-2.5253,-2.5355,-2.466,-2.527,-2.5338,-2.4643,-2.5253,-2.527,-2.4558,-2.4558,-2.4186,-2.346,-2.4203,-2.4186,-2.346,-2.422,-2.4541,-4.1707,-4.4131,-4.616,-4.7094,-4.7331,-4.7094,-4.6194,-4.4263,-4.2049,-3.9894,-3.7105,-3.5051,0.0,0.0,0.0,-3.8916,-4.1167,0.0,-4.5145,-4.5551,0.0,-4.5432,0.0,-4.5128,-4.5128,-4.5297,0.0,0.0,-4.5906,-4.594,-4.6481,-4.7225,-4.7293,-4.6532,-4.6515,-4.6075,-4.5128,-4.4756,-4.4513,-4.4265,-4.3504,-4.3132,-4.3071,-4.2354,-4.1711,-4.1187,-4.1001,-4.0595,-4.0096,-4.0096,-4.0096,-4.0096,-4.0096,-4.0096,-4.0096,-4.0096,-4.0096,-4.0096,-4.0096,-4.0096,-4.0096,-4.0096,-4.0096,-4.0096,-4.0096,-3.9977,-3.9825,-3.9825,-3.969,-3.9554,-3.9554,-3.9554,-3.9394,-3.8853,-3.8582,-3.8278,-3.7736,-3.7026,-3.6654,-3.7212,-3.6874,-3.6299,-3.5701,-3.4366,-3.3406,-3.3406,-3.1529,-2.9837,-2.9094,-2.8129,-2.7232,-2.6505,-2.659,-2.6539,-2.6183,-2.6302,-2.6336,-2.615,-2.6319,-2.6336,-2.6149,-2.5795,-2.5507,-2.5321,-2.5321,-2.4949,-2.422,-2.4949,-2.4932,-2.4237,-2.4983,-2.5032,-4.4436,-4.6316,-4.7851,-4.8291,-4.7665,-4.6549,-4.5043,-4.2523,-3.9785,-3.7159,-3.4569,-3.2974,-3.3551,-3.3709,0.0,0.0,0.0,0.0,-4.5365,-4.6058,-4.6515,0.0,-4.687,0.0,-4.7124,-4.687,-4.6972,0.0,-4.709,-4.6853,-4.7259,-4.7986,-4.8054,-4.731,-4.6972,-4.6278,-4.5229,-4.4818,-4.4615,-4.4598,-4.413,-4.3927,-4.3893,-4.2794,-4.2066,-4.1644,0.0,-4.0485,-4.0096,-4.0096,-4.0299,-4.0544,-4.0231,-4.0502,-4.0993,-4.035,-4.0316,-4.0527,-4.0214,-4.0096,-4.0096,-4.0096,-4.0096,-4.0096,-4.0096,-4.0096,-4.0096,-4.0096,-4.0096,-4.0096,-4.0096,-4.0096,-3.9994,-3.9588,-3.9225,-3.8886,-3.8464,-3.7804,-3.7297,-3.7398,-3.6789,-3.6129,-3.5667,-3.4366,-3.3406,-3.3406,-3.1799,-3.0311,-2.9567,-2.85,-2.7519,-2.6776,-2.6691,-2.6691,-2.6691,-2.6691,-2.6691,-2.6691,-2.6691,-2.6691,-2.6691,-2.6302,-2.6082,-2.6082,-2.6082,-2.5727,-2.4983,-2.5727,-2.5693,-2.5,-2.5744,-2.5862,-4.687,-4.802,-4.8984,-4.8883,-4.7259,-4.5246,-4.3494,-4.0378,-3.7131,-3.479,-3.2635,-3.159,-3.2834,-3.2767,-3.3925,-3.8178,0.0,-4.1651,-4.5331,-4.594,-4.6786,-4.89,-4.8595,-4.846,-4.9086,-4.8578,-4.8426,-4.8968,-4.8426,-4.8041,-4.8041,-4.8663,-4.8629,-4.78,-4.7039,-4.5974,-4.4615,-4.4615,-4.4615,-4.4615,-4.4615,-4.4615,-4.4564,-4.3227,-4.2472,-4.2219,0.0,0.0,-4.0248,-4.0248,-4.0663,-4.1288,-4.0654,-4.1179,-4.2117,-4.0756,-4.0696,-4.1221,-4.04,-4.0163,-4.0231,-4.013,-4.0096,-4.0096,-4.0096,-4.0096,-4.0096,-4.0096,-4.0096,-4.0096,-4.0096,-4.0096,-4.0096,-4.0096,-3.9622,-3.914,-3.914,-3.8633,-3.7939,-3.7117,-3.6383,-3.587,-3.5769,-3.4455,-3.3406,-3.3406,-3.2138,-3.092,-3.0192,-2.8838,-2.7672,-2.6928,-2.6759,-2.6691,-2.6691,-2.6691,-2.6691,-2.6691,-2.6691,-2.6691,-2.6691,-2.6691,-2.6691,-2.6691,-2.6691,-2.6387,-2.5761,-2.6387,-2.637,-2.5761,-2.6404,-2.6691,-4.8257,-4.8815,-4.8849,-4.8227,-4.6904,-4.4993,-4.2219,-3.8825,0.0,-3.2692,-3.0523,-2.934,-3.0166,-3.1599,-3.3865,-3.7578,-4.029,-4.3014,-4.616,-4.7141,-4.8122,0.0,-4.9796,-4.9763,-4.9898,0.0,0.0,0.0,0.0,-4.8815,-4.8815,-4.8934,-4.8376,-4.7022,-4.6278,-4.5483,-4.4615,-4.4615,-4.4615,-4.4615,-4.4615,-4.4615,-4.4598,-4.4327,-4.3515,-4.2286,0.0,0.0,-4.1018,-4.1018,-4.1441,-4.21,-4.1965,-4.2066,-4.2185,-4.1322,-4.1474,-4.1914,-4.057,-4.0519,-4.0899,-4.0316,-4.0096,-4.0096,-4.0096,-4.0096,-4.0096,-4.0096,-4.0096,-4.0096,-4.0096,-4.0096,-4.0096,-4.0096,-4.0011,-3.991,-3.991,-3.9808,-3.9334,-3.7973,-3.7601,-3.7313,-3.6711,-3.481,-3.3406,-3.3406,-3.2138,-3.092,-3.0192,-2.933,-2.8484,-2.7689,-2.7063,-2.6691,-2.6691,-2.6691,-2.6691,-2.6691,-2.6691,-2.6691,-2.6691,-2.6691,-2.6691,-2.6691,-2.6691,-2.664,-2.6505,-2.664,-2.6623,-2.6505,-2.664,-2.6691,-4.7905,-4.8625,-4.8832,-4.8075,-4.621,-4.3641,-4.0333,0.0,0.0,-3.0576,-2.8968,-2.8392,-2.9398,-3.1015,-3.3206,-3.6332,-3.8656,-4.1364,-4.5076,-4.5955,0.0,-5.0321,-4.955,-4.9286,0.0,0.0,0.0,0.0,0.0,-4.9001,-4.9001,-4.8646,-4.8105,-4.7394,-4.6667,-4.6092,-4.5766,-4.572,-4.572,-4.5749,-4.5348,-4.5162,-4.5145,-4.4333,-4.3572,-4.2861,-4.2472,0.0,-4.1762,-4.1762,-4.2202,-4.2828,-4.2439,-4.2777,-4.3379,-4.2202,-4.1999,-4.2134,-4.1035,-4.0646,-4.0561,-4.0214,-4.0096,-4.0096,-4.0096,-4.0096,-4.0096,-4.0096,-4.0096,-4.0096,-4.0096,-4.0096,-4.0096,-4.0096,-4.0096,-4.0096,-4.0096,-3.9808,-3.9334,-3.8616,-3.8159,-3.7669,-3.6931,-3.5554,-3.4421,-3.4032,-3.2713,-3.1533,-3.0861,-2.9785,-2.8932,-2.8465,-2.8095,-2.791,-2.791,-2.7503,-2.7283,-2.7283,-2.6911,-2.6691,-2.6691,-2.6691,-2.6691,-2.6691,-2.6691,-2.6691,-2.6691,-2.6691,-2.6691,-2.6691,-2.6691,-2.6691,-4.7078,-4.8172,-4.8798,-4.7902,-4.5505,-4.2429,-3.8707,-3.5183,-3.1894,-2.9083,-2.8018,-2.7956,-2.9171,-3.0535,-3.2327,-3.494,-3.6723,-3.9232,-4.3456,-4.4181,-4.5941,0.0,-4.8945,0.0,0.0,0.0,0.0,0.0,0.0,0.0,-4.9001,-4.8308,-4.7889,-4.7889,-4.6978,-4.6484,-4.6484,-4.6484,-4.6484,-4.6514,-4.6123,-4.5855,-4.5669,-4.4468,-4.3696,-4.3358,-4.2794,0.0,0.0,-4.254,-4.298,-4.3606,-4.3014,-4.3548,-4.4445,-4.3047,-4.2625,-4.2658,-4.1745,-4.1052,-4.0553,-4.04,-4.0231,-4.0096,-4.0096,-4.0096,-4.0096,-4.0096,-4.0096,-4.0096,-4.0096,-4.0096,-4.0096,-4.0096,-4.0096,-4.0096,-4.0096,-3.9656,-3.9225,-3.9225,-3.8633,-3.7956,-3.7371,-3.6349,-3.5335,-3.4617,-3.3287,-3.2051,-3.1276,-3.0298,-2.9576,-2.9318,-2.9005,-2.8848,-2.8975,-2.8416,-2.806,-2.806,-2.7503,-2.7114,-2.6945,-2.6945,-2.6945,-2.6945,-2.6776,-2.686,-2.7182,-2.7012,-2.6945,-2.6945,-2.6945,-2.6843,-4.6499,-4.782,-4.8663,-4.7242,-4.5145,-4.2294,-3.805,0.0,-3.1894,-2.9083,-2.8018,-2.7835,-2.8561,-2.9797,-3.1426,-3.3631,-3.5633,-3.8241,-4.2055,-4.2963,-4.495,-4.9639,0.0,0.0,0.0,0.0,0.0,0.0,0.0,0.0,0.0,-4.8308,-4.7889,-4.7889,-4.6362,-4.5542,-4.5542,-4.5542,-4.5542,-4.5542,-4.631,-4.6346,-4.5703,-4.5568,-4.4739,-4.3392,0.0,0.0,0.0,-4.3291,-4.3775,-4.4496,-4.4429,-4.4479,-4.4496,-4.3623,-4.3758,-4.4192,-4.2692,-4.2151,-4.1982,-4.1322,-4.0646,-4.0096,-4.0096,-4.0096,-4.0096,-4.0096,-4.0096,-4.0096,-4.0096,-4.0096,-4.0096,-4.0096,-4.0096,-4.0096,-4.0096,-4.0045,-3.9994,-3.9994,-3.9394,-3.887,-3.8802,-3.7026,-3.5368,-3.47,-3.3337,-3.1941,-3.0658,-3.0894,-3.0966,-3.033,-2.9016,-2.84,-2.8956,-2.8942,-2.8891,-2.8891,-2.8824,-2.845,-2.7722,-2.7705,-2.7705,-2.7705,-2.7046,-2.7402,-2.879,-2.8061,-2.7705,-2.7705,-2.7705,-2.7334,-4.4675,-4.7054,-4.8545,-4.6616,-4.4096,-4.0968,-3.6753,-3.3501,-3.0744,-2.8419,-2.776,-2.7675,-2.7959,-2.9094,-3.0555,-3.2222,-3.3809,-3.613,-3.9774,-4.043,-4.26,-4.8058,-4.6779,0.0,0.0,0.0,0.0,0.0,0.0,0.0,0.0,-4.7157,-4.7007,-4.688,-4.5779,-4.5434,-4.5888,-4.6454,-4.6732,-4.6732,-4.7237,-4.709,-4.6346,-4.5906,-4.5128,-4.4113,0.0,0.0,0.0,-4.4113,-4.4299,-4.4615,-4.4615,-4.4615,-4.4508,-4.3655,-4.3265,-4.3065,-4.2465,-4.1921,-4.1477,-4.1266,-4.1001,-4.0679,-4.0231,-4.0096,-4.0096,-4.0096,-4.0096,-4.0096,-4.0096,-4.0096,-4.0096,-4.0096,-4.0096,-4.0096,-4.0096,-4.0096,-4.0096,-4.0096,-3.9859,-3.9537,-3.9073,-3.7507,-3.6243,-3.5961,-3.3954,-3.2289,-3.179,-3.1232,-3.0588,-2.9923,-2.9626,-2.974,-3.034,-2.9606,-2.9278,-2.9632,-2.8896,-2.8473,-2.8517,-2.7822,-2.7613,-2.7971,-2.769,-2.784,-2.8458,-2.8508,-2.8518,-2.8518,-2.8518,-2.8112,-4.198,-4.4902,-4.6872,-4.5073,-4.2239,-3.901,-3.5465,-3.2203,-2.9493,-2.7926,-2.76,-2.76,-2.76,-2.8708,-2.9984,-3.1113,-3.2777,-3.5031,-3.8197,-3.8938,-4.0983,0.0,0.0,0.0,0.0,0.0,0.0,0.0,0.0,0.0,0.0,-4.576,-4.6074,-4.6192,-4.5444,-4.5251,-4.5762,-4.6435,-4.6747,-4.6781,-4.7193,-4.6912,-4.5993,-4.5721,-4.5102,-4.4224,0.0,0.0,0.0,-4.4224,-4.4064,-4.3827,-4.3827,-4.3827,-4.3768,-4.3139,-4.2582,-4.2108,-4.1896,-4.1458,-4.0932,-4.084,-4.0667,-4.04,-3.9867,-3.9915,-4.0096,-4.0096,-3.9927,-3.9808,-4.0045,-3.9927,-3.9808,-4.0045,-4.0096,-4.0096,-4.0096,-4.0096,-4.0096,-4.0096,-4.0096,-3.9943,-3.9394,-3.8288,-3.7311,-3.6878,-3.4732,-3.2924,-3.2358,-3.1413,-3.0532,-2.9884,-3.0012,-3.0323,-3.0711,-2.982,-2.9453,-2.9869,-2.9013,-2.8578,-2.8774,-2.7984,-2.7735,-2.8148,-2.7936,-2.805,-2.8478,-2.8682,-2.8793,-2.8793,-2.8793,-2.8258,-3.8419,-4.1069,-4.3089,-4.2334,-3.9505,-3.6405,-3.4289,-3.1134,-2.8424,-2.7735,-2.76,-2.76,-2.76,-2.8708,-2.9818,-3.05,-3.2901,-3.548,-3.7699,-3.9055,0.0,0.0,0.0,0.0,0.0,0.0,0.0,0.0,0.0,0.0,0.0,-4.4282,-4.5248,-4.6173,-4.5285,-4.4796,-4.4812,-4.4812,-4.4849,-4.4849,-4.5762,-4.5472,-4.4143,-4.5,-4.4657,0.0,0.0,0.0,0.0,-4.3306,-4.2816,-4.2029,-4.2029,-4.2029,-4.2029,-4.2029,-4.2029,-4.1917,-4.126,-4.0958,-4.0783,-4.014,-3.9422,-3.8832,-3.8832,-3.9435,-4.0096,-4.0096,-3.9516,-3.9113,-3.9901,-3.9516,-3.9113,-3.9901,-4.0096,-4.0096,-4.0096,-4.0096,-4.0096,-4.0096,-4.0096,-4.0096,-4.0096,-3.9462,-3.8497,-3.7007,-3.5599,-3.3903,-3.1786,-3.1496,-3.1212,-3.0552,-2.9966,-2.9571,-2.9421,-2.9406,-2.939,-2.9406,-2.939,-2.907,-2.8345,-2.8313,-2.8291,-2.8313,-2.7578,-2.7934,-2.9374,-2.8648,-2.8313,-2.8313,-2.8313,-2.7556,-3.5073,-3.7605,-3.9421,-3.7741,-3.604,-3.3995,-3.1002,-2.9401,-2.8229,-2.7124,-2.7285,-2.76,-2.76,-2.8334,-2.9456,-3.1021,-3.2823,-3.4745,-3.6812,0.0,0.0,0.0,0.0,0.0,0.0,0.0,0.0,0.0,0.0,0.0,0.0,-4.3591,-4.3912,-4.4228,-4.395,-4.3771,-4.3771,-4.445,-4.4812,-4.4812,-4.5762,-4.5453,-4.4109,-4.4377,0.0,0.0,0.0,0.0,0.0,-4.2426,-4.2252,-4.1997,-4.1997,-4.1997,-4.1933,-4.1346,-4.1113,-4.1082,-4.0863,-4.0784,-4.0741,-4.0626,-4.0432,-4.0064,-3.909,-3.8685,-3.8513,-3.8513,-3.8707,-3.8962,-3.9193,-3.9086,-3.8962,-3.9236,-3.9289,-3.9289,-3.9289,-3.9714,-3.9927,-3.9385,-3.9289,-3.9129,-3.8596,-3.7938,-3.7475,-3.7492,-3.5883,-3.4466,-3.3771,-3.282,-3.1735,-3.0627,-3.0328,-3.0186,-3.0167,-2.9327,-2.895,-2.9361,-2.8996,-2.8856,-2.9026,-2.8249,-2.802,-2.8428,-2.8201,-2.8334,-2.8779,-2.8958,-2.9048,-2.9032,-2.8515,-2.7833,-3.1338,-3.358,-3.5031,-3.3682,-3.241,-3.0905,-2.8755,-2.7624,-2.6946,-2.6669,-2.6941,-2.73,-2.754,-2.8154,-2.9184,-3.0928,-3.2388,-3.4018,0.0,0.0,0.0,0.0,0.0,0.0,0.0,0.0,0.0,0.0,0.0,0.0,0.0,0.0,-4.3075,-4.329,-4.329,-4.317,-4.297,-4.3805,-4.3999,-4.3509,-4.4381,-4.4049,-4.27,-4.3047,0.0,0.0,0.0,0.0,0.0,-4.1511,-4.1313,-4.1028,-4.1028,-4.1028,-4.0961,-4.0413,-4.022,-4.0174,-3.9914,-3.999,-4.0201,-4.0,-3.9947,-3.9745,-3.8606,-3.8225,-3.8129,-3.7857,-3.8097,-3.8411,-3.8479,-3.8258,-3.8101,-3.8414,-3.8469,-3.8469,-3.8469,-3.887,-3.9076,-3.858,-3.8469,-3.833,-3.7863,-3.7466,-3.7219,-3.7315,-3.6048,-3.4872,-3.4326,-3.3235,-3.2064,-3.0972,-3.0657,-3.0403,-3.0193,-2.9164,-2.8596,-2.8709,-2.8367,-2.8319,-2.8709,-2.7993,-2.7785,-2.8165,-2.8165,-2.8165,-2.8165,-2.8543,-2.8717,-2.8717,-2.8256,-2.7679,0.0,-2.9146,-3.0148,-3.0088,-2.8742,-2.742,-2.733,-2.5944,0.0,-2.6213,-2.6527,-2.6806,-2.748,-2.8154,-2.9052,-3.0438,-3.1792,-3.3373,0.0,0.0,0.0,0.0,0.0,0.0,0.0,0.0,0.0,0.0,0.0,0.0,0.0,0.0,-4.2566,-4.314,-4.3155,-4.2925,-4.241,-4.297,-4.2626,-4.1384,-4.2036,-4.1662,-4.0434,-4.1245,0.0,0.0,0.0,0.0,0.0,-4.0588,-4.0115,-3.9388,-3.9388,-3.9388,-3.9388,-3.9388,-3.9388,-3.9334,-3.8691,-3.8886,-3.9305,-3.8616,-3.8392,-3.8257,-3.7599,-3.8001,-3.8559,-3.7937,-3.7695,-3.7639,-3.7753,-3.7191,-3.6783,-3.7544,-3.7719,-3.7719,-3.7719,-3.7748,-3.7777,-3.7735,-3.7719,-3.7706,-3.7648,-3.7677,-3.7456,-3.6691,-3.6073,-3.5169,-3.3803,-3.3021,-3.2303,-3.1645,-3.0957,-3.0313,-2.9726,-2.9011,-2.8308,-2.7645,-2.76,-2.76,-2.76,-2.76,-2.76,-2.76,-2.76,-2.76,-2.76,-2.76,-2.76,-2.76,-2.76,-2.724,-2.3871,0.0,-2.6623,-2.6099,-2.6033,-2.5794,0.0,-2.4971,-2.5307,-2.5113,-2.5899,-2.6806,-2.748,-2.8154,-2.9184,-3.1001,-3.2007,-3.3282,0.0,0.0,0.0,0.0,0.0,0.0,0.0,0.0,0.0,0.0,0.0,0.0,0.0,0.0,-4.1722,-4.1833,-4.1848,-4.2013,-4.2396,-4.2545,-4.2216,-4.1422,-4.1572,-4.119,-4.0397,-4.0603,0.0,0.0,0.0,0.0,-3.9702,-3.9702,-3.9574,-3.9388,-3.9388,-3.9388,-3.9388,-3.9388,-3.9388,-3.9394,-3.923,-3.929,-3.9305,-3.8616,-3.8392,-3.8257,-3.7599,-3.7541,-3.7709,-3.7542,-3.7548,-3.7623,-3.7639,-3.7126,-3.6646,-3.6843,-3.6873,-3.6873,-3.6873,-3.7368,-3.7632,-3.6994,-3.6873,-3.6707,-3.6133,-3.6523,-3.6813,-3.663,-3.6476,-3.6074,-3.5214,-3.4031,-3.3021,-3.2333,-3.166,-3.0987,-3.0342,-2.925,-2.8308,-2.7645,-2.76,-2.76,-2.76,-2.76,-2.76,-2.76,-2.76,-2.76,-2.76,-2.76,-2.76,-2.76,-2.76,-2.724,-2.2613,-2.3894,-2.5053,-2.4694,-2.4874,-2.4948,-2.4216,-2.4365,-2.4687,-2.4605,-2.5412,-2.6437,-2.742,-2.8154,-2.925,-3.1182,-3.1795,0.0,0.0,0.0,0.0,0.0,0.0,0.0,0.0,0.0,0.0,0.0,0.0,0.0,0.0,0.0,-4.107,-4.1407,-4.1085,-4.11,-4.1497,-4.1796,-4.1467,-4.0487,-4.0786,-4.0591,-3.9948,-3.9948,0.0,0.0,0.0,0.0,-3.9388,-3.9388,-3.9388,-3.9388,-3.9388,-3.9388,-3.9388,-3.9388,-3.9388,-3.9388,-3.9388,-3.9388,-3.9328,-3.899,-3.8856,-3.8796,-3.8437,-3.8332,-3.8197,-3.7584,-3.7669,-3.79,-3.7595,-3.7031,-3.6543,-3.6543,-3.6315,-3.6086,-3.6086,-3.6446,-3.6631,-3.618,-3.6086,-3.5975,-3.5554,-3.5831,-3.6086,-3.6086,-3.6086,-3.5842,-3.5187,-3.4151,-3.3245,-3.2557,-3.1899,-3.1227,-3.0567,-2.9879,-2.9071,-2.8124,-2.7764,-2.76,-2.76,-2.76,-2.76,-2.76,-2.76,-2.76,-2.76,-2.76,-2.76,-2.76,-2.76,-2.7405,-2.2628,-2.3924,-2.4963,-2.4545,-2.4605,-2.4724,-2.4634,-2.4231,-2.4073,-2.4634,-2.5277,-2.6153,-2.751,-2.8368,0.0,-3.1346,0.0,0.0,0.0,0.0,0.0,0.0,0.0,0.0,0.0,0.0,0.0,0.0,0.0,0.0,0.0,0.0,0.0,-4.107,-4.0531,-4.0247,-4.0247,-4.0905,-4.0621,-3.9388,-3.9993,-3.9963,-3.9388,-3.9305,-3.926,0.0,0.0,0.0,-3.926,-3.926,-3.9334,-3.9388,-3.9388,-3.9388,-3.9373,-3.9305,-3.9334,-3.9373,-3.929,-3.9334,-3.9394,-3.9149,-3.9209,-3.9394,-3.929,-3.9298,-3.9149,-3.8033,-3.8033,-3.8257,-3.7704,-3.709,-3.6596,-3.6507,-3.6058,-3.5624,-3.5534,-3.5504,-3.5504,-3.5504,-3.5504,-3.5504,-3.5504,-3.5504,-3.5504,-3.5504,-3.5504,-3.5295,-3.4743,-3.4053,-3.3395,-3.2736,-3.2049,-3.1376,-3.0717,-3.0567,-3.0043,-2.8966,-2.8184,-2.775,-2.775,-2.775,-2.7809,-2.7899,-2.7899,-2.7854,-2.775,-2.775,-2.775,-2.775,-2.775,-2.775,-2.3131,-2.5264,-2.6596,-2.4328,-2.4612,-2.5292,-2.4724,-2.4948,-2.5307,-2.5435,-2.5974,-2.6856,-2.8188,-2.9415,-3.0687,0.0,0.0,0.0,0.0,0.0,0.0,0.0,0.0,0.0,0.0,0.0,0.0,0.0,0.0,0.0,0.0,0.0,0.0,-3.9709,-3.9634,-3.9574,-3.9574,-4.0217,-4.0172,-3.9388,-3.9514,-3.9514,-3.9394,-3.8811,-3.8542,0.0,0.0,-3.8033,-3.8542,-3.8542,-3.8901,-3.9388,-3.9388,-3.9388,-3.9313,-3.8766,-3.8916,-3.9298,-3.8751,-3.8931,-3.9194,-3.8093,-3.8482,-3.9305,-3.8721,-3.896,-3.9379,-3.9134,-3.8766,-3.8362,-3.8257,-3.7764,-3.7135,-3.6611,-3.6417,-3.6178,-3.5624,-3.5504,-3.5504,-3.5504,-3.5504,-3.5504,-3.5504,-3.5504,-3.5504,-3.5504,-3.5504,-3.5474,-3.5355,-3.4741,-3.4099,-3.341,-3.2766,-3.2064,-3.1406,-3.0836,-3.0417,-3.0223,-2.9101,-2.8442,-2.8442,-2.8442,-2.8712,-2.9292,-2.9292,-2.8996,-2.8442,-2.8442,-2.8442,-2.8442,-2.8442,-2.8442,-2.2957,-2.4507,-2.5779,-2.4896,-2.6228,-2.7485,-2.6452,-2.6452,-2.6686,-2.6686,-2.72,-2.8083,0.0,0.0,-3.1854,0.0,0.0,0.0,0.0,0.0,0.0,0.0,0.0,0.0,0.0,0.0,0.0,0.0,0.0,0.0,0.0,0.0,0.0,0.0,-3.905,-3.8856,-3.8856,-3.8811,-3.899,-3.9388,-3.9035,-3.8856,-3.8841,-3.8167,-3.7853,-3.7838,0.0,-3.7584,-3.7883,-3.8242,-3.8362,-3.8377,-3.8721,-3.8856,-3.8871,-3.8931,-3.9155,-3.9379,-3.905,-3.9155,-3.932,-3.8691,-3.8916,-3.9254,-3.8601,-3.8871,-3.9298,-3.8975,-3.8901,-3.8945,-3.8945,-3.8182,-3.7345,-3.7045,-3.6462,-3.5878,-3.5564,-3.5504,-3.5504,-3.5504,-3.5504,-3.5504,-3.5504,-3.5504,-3.5504,-3.5504,-3.5504,-3.5504,-3.5504,-3.4906,-3.4249,-3.3559,-3.2901,-3.2213,-3.157,-3.1212,-3.0761,-3.0058,-2.9445,-2.9131,-2.9131,-2.9131,-2.9307,-2.9606,-2.9606,-2.9457,-2.9131,-2.9131,-2.9131,-2.9131,-2.9131,-2.9131,-2.3056,-2.4088,-2.5143,-2.5501,-2.726,-2.8753,-2.8199,-2.8064,-2.8154,-2.8453,-2.8921,0.0,0.0,-3.1765,0.0,0.0,0.0,0.0,0.0,0.0,0.0,0.0,0.0,0.0,0.0,0.0,0.0,0.0,0.0,0.0,0.0,0.0,0.0,0.0,-3.8512,-3.8167,-3.8167,-3.7659,-3.7928,-3.8945,-3.8407,-3.8167,-3.8138,-3.7494,-3.7195,-3.7195,-3.7195,-3.727,-3.7464,-3.8123,-3.8093,-3.7704,-3.8377,-3.8527,-3.8452,-3.899,-3.9185,-3.9185,-3.9185,-3.929,-3.9358,-3.923,-3.9185,-3.911,-3.8736,-3.8886,-3.9095,-3.8736,-3.9005,-3.9388,-3.9388,-3.8646,-3.7793,-3.7479,-3.6656,-3.5863,-3.5564,-3.5504,-3.5504,-3.5504,-3.5504,-3.5504,-3.5504,-3.5504,-3.5504,-3.5504,-3.5504,-3.5504,-3.5504,-3.504,-3.4488,-3.3799,-3.3275,-3.2647,-3.1795,-3.1585,-3.1077,-3.0103,-2.9786,-2.9666,-2.9789,-2.9804,-2.9864,-3.0043,-3.0043,-2.9968,-2.9804,-2.9804,-2.9804,-2.9804,-2.9804,-2.9804,-2.4141,-2.545,-2.6318,-2.5749,-2.6213,-2.7275,-2.9052,-2.9472,-2.9789,-3.0972,-3.1256,0.0,0.0,-3.3933,0.0,0.0,0.0,0.0,0.0,0.0,0.0,0.0,0.0,0.0,0.0,0.0,0.0,0.0,0.0,0.0,0.0,0.0,0.0,0.0,0.0,-3.7479,-3.7479,-3.7434,-3.7464,-3.7554,-3.7509,-3.7479,-3.7464,-3.6836,-3.6552,-3.6552,-3.6552,-3.6881,-3.7464,-3.8123,-3.8362,-3.8377,-3.908,-3.896,-3.8407,-3.8437,-3.8467,-3.8467,-3.8467,-3.8886,-3.932,-3.8676,-3.8467,-3.8571,-3.917,-3.8931,-3.8586,-3.9185,-3.9343,-3.9388,-3.9388,-3.9313,-3.896,-3.7704,-3.7345,-3.6941,-3.5759,-3.5504,-3.5504,-3.5504,-3.5504,-3.5504,-3.5504,-3.5504,-3.5504,-3.5504,-3.5504,-3.5504,-3.5504,-3.5459,-3.5175,-3.4518,-3.4399,-3.3829,-3.2557,-3.1854,-3.1466,-3.1376,-3.0253,-2.9834,-3.0417,-3.0432,-3.0746,-3.1346,-3.1361,-3.1047,-3.0432,-3.0432,-3.0432,-3.0432,-3.0432,-3.0432,-2.3385,-2.4672,-2.5914,-2.5674,-2.6408,-2.775,-2.9699,-3.0806,-3.1779,-3.3095,-3.3709,0.0,0.0,0.0,0.0,0.0,0.0,0.0,0.0,0.0,0.0,0.0,0.0,0.0,0.0,0.0,0.0,0.0,0.0,0.0,0.0,0.0,0.0,0.0,0.0,-3.6836,-3.6836,-3.6432,-3.6222,-3.6222,-3.6641,-3.6836,-3.6806,-3.6163,-3.5878,-3.5878,-3.5878,-3.6013,-3.6282,-3.6926,-3.6971,-3.6656,-3.733,-3.7434,-3.7255,-3.7644,-3.7778,-3.7838,-3.8242,-3.8556,-3.8736,-3.8467,-3.8676,-3.8916,-3.8347,-3.8571,-3.899,-3.8826,-3.9095,-3.932,-3.8901,-3.8482,-3.7943,-3.7045,-3.6522,-3.6088,-3.5609,-3.5504,-3.5504,-3.5504,-3.5504,-3.5504,-3.5504,-3.5504,-3.5504,-3.5504,-3.5504,-3.5504,-3.5504,-3.5504,-3.5235,-3.4578,-3.4144,-3.3664,-3.3155,-3.2497,-3.2108,-3.2108,-3.1271,-3.0868,-3.1107,-3.1122,-3.1241,-3.1511,-3.1511,-3.1376,-3.1122,-3.1122,-3.1122,-3.1122,-3.1122,-3.1122,-2.2553,-2.3505,-2.4777,-2.5173,-2.6437,-2.8229,-3.0597,-3.1854,-3.3066,-3.4996,-3.5774,-3.6043,-3.5848,0.0,0.0,0.0,0.0,0.0,0.0,0.0,0.0,0.0,0.0,0.0,0.0,0.0,0.0,0.0,0.0,0.0,0.0,0.0,0.0,0.0,0.0,-3.6178,-3.6178,-3.5729,-3.5504,-3.5504,-3.5968,-3.6178,-3.6163,-3.5714,-3.5504,-3.5519,-3.5729,-3.5818,-3.5863,-3.6507,-3.6507,-3.6118,-3.6163,-3.6417,-3.6806,-3.703,-3.724,-3.7509,-3.8167,-3.8392,-3.8392,-3.8392,-3.8571,-3.8646,-3.7943,-3.8212,-3.8766,-3.8736,-3.8901,-3.8931,-3.8257,-3.7898,-3.7569,-3.6926,-3.6282,-3.5759,-3.5549,-3.5504,-3.5504,-3.5504,-3.5504,-3.5504,-3.5504,-3.5504,-3.5504,-3.5504,-3.5504,-3.5504,-3.5504,-3.5504,-3.5325,-3.4846,-3.4203,-3.3799,-3.3799,-3.32,-3.2826,-3.2826,-3.2183,-3.172,-3.1511,-3.1511,-3.1511,-3.1511,-3.1511,-3.1511,-3.1511,-3.1511,-3.1511,-3.1511,-3.1511,-3.1511,-2.1874,-2.2209,-2.3032,-2.4291,-2.6138,-2.8483,-3.1779,-3.2512,-3.3455,-3.6746,-3.7404,-3.7225,-3.6611,0.0,0.0,0.0,0.0,0.0,0.0,0.0,0.0,0.0,0.0,0.0,0.0,0.0,0.0,0.0,0.0,0.0,0.0,0.0,0.0,0.0,0.0,0.0,-3.5504,-3.5504,-3.5504,-3.5504,-3.5504,-3.5504,-3.5504,-3.5504,-3.5504,-3.5549,-3.6193,-3.6477,-3.6522,-3.715,-3.7389,-3.727,-3.5998,-3.6282,-3.7315,-3.6701,-3.6866,-3.7479,-3.8138,-3.8362,-3.8377,-3.8377,-3.7943,-3.7539,-3.8197,-3.7928,-3.7689,-3.9,-3.8916,-3.8227,-3.7584,-3.7883,-3.8197,-3.7539,-3.6926,-3.6297,-3.5639,-3.5504,-3.5504,-3.5504,-3.5504,-3.5504,-3.5504,-3.5504,-3.5504,-3.5504,-3.5504,-3.5504,-3.5504,-3.5504,-3.5504,-3.5504,-3.4906,-3.4518,-3.4518,-3.3888,-3.3499,-3.3499,-3.2886,-3.2198,-3.154,-3.1511,-3.1511,-3.1511,-3.1511,-3.1511,-3.1511,-3.1511,-3.1511,-3.1511,-3.1511,-3.1511,-2.1874,-2.2847,-2.4335,-2.5674,-2.7515,-2.9876,-3.3171,-3.3903,-3.4696,-3.7509,-3.7734,-3.7494,-3.7778,0.0,0.0,0.0,0.0,0.0,0.0,0.0,0.0,0.0,0.0,0.0,0.0,0.0,0.0,0.0,0.0,0.0,0.0,0.0,0.0,0.0,0.0,0.0,-3.5504,-3.5504,-3.5504,-3.5504,-3.5504,-3.5504,-3.5504,-3.5504,-3.5504,-3.5519,-3.5714,-3.5804,-3.5804,-3.5998,-3.6073,-3.6028,-3.5654,-3.5729,-3.6043,-3.5863,-3.5908,-3.6163,-3.6821,-3.7045,-3.712,-3.7554,-3.7569,-3.7539,-3.8197,-3.7928,-3.7584,-3.8452,-3.8212,-3.7659,-3.7464,-3.7225,-3.6881,-3.6222,-3.5923,-3.5744,-3.5549,-3.5504,-3.5504,-3.5504,-3.5504,-3.5504,-3.5504,-3.5504,-3.5504,-3.5504,-3.5504,-3.5504,-3.5504,-3.5504,-3.5504,-3.5504,-3.5325,-3.519,-3.519,-3.4577,-3.4219,-3.4219,-3.3559,-3.2901,-3.2213,-3.175,-3.1511,-3.1511,-3.1511,-3.1511,-3.1511,-3.1974,-3.1959,-3.1511,-3.1974,-3.1944,-2.1739,-2.2921,-2.4634,-2.6512,-2.8682,-3.1225,-3.4548,0.0,0.0,0.0,-3.8257,-3.7838,-3.7973,0.0,0.0,0.0,0.0,0.0,0.0,0.0,0.0,0.0,0.0,0.0,0.0,0.0,0.0,0.0,0.0,0.0,0.0,0.0,0.0,0.0,0.0,-3.5504,-3.5504,-3.5504,-3.5504,-3.5504,-3.5504,-3.5504,-3.5504,-3.5504,-3.5504,-3.5504,-3.5504,-3.5504,-3.5504,-3.5504,-3.5504,-3.5504,-3.5504,-3.5504,-3.5504,-3.5504,-3.5504,-3.5609,-3.6252,-3.6492,-3.6552,-3.6926,-3.7045,-3.712,-3.7509,-3.736,-3.718,-3.7823,-3.7539,-3.7045,-3.7045,-3.6567,-3.6058,-3.5923,-3.5699,-3.5504,-3.5504,-3.5504,-3.5504,-3.5504,-3.5504,-3.5504,-3.5504,-3.5504,-3.5504,-3.5504,-3.5504,-3.5504,-3.5504,-3.5504,-3.5504,-3.5504,-3.5504,-3.5504,-3.5504,-3.513,-3.4891,-3.4891,-3.4262,-3.3709,-3.3305,-3.2378,-3.1899,-3.1899,-3.1645,-3.1765,-3.2288,-3.2153,-3.2168,-3.2273,-3.2153,-3.2019,-2.1695,-2.2802,-2.4433,-2.718,-2.9939,0.0,-3.5804,-3.7913,-3.9209,-3.9209,0.0,-3.8123,0.0,0.0,0.0,0.0,0.0,0.0,0.0,0.0,0.0,0.0,0.0,0.0,0.0,0.0,0.0,0.0,0.0,0.0,0.0,0.0,0.0,0.0,-3.5504,-3.5504,-3.5504,-3.5504,-3.5504,0.0,-3.5504,-3.5504,-3.5504,-3.5504,-3.5504,-3.5504,-3.5504,-3.5504,-3.5504,-3.5504,-3.5504,-3.5504,-3.5504,-3.5504,-3.5504,-3.5504,-3.5504,-3.5594,-3.6193,-3.6402,-3.6417,-3.6462,-3.6447,-3.6417,-3.6537,-3.6492,-3.6537,-3.715,-3.6881,-3.6402,-3.6402,-3.5953,-3.5654,-3.6252,-3.5938,-3.5504,-3.5504,-3.5504,-3.5504,-3.5504,-3.5504,-3.5504,-3.5504,-3.5504,-3.5504,-3.5504,-3.5504,-3.5504,-3.5504,-3.5504,-3.5504,-3.5504,-3.5504,-3.5504,-3.5504,-3.5504,-3.5504,-3.5504,-3.4921,-3.4578,-3.4503,-3.3275,-3.2602,-3.2602,-3.1989,-3.2273,-3.3499,-3.2333,-3.2377,-3.3469,-3.2243,-3.1974,-2.3011,-2.4163,-2.5929,-2.9086,-3.2662,-3.5609,-3.6327,-3.718,-3.7838,-3.7838,-3.7719,0.0,0.0,0.0,0.0,0.0,0.0,0.0,0.0,0.0,0.0,0.0,0.0,0.0,0.0,0.0,0.0,0.0,0.0,0.0,0.0,0.0,0.0,-3.5504,-3.5504,-3.5504,-3.5504,-3.5504,-3.5504,0.0,-3.5504,-3.5504,-3.5504,-3.5504,-3.5504,-3.5504,-3.5504,-3.5504,-3.5504,-3.5504,-3.5504,-3.5504,-3.5504,-3.5504,-3.5504,-3.5504,-3.5504,-3.5534,-3.5669,-3.5714,-3.5804,-3.6312,-3.6133,-3.5908,-3.6911,-3.6507,-3.5848,-3.6507,-3.6222,-3.5714,-3.5714,-3.5609,-3.5549,-3.5684,-3.5609,-3.5504,-3.5504,-3.5504,-3.5504,-3.5504,-3.5504,-3.5504,-3.5504,-3.5504,-3.5504,-3.5504,-3.5504,-3.5504,-3.5504,-3.5504,-3.5504,-3.5504,-3.5504,-3.5504,-3.5504,-3.5504,-3.5504,-3.5504,-3.537,-3.504,-3.4533,-3.3709,-3.3275,-3.3275,-3.314,-3.3215,-3.3499,-3.3724,-3.3724,-3.3484,-3.32,-3.2871,-2.334,-2.4582,-2.6557,-3.0492,0.0,-3.5731,-3.6342,-3.6492,-3.6582,-3.6896,0.0,0.0,0.0,0.0,0.0,0.0,0.0,0.0,0.0,0.0,0.0,0.0,0.0,0.0,0.0,0.0,0.0,0.0,0.0,0.0,0.0,-3.4547,-3.4547,-3.4547,-3.4547,-3.4547,-3.4547,-3.4861,-3.5011,-3.5026,-3.5355,-3.5504,-3.5504,-3.5504,-3.5504,-3.5504,-3.5504,-3.5504,-3.5504,-3.5504,-3.5504,-3.5504,-3.5504,-3.5504,-3.5504,-3.5504,-3.5504,-3.5504,-3.5504,-3.5504,-3.5564,-3.5908,-3.5789,-3.5624,-3.6297,-3.6028,-3.5579,-3.5923,-3.5774,-3.5504,-3.5504,-3.5504,-3.5504,-3.5504,-3.5504,-3.5504,-3.5504,-3.5504,-3.5504,-3.5504,-3.5504,-3.5504,-3.5504,-3.5504,-3.5504,-3.5504,-3.5504,-3.5504,-3.5504,-3.5504,-3.5504,-3.5504,-3.5504,-3.5504,-3.5504,-3.5504,-3.5504,-3.5504,-3.5504,-3.534,-3.4981,-3.4637,-3.4307,-3.3978,-3.3649,-3.3814,-3.4457,-3.4158,-3.4158,-3.4442,-3.3799,-3.3484,-2.3294,-2.4843,-2.7126,-3.1271,-3.3245,0.0,-3.5684,-3.5639,-3.5474,0.0,0.0,0.0,0.0,0.0,0.0,0.0,0.0,0.0,0.0,0.0,0.0,0.0,0.0,0.0,0.0,0.0,0.0,0.0,0.0,0.0,-3.3499,-3.3499,-3.3499,-3.3499,-3.3499,-3.3499,-3.3499,-3.4038,-3.4399,-3.4518,-3.5175,-3.5504,-3.5504,-3.5504,-3.5504,-3.5504,-3.5504,-3.5504,-3.5504,-3.5504,-3.5504,-3.5504,-3.5504,-3.5504,-3.5504,-3.5504,-3.5504,-3.5504,-3.5504,-3.5504,-3.5504,-3.5504,-3.5504,-3.5504,-3.5504,-3.5504,-3.5504,-3.5504,-3.5504,-3.5504,-3.5504,-3.5504,-3.5504,-3.5504,-3.5504,-3.5504,-3.5504,-3.5504,-3.5504,-3.5504,-3.5504,-3.5504,-3.5504,-3.5504,-3.5504,-3.5504,-3.5504,-3.5504,-3.5504,-3.5504,-3.5504,-3.5504,-3.5504,-3.5504,-3.5504,-3.5504,-3.5504,-3.5504,-3.5504,-3.5504,-3.5504,-3.5504,-3.5235,-3.4666,-3.4128,-3.4397,-3.5504,-3.4382,-3.4412,-3.5474,-3.4233,-3.3963,-2.3476,-2.5884,-2.8757,0.0,-3.2183,-3.2976,0.0,0.0,-3.4668,0.0,0.0,0.0,0.0,0.0,0.0,0.0,0.0,0.0,0.0,0.0,0.0,0.0,0.0,0.0,0.0,0.0,0.0,0.0,0.0,0.0,-3.3499,-3.3499,-3.3499,-3.3499,-3.3499,-3.3499,-3.3499,-3.3589,-3.3918,-3.4518,-3.5175,-3.5504,-3.5504,-3.5504,-3.5504,-3.5504,-3.5504,-3.5504,-3.5504,-3.5504,-3.5504,-3.5504,-3.5504,-3.5504,-3.5504,-3.5504,-3.5504,-3.5504,-3.5504,-3.5504,-3.5504,-3.5504,-3.5504,-3.5504,-3.5504,-3.5504,-3.5504,-3.5504,-3.5504,-3.5504,-3.5504,-3.5504,-3.5504,-3.5504,-3.5504,-3.5504,-3.5504,-3.5504,-3.5504,-3.5504,-3.5504,-3.5504,-3.5504,-3.5504,-3.5504,-3.5504,-3.5504,-3.5504,-3.5504,-3.5504,-3.5504,-3.5504,-3.5504,-3.5504,-3.5504,-3.5504,-3.5504,-3.5504,-3.5504,-3.5504,-3.5504,-3.5504,-3.5459,-3.537,-3.528,-3.5325,-3.5504,-3.5325,-3.5325,-3.5489,-3.4711,-3.4414,-2.3411,-2.5291,-2.7395,0.0,-3.0387,-3.124,-3.2632,0.0,0.0,0.0,0.0,0.0,0.0,0.0,0.0,0.0,0.0,0.0,0.0,0.0,0.0,0.0,0.0,0.0,0.0,0.0,0.0,0.0,0.0,-3.2392,-3.2392,-3.2392,-3.2392,-3.2392,-3.2392,-3.2392,-3.2392,-3.2766,-3.3275,-3.3918,-3.4233,-3.4577,-3.4936,-3.4936,-3.513,-3.5504,-3.5504,-3.5504,-3.5504,-3.5504,-3.5504,-3.5504,-3.5504,-3.5504,-3.5504,-3.5504,-3.5504,-3.5504,-3.5504,-3.5504,-3.5504,-3.5504,-3.5504,-3.5504,-3.5504,-3.5504,-3.5504,-3.5504,-3.5504,-3.5504,-3.5504,-3.5504,-3.5504,-3.5504,-3.5504,-3.5504,-3.5504,-3.5504,-3.5504,-3.5504,-3.5504,-3.5504,-3.5504,-3.5504,-3.5504,-3.5504,-3.5504,-3.5504,-3.5504,-3.5504,-3.5504,-3.5504,-3.5504,-3.5504,-3.5504,-3.5504,-3.5504,-3.5504,-3.5504,-3.5504,-3.5504,-3.5504,-3.5504,-3.5504,-3.5504,-3.5504,-3.5504,-3.5504,-3.5504,-3.5489,-3.519,-3.5055,-2.3092,0.0,-2.556,-2.7375,-2.8457,-2.9532,0.0,0.0,0.0,0.0,0.0,0.0,0.0,0.0,0.0,0.0,0.0,0.0,0.0,0.0,0.0,0.0,0.0,0.0,0.0,0.0,0.0,0.0,0.0,-3.1241,-3.1241,-3.1241,-3.1316,-3.1496,-3.1331,-3.1331,-3.1511,-3.2153,-3.2766,-3.3245,-3.341,-3.3754,-3.4264,-3.4264,-3.4502,-3.5011,-3.5355,-3.5504,-3.5504,-3.5504,-3.5504,-3.5504,-3.5504,-3.5504,-3.5504,-3.5504,-3.5504,-3.5504,-3.5504,-3.5504,-3.5504,-3.5504,-3.5504,-3.5504,-3.5504,-3.5504,-3.5504,-3.5504,-3.5504,-3.5504,-3.5504,-3.5504,-3.5504,-3.5504,-3.5504,-3.5504,-3.5504,-3.5504,-3.5504,-3.5504,-3.5504,-3.5504,-3.5504,-3.5504,-3.5504,-3.5504,-3.5504,-3.5504,-3.5504,-3.5504,-3.5504,-3.5504,-3.5504,-3.5504,-3.5504,-3.5504,-3.5504,-3.5504,-3.5504,-3.5504,-3.5504,-3.5504,-3.5504,-3.5504,-3.5504,-3.5504,-3.5504,-3.5504,-3.5504,-3.5504,-3.5504,-3.5504,0.0,-2.3259,0.0,-2.5429,-2.6737,0.0,0.0,0.0,0.0,0.0,0.0,0.0,0.0,0.0,0.0,0.0,0.0,0.0,0.0,0.0,0.0,0.0,0.0,0.0,0.0,0.0,0.0,0.0,0.0,-3.0552,-3.0552,-3.0552,-3.0823,-3.1481,-3.0868,-3.0866,-3.1496,-3.2153,-3.2527,-3.2572,-3.32,-3.3514,-3.3544,-3.3544,-3.3559,-3.3664,-3.4951,-3.5504,-3.5504,-3.5504,-3.5504,-3.5504,-3.5504,-3.5504,-3.5504,-3.5504,-3.5504,-3.5504,-3.5504,-3.5504,-3.5504,-3.5504,-3.5504,-3.5504,-3.5504,-3.5504,-3.5504,-3.5504,-3.5504,-3.5504,-3.5504,-3.5504,-3.5504,-3.5504,-3.5504,-3.5504,-3.5504,-3.5504,-3.5504,-3.5504,-3.5504,-3.5504,-3.5504,-3.5504,-3.5504,-3.5504,-3.5504,-3.5504,-3.5504,-3.5504,-3.5504,-3.5504,-3.5504,-3.5504,-3.5504,-3.5504,-3.5504,-3.5504,-3.5504,-3.5504,-3.5504,-3.5504,-3.5504,-3.5504,-3.5504,-3.5504,-3.5504,-3.5504,-3.5504,-3.5504,-3.5504,-3.5504,0.0,0.0,0.0,-2.4163,-2.502,-2.6078,0.0,0.0,0.0,0.0,0.0,0.0,0.0,0.0,0.0,0.0,0.0,0.0,0.0,0.0,0.0,0.0,0.0,0.0,0.0,0.0,0.0,0.0,0.0,0.0,-2.9909,-2.9909,-3.0208,-3.0851,-3.0253,-3.0223,-3.0838,-3.1106,-3.145,-3.1854,-3.2093,-3.2452,-3.2871,-3.2871,-3.3095,-3.3529,-3.4008,-3.4457,-3.4846,-3.4846,-3.51,-3.5504,-3.5504,-3.5504,-3.5504,-3.5504,-3.5504,-3.5504,-3.5504,-3.5504,-3.5504,-3.5504,-3.5504,-3.5504,-3.5504,-3.5504,-3.5504,-3.5504,-3.5504,-3.5504,-3.5504,-3.5504,-3.5504,-3.5504,-3.5504,-3.5504,-3.5504,-3.5504,-3.5504,-3.5504,-3.5504,-3.5504,-3.5504,-3.5504,-3.5504,-3.5504,-3.5504,-3.5504,-3.5504,-3.5504,-3.5504,-3.5504,-3.5504,-3.5504,-3.5504,-3.5504,-3.5504,-3.5504,-3.5504,-3.5504,-3.5504,-3.5504,-3.5504,-3.5504,-3.5504,-3.5504,-3.5504,-3.5504,-3.5504,-3.5504,-3.5504,-3.5504,-2.0734,-2.1417,0.0,0.0,0.0,-2.4701,0.0,0.0,0.0,0.0,0.0,0.0,0.0,0.0,0.0,0.0,0.0,0.0,0.0,0.0,0.0,0.0,0.0,0.0,0.0,0.0,0.0,0.0,0.0,0.0,-2.925,-2.925,-2.9445,-2.9849,-2.9684,-2.9879,-3.0492,-3.0298,-3.0642,-3.1511,-3.1271,-3.1511,-3.2153,-3.2153,-3.2392,-3.2841,-3.2841,-3.3335,-3.4174,-3.4174,-3.4547,-3.516,-3.516,-3.5295,-3.5504,-3.5504,-3.5504,-3.5504,-3.5504,-3.5504,-3.5504,-3.5504,-3.5504,-3.5439,-3.51,-3.4986,-3.4986,-3.4986,-3.4986,-3.5067,-3.5392,-3.5504,-3.5504,-3.5504,-3.5504,-3.5504,-3.5504,-3.5504,-3.5504,-3.5504,-3.5504,-3.5504,-3.5504,-3.5504,-3.5504,-3.5504,-3.5504,-3.5504,-3.5504,-3.5504,-3.5504,-3.5504,-3.5504,-3.5504,-3.5504,-3.5504,-3.5504,-3.5504,-3.5504,-3.5504,-3.5504,-3.5504,-3.5504,-3.5504,-3.5166,-3.4986,-3.4986,-3.5359,-3.5326,-3.4986,-3.4986,-3.4986,0.0,0.0,0.0,0.0,0.0,0.0,0.0,0.0,0.0,0.0,0.0,0.0,0.0,0.0,0.0,0.0,0.0,0.0,0.0,0.0,0.0,0.0,0.0,0.0,0.0,0.0,0.0,0.0,0.0,-2.8562,-2.8562,-2.8592,-2.8592,-2.8562,-2.9205,-2.9849,-3.0447,-2.9864,-3.0223,-3.1466,-3.0823,-3.0881,-3.1511,-3.1511,-3.1511,-3.1511,-3.1511,-3.2228,-3.344,-3.3455,-3.3858,-3.4503,-3.4503,-3.4906,-3.5504,-3.5504,-3.5504,-3.5504,-3.5504,-3.5504,-3.5504,-3.5504,-3.5504,-3.5326,-3.4279,-3.3993,-3.3993,-3.3993,-3.3959,-3.4177,-3.5166,-3.5392,-3.5439,-3.5439,-3.5472,-3.5472,-3.5472,-3.5472,-3.5504,-3.5504,-3.5504,-3.5504,-3.5504,-3.5504,-3.5504,-3.5504,-3.5504,-3.5504,-3.5504,-3.5504,-3.5504,-3.5504,-3.5504,-3.5504,-3.5504,-3.5504,-3.5504,-3.5504,-3.5504,-3.5504,-3.5504,-3.5504,-3.5504,-3.5504,-3.4543,-3.4027,-3.3993,-3.4986,-3.4953,-3.3959,-3.3959,-3.3959,-2.1261,0.0,0.0,0.0,0.0,0.0,0.0,0.0,0.0,0.0,0.0,0.0,0.0,0.0,0.0,0.0,0.0,0.0,0.0,0.0,0.0,0.0,0.0,0.0,0.0,0.0,0.0,0.0,-2.7884,-2.7884,-2.7884,-2.8323,-2.8368,-2.7899,-2.8517,-2.8951,-2.9116,-2.943,-2.9983,-3.0791,-3.1077,-3.1316,-3.1511,-3.1511,-3.1511,-3.1511,-3.1511,-3.1705,-3.2079,-3.2587,-3.3455,-3.4503,-3.4503,-3.4906,-3.5504,-3.5504,-3.5504,-3.5504,-3.5504,-3.5504,-3.5504,-3.5504,-3.5504,-3.5326,-3.4279,-3.3993,-3.3842,-3.3171,-3.2996,-3.3066,-3.3325,-3.3394,-3.3567,-3.4245,-3.4428,-3.4428,-3.4428,-3.4986,-3.5504,-3.5504,-3.5504,-3.5504,-3.5504,-3.5504,-3.5504,-3.5504,-3.5504,-3.5504,-3.5504,-3.5504,-3.5504,-3.5504,-3.5504,-3.5504,-3.5504,-3.5504,-3.5504,-3.5504,-3.5504,-3.5504,-3.5504,-3.5504,-3.5504,-3.5504,-3.5213,-3.4725,-3.3993,-3.4279,-3.3925,-3.2996,-3.2996,-3.2996,-2.1493,-2.1746,-2.2036,0.0,0.0,0.0,-2.4767,-2.5297,0.0,0.0,0.0,0.0,0.0,0.0,0.0,0.0,0.0,0.0,0.0,0.0,0.0,0.0,0.0,0.0,0.0,0.0,0.0,-2.763,-2.76,-2.76,-2.76,-2.7974,-2.8004,-2.76,-2.7989,-2.8308,-2.8607,-2.8981,-2.9624,-3.0507,-3.0883,-3.1227,-3.1511,-3.1511,-3.1511,-3.1511,-3.1511,-3.1511,-3.1525,-3.1914,-3.2886,-3.4068,-3.4068,-3.4651,-3.5504,-3.5504,-3.5504,-3.5504,-3.5504,-3.5504,-3.5424,-3.5019,-3.4872,-3.4624,-3.3241,-3.282,-3.2713,-3.2177,-3.2321,-3.2593,-3.2593,-3.2593,-3.2749,-3.3276,-3.3415,-3.3415,-3.3415,-3.3891,-3.4409,-3.4806,-3.5213,-3.5504,-3.5504,-3.5504,-3.5504,-3.5504,-3.5504,-3.5504,-3.5504,-3.5504,-3.5504,-3.5504,-3.5504,-3.5504,-3.5504,-3.5504,-3.5504,-3.5504,-3.5504,-3.5504,-3.5504,-3.5504,-3.5504,-3.5504,-3.51,-3.4394,-3.3415,-3.3808,-3.331,-3.2033,-3.2033,-3.2033,-2.1769,-2.1719,-2.1669,0.0,0.0,0.0,-2.4163,-2.5006,-2.5867,0.0,0.0,0.0,0.0,0.0,0.0,0.0,0.0,0.0,0.0,0.0,0.0,0.0,0.0,0.0,0.0,-2.76,-2.76,-2.76,-2.76,-2.76,-2.76,-2.76,-2.76,-2.76,-2.76,-2.7899,-2.8472,-2.8637,-2.928,-3.0402,-3.0552,-3.0913,-3.1511,-3.1511,-3.1511,-3.1511,-3.1511,-3.1511,-3.1511,-3.1511,-3.2243,-3.3395,-3.3469,-3.4277,-3.54,-3.5474,-3.5504,-3.5504,-3.5504,-3.5504,-3.5311,-3.4312,-3.3993,-3.3671,-3.1779,-3.1217,-3.118,-3.1068,-3.1646,-3.2285,-3.2285,-3.2285,-3.2321,-3.2429,-3.2464,-3.2464,-3.2464,-3.2522,-3.282,-3.3553,-3.4509,-3.5213,-3.5326,-3.5326,-3.5326,-3.5326,-3.5326,-3.5294,-3.518,-3.518,-3.5213,-3.5326,-3.5326,-3.5392,-3.5504,-3.5504,-3.5504,-3.5504,-3.5504,-3.5439,-3.5359,-3.5326,-3.5326,-3.5326,-3.4361,-3.3415,-3.2593,-3.3241,-3.2749,-3.1217,-3.1106,-3.1044,0.0,0.0,0.0,0.0,0.0,0.0,-2.4138,-2.4914,-2.567,0.0,0.0,0.0,0.0,0.0,0.0,0.0,0.0,0.0,0.0,0.0,0.0,0.0,0.0,0.0,0.0,-2.76,-2.76,-2.76,-2.76,-2.76,-2.76,-2.76,-2.76,-2.76,-2.76,-2.766,-2.7794,-2.8873,-2.9547,-2.9774,-3.0793,-3.1376,-3.1511,-3.1511,-3.1511,-3.1511,-3.1511,-3.1511,-3.1511,-3.1511,-3.1974,-3.2766,-3.329,-3.3978,-3.4773,-3.5295,-3.5504,-3.5504,-3.5504,-3.5504,-3.5311,-3.4312,-3.3993,-3.3671,-3.1779,-3.1217,-3.1044,-3.0279,-3.0216,-3.0355,-3.0355,-3.0355,-3.0533,-3.1291,-3.1462,-3.1462,-3.1462,-3.2069,-3.2429,-3.1852,-3.25,-3.3394,-3.4177,-3.4279,-3.4279,-3.4279,-3.4279,-3.4027,-3.3255,-3.3185,-3.3463,-3.4211,-3.4279,-3.461,-3.5424,-3.5504,-3.5504,-3.5504,-3.5504,-3.5133,-3.4327,-3.4279,-3.4279,-3.4279,-3.3345,-3.2784,-3.2593,-3.1281,-3.0809,-3.118,-3.0419,-3.0075,0.0,0.0,0.0,-2.3948,0.0,0.0,0.0,-2.478,-2.5063,0.0,0.0,0.0,0.0,0.0,0.0,0.0,0.0,0.0,0.0,0.0,0.0,0.0,0.0,0.0,0.0,-2.721,-2.76,-2.76,-2.76,-2.76,-2.76,-2.76,-2.76,-2.76,-2.76,-2.76,-2.76,-2.8618,-2.9265,-2.9621,-3.0552,-3.1182,-3.1511,-3.1087,-3.0896,-3.0896,-3.0896,-3.0896,-3.0925,-3.1322,-3.1705,-3.2093,-3.311,-3.3903,-3.4593,-3.525,-3.5504,-3.5439,-3.492,-3.4758,-3.4509,-3.3066,-3.2593,-3.2357,-3.0945,-3.0482,-3.0419,-2.9934,-2.9792,-2.9792,-2.9792,-2.9792,-2.9934,-3.0381,-3.0482,-3.0482,-3.0482,-3.0884,-3.1057,-3.0595,-3.0884,-3.1659,-3.3066,-3.331,-3.331,-3.331,-3.331,-3.3136,-3.2664,-3.2593,-3.2784,-3.3241,-3.331,-3.3498,-3.4007,-3.4476,-3.4758,-3.4758,-3.4758,-3.4543,-3.4027,-3.3553,-3.331,-3.331,-3.2393,-3.1888,-3.1888,-3.0495,-3.0037,-3.0482,-2.9998,-2.9792,0.0,0.0,0.0,0.0,0.0,-2.4299,0.0,0.0,0.0,-2.5212,0.0,0.0,0.0,0.0,0.0,0.0,0.0,0.0,0.0,0.0,0.0,0.0,0.0,0.0,0.0,-2.6376,-2.7047,-2.7189,-2.7229,-2.7274,-2.7367,-2.7509,-2.76,-2.76,-2.76,-2.76,-2.76,-2.8248,-2.8936,-2.9621,-3.0208,-3.0781,-3.1248,-3.0614,-3.0208,-3.0042,-3.0042,-3.0042,-3.0103,-3.0748,-3.1029,-3.1176,-3.2706,-3.3709,-3.4399,-3.5055,-3.5385,-3.5359,-3.4361,-3.3993,-3.3705,-3.1815,-3.1068,-3.0796,-3.0037,-2.9792,-2.9792,-2.9792,-2.9792,-2.9792,-2.9792,-2.9792,-2.9792,-2.9792,-2.9792,-2.9792,-2.9792,-2.9792,-2.9792,-2.9792,-2.9792,-3.0355,-3.2033,-3.2321,-3.2321,-3.2321,-3.2321,-3.2285,-3.2069,-3.2083,-3.2141,-3.2321,-3.2321,-3.2393,-3.2558,-3.3276,-3.3739,-3.3739,-3.3739,-3.3671,-3.3449,-3.2749,-3.2321,-3.2321,-3.1609,-3.1217,-3.1217,-3.0241,-2.9792,-2.9792,-2.9792,-2.9792,0.0,0.0,0.0,0.0,-2.4738,0.0,0.0,0.0,-2.5028,-2.5117,0.0,0.0,0.0,0.0,0.0,0.0,0.0,0.0,0.0,0.0,0.0,0.0,0.0,0.0,0.0,0.0,-2.5085,-2.5709,-2.5839,-2.6126,-2.6613,-2.7255,-2.76,-2.76,-2.76,-2.76,-2.76,-2.8248,-2.8936,-2.9621,-3.0208,-3.0495,-3.0419,-3.0329,-2.9889,-2.916,-2.916,-2.916,-2.916,-2.9254,-2.9286,-2.9512,-3.1749,-3.3021,-3.3679,-3.4384,-3.4981,-3.5359,-3.4361,-3.3993,-3.3705,-3.1815,-3.062,-2.9934,-2.983,-2.9792,-2.9792,-2.9792,-2.9792,-2.9792,-2.9792,-2.9792,-2.9792,-2.9792,-2.9792,-2.9792,-2.9792,-2.9792,-2.9792,-2.9792,-2.9792,-3.0139,-3.118,-3.1352,-3.1352,-3.1352,-3.1352,-3.1044,-3.0216,-3.0113,-3.0419,-3.1254,-3.1352,-3.1706,-3.2522,-3.2713,-3.2749,-3.2749,-3.2749,-3.2393,-3.1536,-3.1426,-3.1352,-3.1352,-3.1254,-3.1217,-3.1217,-3.0241,-2.9792,-2.9792,-2.9792,-2.9792,0.0,0.0,0.0,0.0,0.0,0.0,-2.537,0.0,-2.4827,0.0,0.0,0.0,0.0,0.0,0.0,0.0,0.0,0.0,0.0,0.0,0.0,0.0,0.0,0.0,0.0,0.0,0.0,0.0,0.0,-2.5441,-2.6455,-2.68,-2.7178,-2.76,-2.7163,-2.7178,-2.76,-2.7035,-2.7297,-2.8374,-2.8525,-2.8766,-2.9076,-2.8868,-2.8588,-2.8247,-2.8247,-2.8247,-2.8266,-2.878,-2.9002,-2.9093,-3.008,-3.117,-3.2225,-3.2749,-3.3444,-3.3929,-3.2779,-3.2393,-3.2141,-3.0809,-3.0101,-2.9792,-2.9792,-2.9792,-2.9792,-2.9792,-2.9792,-2.9792,-2.9792,-2.9792,-2.9792,-2.9792,-2.9792,-2.9792,-2.9792,-2.9792,-2.9792,-2.9792,-2.9792,-2.9934,-3.0317,-3.0381,-3.0381,-3.0381,-3.0381,-3.0241,-2.9869,-2.9792,-2.9934,-3.0355,-3.0381,-3.0558,-3.0959,-3.1476,-3.1779,-3.1779,-3.1779,-3.1365,-3.0419,-3.0381,-3.0381,-3.0381,-3.0381,-3.0381,-3.0381,-2.9998,-2.9792,-2.9792,-2.9792,-2.9792,-2.9788,0.0,0.0,0.0,0.0,0.0,0.0,0.0,0.0,0.0,0.0,0.0,0.0,0.0,0.0,-2.2907,0.0,0.0,0.0,0.0,0.0,0.0,0.0,0.0,0.0,0.0,0.0,0.0,0.0,0.0,-2.5596,-2.6183,-2.6747,-2.728,-2.6774,-2.6747,-2.7306,-2.6197,-2.6232,-2.7427,-2.7431,-2.7638,-2.8056,-2.7799,-2.7571,-2.7384,-2.7384,-2.7384,-2.7417,-2.8051,-2.8298,-2.8298,-2.8298,-2.9091,-3.0355,-3.1207,-3.205,-3.256,-3.1379,-3.0808,-3.0475,-2.9986,-2.9792,-2.9792,-2.9792,-2.9792,-2.9792,-2.9792,-2.9792,-2.9792,-2.9792,-2.9792,-2.9792,-2.9792,-2.9792,-2.9792,-2.9792,-2.9792,-2.9792,-2.9792,-2.9792,-2.9792,-2.9792,-2.9792,-2.9792,-2.9792,-2.9792,-2.9792,-2.9792,-2.9792,-2.9792,-2.9792,-2.9792,-2.9792,-2.9792,-3.0419,-3.0833,-3.0833,-3.0833,-3.052,-2.983,-2.9792,-2.9792,-2.9792,-2.9792,-2.9792,-2.9792,-2.9792,-2.9792,-2.9792,-2.9792,-2.9792,0.0,0.0,0.0,-2.8802,0.0,0.0,0.0,0.0,-2.5573,0.0,0.0,0.0,0.0,0.0,-2.2932,-2.2393,-2.2322,0.0,0.0,0.0,0.0,0.0,0.0,0.0,0.0,0.0,0.0,0.0,0.0,0.0,-2.3465,-2.5419,-2.651,-2.6537,-2.651,-2.651,-2.6537,-2.6288,-2.6514,-2.7209,-2.7726,-2.7895,-2.771,-2.769,-2.7297,-2.6521,-2.6521,-2.6521,-2.6521,-2.6555,-2.6589,-2.6589,-2.6589,-2.7074,-2.806,-3.0084,-3.1266,-3.1709,-3.0744,-2.9781,-2.9089,-2.9616,-2.9792,-2.9792,-2.9792,-2.9792,-2.9792,-2.9792,-2.9792,-2.9792,-2.9792,-2.9792,-2.9792,-2.9792,-2.9792,-2.9792,-2.9792,-2.9792,-2.9792,-2.9792,-2.9792,-2.9792,-2.9792,-2.9792,-2.9792,-2.9792,-2.9792,-2.9792,-2.9792,-2.9792,-2.9792,-2.9792,-2.9792,-2.9792,-2.9792,-2.983,-2.9818,-2.9818,-2.9818,-2.983,-2.9792,-2.9792,-2.9792,-2.9792,-2.9792,-2.9792,-2.9792,-2.9792,-2.9792,-2.9792,-2.9792,-2.9792,0.0,0.0,-3.1279,-3.0306,0.0,0.0,0.0,0.0,0.0,0.0,0.0,0.0,0.0,-2.3841,-2.3527,-2.292,-2.2518,-2.2184,0.0,0.0,0.0,0.0,0.0,0.0,0.0,0.0,0.0,0.0,0.0,0.0,0.0,-2.4458,-2.5259,-2.5755,-2.5287,-2.5287,-2.5755,-2.5095,-2.5105,-2.5801,-2.6214,-2.6388,-2.6309,-2.6726,-2.6748,-2.6499,-2.6499,-2.6499,-2.6499,-2.6499,-2.6499,-2.6499,-2.6499,-2.6692,-2.7028,-2.8071,-2.9219,-3.0134,-2.96,-2.9175,-2.8925,-2.9151,-2.9176,-2.9289,-2.9679,-2.9792,-2.9792,-2.9792,-2.9792,-2.9792,-2.9792,-2.9792,-2.9792,-2.9792,-2.9792,-2.9792,-2.9792,-2.9792,-2.9792,-2.9792,-2.9792,-2.9792,-2.9792,-2.9792,-2.9792,-2.9792,-2.9792,-2.9792,-2.9792,-2.9792,-2.9792,-2.9792,-2.9792,-2.9792,-2.9792,-2.9792,-2.9792,-2.9792,-2.9792,-2.9792,-2.9792,-2.9792,-2.9792,-2.9792,-2.9792,-2.9792,-2.9792,-2.9792,-2.9792,-2.9792,-2.9792,-2.9792,-3.4203,-3.3624,0.0,-3.1891,-3.0582,0.0,-2.8308,0.0,0.0,0.0,0.0,0.0,0.0,0.0,-2.3879,-2.3471,-2.2945,-2.2443,0.0,-2.1405,0.0,0.0,0.0,0.0,0.0,0.0,0.0,0.0,0.0,0.0,0.0,0.0,-2.4889,-2.5263,-2.5104,-2.517,-2.5561,-2.4898,-2.4811,-2.5288,-2.5724,-2.59,-2.5912,-2.6323,-2.6499,-2.6499,-2.6499,-2.6499,-2.6499,-2.6499,-2.6499,-2.6499,-2.6499,-2.6612,-2.6851,-2.7369,-2.8293,-2.9228,-2.9214,-2.9063,-2.8925,-2.9126,-2.9239,-2.9302,-2.9679,-2.9792,-2.9792,-2.9792,-2.9792,-2.9792,-2.9792,-2.9792,-2.9792,-2.9792,-2.9792,-2.9792,-2.9792,-2.9792,-2.9792,-2.9792,-2.9792,-2.9792,-2.9792,-2.9792,-2.9792,-2.9792,-2.9792,-2.9792,-2.9792,-2.9792,-2.9792,-2.9792,-2.9792,-2.9792,-2.9792,-2.9792,-2.9792,-2.9792,-2.9792,-2.9792,-2.9792,-2.9792,-2.988,-3.008,-2.9892,-2.9892,-3.008,-2.9892,-2.9792,-2.9792,-2.9792,-2.9792]},{"header":{"parameterUnit":"m.s-1","parameterCategory":1,"la1":30.6,"la2":29.2853,"lo1":-89.7004,"lo2":-87.6739,"dy":0.0162,"dx":0.0183,"nx":112,"ny":82,"refTime":"2023-04-14T12:00:00:Z","depth":0,"parameterNumber":3,"parameterNumberName":"V-component_of_WINDS"},"data":[0.0,0.0,0.0,0.0,0.0,0.0,0.0,0.0,0.0,0.0,0.0,0.0,0.0,0.0,0.0,0.0,0.0,0.0,0.0,0.0,0.0,0.0,0.0,0.0,0.0,0.0,0.0,0.0,0.0,0.0,0.0,0.0,0.0,0.0,0.0,0.0,0.0,0.0,0.0,0.0,0.0,0.0,0.0,0.0,0.0,0.0,0.0,0.0,0.0,0.0,0.0,0.0,0.0,0.0,0.0,0.0,0.0,0.0,0.0,0.0,0.0,0.0,0.0,0.0,0.0,0.0,0.0,0.0,0.0,0.0,0.0,0.0,0.0,0.0,0.0,0.0,0.0,0.0,0.0,0.0,0.0,0.0,0.0,0.0,0.0,0.0,0.0,0.0,0.0,0.0,0.0,0.7963,1.0281,1.1468,1.1052,1.2014,1.2423,1.1931,0.0,0.0,0.0,0.0,0.0,0.0,0.0,0.0,0.0,0.0,0.0,0.0,0.0,0.0,0.0,0.0,0.0,0.0,0.0,0.0,0.0,0.0,0.0,0.0,0.0,0.0,0.0,0.0,0.0,0.0,0.0,0.0,0.0,0.0,0.0,0.0,0.0,0.0,0.0,0.0,0.0,0.0,0.0,0.0,0.0,0.0,0.0,0.0,0.0,0.0,0.0,0.0,0.0,0.0,0.0,0.0,0.0,0.0,0.0,0.0,0.0,0.0,0.0,0.0,0.0,0.0,0.0,0.0,0.0,0.0,0.0,0.0,0.0,0.0,0.0,0.0,0.0,0.0,0.0,0.0,0.0,0.0,0.0,0.0,0.0,0.0,0.0,0.0,0.0,0.0,0.0,0.0,0.0,0.0,0.0,0.0,0.0,0.0,0.0,0.0,0.0,0.0,0.0,0.0,0.6706,0.8803,1.0216,1.1153,1.1467,1.1222,1.141,1.2268,0.0,0.0,0.0,0.0,0.0,0.0,0.0,0.0,0.0,0.0,0.0,0.0,0.0,0.0,0.0,0.0,0.0,0.0,0.0,0.0,0.0,0.0,0.0,0.0,0.0,0.0,0.0,0.0,0.0,0.0,0.0,0.0,0.0,0.0,0.0,0.0,0.0,0.0,0.0,0.0,0.0,0.0,0.0,0.0,0.0,0.0,0.0,0.0,0.0,0.0,0.0,0.0,0.0,0.0,0.0,0.0,0.0,0.0,0.0,0.0,0.0,0.0,0.0,0.0,0.0,0.0,0.0,0.0,0.0,0.0,0.0,0.0,0.0,0.0,0.0,0.0,0.0,0.0,0.0,0.0,0.0,0.0,0.0,0.0,0.0,0.0,0.0,0.0,0.0,0.0,0.0,0.0,0.0,0.0,0.0,0.0,0.0,0.0,0.0,0.0,0.0,0.0,0.0,0.694,0.7954,0.8682,1.027,1.1173,1.0909,1.0793,1.1091,1.2016,1.2241,0.0,0.0,0.0,0.0,0.0,0.0,0.0,0.0,0.0,0.0,0.0,0.0,0.0,0.0,0.0,0.0,0.0,0.0,0.0,0.0,0.0,0.0,0.0,0.0,0.0,0.0,0.0,0.0,0.0,0.0,0.0,0.0,0.0,0.0,0.0,0.0,0.0,0.0,0.0,0.0,0.0,0.0,0.0,0.0,0.0,0.0,0.0,0.0,0.0,0.0,0.0,0.0,0.0,0.0,0.0,0.0,0.0,0.0,0.0,0.0,0.0,0.0,0.0,0.0,0.0,0.0,0.0,0.0,0.0,0.0,0.0,0.0,0.0,0.0,0.0,0.0,0.0,0.0,0.0,0.0,0.0,0.0,0.0,0.0,0.0,0.0,0.0,0.0,0.0,0.0,0.0,0.0,0.0,0.0,0.0,0.0,0.0,0.0,0.0,0.0,0.0,0.0,0.7827,0.8557,0.8538,1.0022,1.0813,1.0367,1.0256,1.0647,1.1711,1.1535,0.0,0.0,0.0,0.0,0.0,0.0,0.0,0.0,0.0,0.0,0.0,0.0,0.0,0.0,0.0,0.0,0.0,0.0,0.0,0.0,0.0,0.0,0.0,0.0,0.0,0.0,0.0,0.0,0.0,0.0,0.0,0.0,0.0,0.0,0.0,0.0,0.0,0.0,0.0,0.0,0.0,0.0,0.0,0.0,0.0,0.0,0.0,0.0,0.0,0.0,0.0,0.0,0.0,0.0,0.0,0.0,0.0,0.0,0.0,0.0,0.0,0.0,0.0,0.0,0.0,0.0,0.0,0.0,0.0,0.0,0.0,0.0,0.0,0.0,0.0,0.0,0.0,0.0,0.0,0.0,0.0,0.0,0.0,0.0,0.0,0.0,0.0,0.0,0.0,0.0,0.0,0.0,0.0,0.0,0.0,0.0,0.0,0.0,0.0,0.0,0.0,0.0,0.7399,0.7681,0.8827,0.9094,0.9509,1.0322,0.938,0.9586,1.1576,1.1103,0.0,0.0,0.0,0.0,0.0,0.0,0.0,0.0,0.0,0.0,0.0,0.0,0.0,0.0,0.0,0.0,0.0,0.0,0.0,0.0,0.0,0.0,0.0,0.0,0.0,0.0,0.0,0.0,0.0,0.0,0.0,0.0,0.0,0.0,0.0,0.0,0.0,0.0,0.0,0.0,0.0,0.0,0.0,0.0,0.0,0.0,0.0,0.0,0.0,0.0,0.0,0.0,0.0,0.0,0.0,0.0,0.0,0.0,0.0,0.0,0.0,0.0,0.0,0.0,0.0,0.0,0.0,0.0,0.0,0.0,0.0,0.0,0.0,0.0,0.0,0.0,0.0,0.0,0.0,0.0,0.0,0.0,0.0,0.0,0.0,0.0,0.0,0.0,0.0,0.0,0.0,0.0,0.0,0.0,0.0,0.0,0.0,0.0,0.0,0.0,0.0,0.0,0.7569,0.7768,0.0,0.8848,0.925,0.9855,0.9101,0.9327,1.1018,0.0,0.0,0.0,0.0,0.0,0.0,0.0,0.0,0.0,0.0,0.0,0.0,0.0,0.0,0.0,0.0,0.0,0.0,0.0,0.0,0.0,0.0,0.0,0.0,0.0,0.0,0.0,0.0,0.0,0.0,0.0,0.0,0.0,0.0,0.0,0.0,0.0,0.0,0.0,0.0,0.0,0.0,0.0,0.0,0.0,0.0,0.0,0.0,0.0,0.0,0.0,0.0,0.0,0.0,0.0,0.0,0.0,0.0,0.0,0.0,0.0,0.0,0.0,0.0,0.0,0.0,0.0,0.0,0.0,0.0,0.0,0.0,0.0,0.0,0.0,0.0,0.0,0.0,0.0,0.0,0.0,0.0,0.0,0.0,0.0,0.0,0.0,0.0,0.0,0.0,0.0,0.0,0.0,0.0,0.0,0.0,0.0,0.0,0.0,0.0,0.0,0.0,0.7846,0.7554,0.7515,0.0,0.8539,0.8922,0.9308,0.8711,0.9021,1.0657,0.0,0.0,0.0,0.0,0.0,0.0,0.0,0.0,0.0,0.0,0.0,0.0,0.0,0.0,0.0,0.0,0.0,0.0,0.0,0.0,0.0,0.0,0.0,0.0,0.0,0.0,0.0,0.0,0.0,0.0,0.0,0.0,0.0,0.0,0.0,0.0,0.0,0.0,0.0,0.0,0.0,0.0,0.0,0.0,0.0,0.0,0.0,0.0,0.0,0.0,0.0,0.0,0.0,0.0,0.0,0.0,0.0,0.0,0.0,0.0,0.0,0.0,0.0,0.0,0.0,0.0,0.0,0.0,0.0,0.0,0.0,0.0,0.0,0.0,0.0,0.0,0.0,0.0,0.0,0.0,0.0,0.0,0.0,0.0,0.0,0.0,0.0,0.0,0.0,0.0,0.0,0.0,0.0,0.0,0.0,0.0,0.0,0.0,0.0,0.0,0.0,0.0,0.8287,0.7227,0.6735,0.7608,0.8062,0.8435,0.8764,0.8129,0.8562,0.0,0.0,0.0,0.0,0.0,0.0,0.0,0.0,0.0,0.0,0.0,0.0,0.0,0.0,0.0,0.0,0.0,0.0,0.0,0.0,0.0,0.0,0.0,0.0,0.0,0.0,0.0,0.0,0.0,0.0,0.0,0.0,0.0,0.0,0.0,0.0,0.0,0.0,0.0,0.0,0.0,0.0,0.0,0.0,0.0,0.0,0.0,0.0,0.0,0.0,0.0,0.0,0.0,0.0,0.0,0.0,0.0,0.0,0.0,0.0,0.0,0.0,0.0,0.0,0.0,0.0,0.0,0.0,0.0,0.0,0.0,0.0,0.0,0.0,0.0,0.0,0.0,0.0,0.0,0.0,0.0,0.0,0.0,0.0,0.0,0.0,0.0,0.0,0.0,0.0,0.0,0.0,0.0,0.0,0.0,0.0,0.0,0.0,0.0,0.0,0.0,0.0,0.0,0.8287,0.7227,0.6735,0.7608,0.8062,0.8282,0.8244,0.8257,0.8802,1.0055,0.0,0.0,0.0,0.0,0.0,0.0,0.0,0.0,0.0,0.0,0.0,0.0,0.0,0.0,0.0,0.0,0.0,0.0,0.0,0.0,0.0,0.0,0.0,0.0,0.0,0.0,0.0,0.0,0.0,0.0,0.0,0.0,0.0,0.0,0.0,0.0,0.0,0.0,0.0,0.0,0.0,0.0,0.0,0.0,0.0,0.0,0.0,0.0,0.0,0.0,0.0,0.0,0.0,0.0,0.0,0.0,0.0,0.0,0.0,0.0,0.0,0.0,0.0,0.0,0.0,0.0,0.0,0.0,0.0,0.0,0.0,0.0,0.0,0.0,0.0,0.0,0.0,0.0,0.0,0.0,0.0,0.0,0.0,0.0,0.0,0.0,0.0,0.0,0.0,0.0,0.0,0.0,0.0,0.0,0.0,0.0,0.0,0.0,0.0,0.0,0.0,0.0,0.8532,0.7324,0.6735,0.7608,0.818,0.8369,0.802,0.845,0.9071,0.9855,0.0,0.0,0.0,0.0,0.0,0.0,0.0,0.0,0.0,0.0,0.0,0.0,0.0,0.0,0.0,0.0,0.0,0.0,0.0,0.0,0.0,0.0,0.0,0.0,0.0,0.0,0.0,0.0,0.0,0.0,0.0,0.0,0.0,0.0,0.0,0.0,0.0,0.0,0.0,0.0,0.0,0.0,0.0,0.0,0.0,0.0,0.0,0.0,0.0,0.0,0.0,0.0,0.0,0.0,0.0,0.0,0.0,0.0,0.0,0.0,0.0,0.0,0.0,0.0,0.0,0.0,0.0,0.0,0.0,0.0,0.0,0.0,0.0,0.0,0.0,0.0,0.0,0.0,0.0,0.0,0.0,0.0,0.0,0.0,0.0,0.0,0.0,0.0,0.0,0.0,0.0,0.0,0.0,0.0,0.0,0.0,0.0,0.0,0.0,0.0,0.0,0.0,0.8955,0.7549,0.6813,0.7715,0.8379,0.857,0.81,0.8717,0.9341,0.9868,0.0,0.0,0.0,0.0,0.0,0.0,0.0,0.0,0.0,0.0,0.0,0.0,0.0,0.0,0.0,0.0,0.0,0.0,0.0,0.0,0.0,0.0,0.0,0.0,0.0,0.0,0.0,0.0,0.0,0.0,0.0,0.0,0.0,0.0,0.0,0.0,0.0,0.0,0.0,0.0,0.0,0.0,0.0,0.0,0.0,0.0,0.0,0.0,0.0,0.0,0.0,0.0,0.0,0.0,0.0,0.0,0.0,0.0,0.0,0.0,1.3739,0.0,0.0,0.0,0.0,0.0,0.0,0.0,0.0,0.0,0.0,0.0,0.0,0.0,0.0,0.0,0.0,0.0,0.0,0.0,0.0,0.0,0.0,0.0,0.0,0.0,0.0,0.0,0.0,0.0,0.0,0.0,0.0,0.0,0.0,0.0,0.0,0.0,0.0,0.0,0.0,0.0,0.9377,0.7993,0.7412,0.8587,0.8541,0.8424,0.847,0.9007,0.9498,0.988,1.0361,0.0,0.0,0.0,0.0,0.0,0.0,0.0,0.0,0.0,0.0,0.0,0.0,0.0,0.0,0.0,0.0,0.0,0.0,0.0,0.0,0.0,0.0,0.0,0.0,0.0,0.0,0.0,0.0,0.0,0.0,0.0,0.0,0.0,0.0,0.0,0.0,0.0,0.0,0.0,0.0,0.0,0.0,0.0,0.0,0.0,0.0,0.0,0.0,0.0,0.0,0.0,0.0,0.0,0.0,0.0,0.0,0.0,0.0,0.0,0.0,1.371,0.0,0.0,0.0,0.0,0.0,0.0,0.0,0.0,0.0,0.0,0.0,0.0,0.0,0.0,0.0,0.0,0.0,0.0,0.0,0.0,0.0,0.0,0.0,0.0,0.0,0.0,0.0,0.0,0.0,0.0,0.0,0.0,0.0,0.0,0.0,0.0,0.0,0.0,0.0,0.0,0.9485,0.8305,0.7798,0.8887,0.8948,0.8877,0.8752,0.932,0.9603,0.9383,1.0203,0.0,0.0,0.0,0.0,0.0,0.0,0.0,0.0,0.0,0.0,0.0,0.0,0.0,0.0,0.0,0.0,0.0,0.0,0.0,0.0,0.0,0.0,0.0,0.0,0.0,0.0,0.0,0.0,0.0,0.0,0.0,0.0,0.0,0.0,0.0,0.0,0.0,0.0,0.0,0.0,0.0,0.0,0.0,0.0,0.0,0.0,0.0,0.0,0.0,0.0,0.0,0.0,0.0,1.4148,1.4367,1.4445,1.4358,1.4523,1.4834,1.3779,1.3037,1.2578,0.0,0.0,0.0,0.0,0.0,0.0,0.0,0.0,0.0,0.0,0.0,0.0,0.0,0.0,0.0,0.0,0.0,0.0,0.0,0.0,0.0,0.0,0.0,0.0,0.0,1.2773,1.2842,0.0,0.0,0.0,0.0,0.0,0.0,0.0,0.0,0.0,0.0,0.0,0.0,0.9533,0.861,0.8266,0.9141,0.9389,0.9392,0.9145,0.9618,0.9642,0.8959,0.9904,1.0412,0.0,0.0,0.0,0.0,0.0,0.0,0.0,0.0,0.0,0.0,0.0,0.0,0.0,0.0,0.0,0.0,0.0,0.0,0.0,0.0,0.0,0.0,0.0,0.0,0.0,0.0,0.0,0.0,0.0,0.0,0.0,0.0,1.2835,1.3375,0.0,0.0,0.0,0.0,0.0,0.0,0.0,0.0,0.0,0.0,0.0,0.0,0.0,0.0,1.1534,1.2457,1.3584,1.4886,1.5128,1.5439,1.5821,1.541,1.5273,1.5322,1.5156,0.0,1.3831,1.3622,0.0,0.0,0.0,0.0,0.0,0.0,0.0,0.0,0.0,0.0,0.0,0.0,0.0,0.0,0.0,0.0,0.0,0.0,0.0,0.0,0.0,0.0,1.2807,1.2389,1.2291,1.2308,0.0,1.2756,1.2976,1.2499,0.0,0.0,0.0,0.0,0.0,0.0,0.0,0.0,0.9631,0.9153,0.917,1.0038,0.9497,0.9344,0.9977,0.9808,0.9584,0.9415,0.9567,0.9833,1.0183,1.0771,0.0,0.0,0.0,0.0,0.0,0.0,0.0,0.0,0.0,0.0,0.0,0.0,0.0,0.0,0.0,0.0,0.0,0.0,0.0,0.0,0.0,0.0,0.0,0.0,0.0,0.0,0.0,0.0,0.0,1.3445,1.2816,1.2327,1.2946,1.3061,0.0,0.0,0.0,0.0,0.0,0.0,0.0,0.0,0.0,1.122,1.1314,1.1904,1.2956,1.363,1.478,1.6415,1.6718,1.6973,1.7148,1.6963,1.697,1.7174,1.6973,1.6629,1.6171,1.4805,1.4121,1.3945,0.0,0.0,0.0,0.0,0.0,1.3802,1.3652,1.3558,0.0,0.0,0.0,0.0,0.0,0.0,0.0,0.0,0.0,0.0,0.0,0.0,0.0,1.3266,1.3276,1.3207,1.2973,1.296,1.2829,0.0,1.2319,1.2294,1.2034,0.0,0.0,0.0,0.0,0.0,0.999,0.9834,0.9951,1.0566,1.0303,1.0125,1.0253,1.0057,0.9725,0.9253,0.961,0.9846,0.9861,1.0571,1.1133,0.0,0.0,0.0,0.0,0.0,0.0,0.0,0.0,0.0,0.0,0.0,0.0,0.0,0.0,0.0,0.0,0.0,0.0,0.0,0.0,0.0,0.0,0.0,0.0,0.0,0.0,0.0,0.0,1.3584,1.2888,1.1933,1.2865,1.3178,0.0,0.0,0.0,0.0,0.0,0.0,1.2628,1.2883,1.2734,1.217,1.2208,1.3057,1.481,1.5165,1.6316,1.8237,1.8398,1.8555,1.8652,1.8437,1.8564,1.89,1.8516,1.834,1.8174,1.6123,1.5215,1.5107,1.4756,1.4601,1.4601,1.4601,1.4601,1.4582,1.4475,1.4436,1.4377,1.4065,0.0,1.376,1.333,0.0,0.0,0.0,0.0,1.3271,1.3584,1.375,1.3916,1.4202,1.427,1.4153,1.3734,1.334,1.2881,0.0,1.2116,1.2077,1.2184,0.0,0.0,0.0,0.0,1.0312,1.043,1.0567,1.0753,1.1045,1.0977,1.0781,1.0469,1.0322,0.9916,0.9189,0.9671,0.986,0.9615,1.036,1.0805,1.0909,0.0,0.0,0.0,0.0,0.0,0.0,0.0,0.0,0.0,0.0,0.0,0.0,0.0,0.0,0.0,0.0,0.0,0.0,0.0,0.0,0.0,0.0,0.0,0.0,0.0,0.0,0.0,0.0,0.0,1.3269,1.3749,0.0,0.0,0.0,0.0,1.4452,1.3807,1.3129,1.2361,1.2614,1.2813,1.2782,1.2986,1.4298,1.6749,1.7012,1.8281,2.0439,2.001,2.0039,2.0449,1.959,1.9453,1.9824,1.9404,1.9219,1.9092,1.7321,1.6387,1.6026,1.6007,1.5997,1.5997,1.5997,1.5997,1.5938,1.5488,1.5313,1.5342,1.5322,1.5049,1.4639,1.4172,1.4046,0.0,0.0,1.4046,1.4046,1.4075,1.4404,1.4727,1.4746,1.4746,1.4629,1.4172,1.3743,1.3232,0.0,1.1885,1.1751,1.2135,0.0,1.1989,1.1614,1.1855,1.1784,1.0966,1.1261,1.1547,1.1567,1.1183,1.0898,1.0879,1.0518,1.0087,0.9611,0.96,0.9627,0.9593,1.013,1.0573,1.0881,1.1879,0.0,0.0,0.0,0.0,0.0,0.0,0.0,0.0,0.0,0.0,0.0,0.0,0.0,0.0,0.0,0.0,0.0,0.0,0.0,0.0,0.0,0.0,0.0,0.0,0.0,0.0,0.0,0.0,1.3429,1.4135,0.0,1.3785,1.4194,1.4242,1.3706,1.3425,1.3358,1.3467,1.3728,1.3975,1.4211,1.5057,1.6293,1.7871,1.8714,1.9921,2.1416,2.126,2.1269,2.1437,2.081,2.0586,2.0703,2.0303,2.0155,2.0077,1.915,1.8325,1.7695,1.7422,1.7314,1.7314,1.7314,1.7314,1.7295,1.7139,1.708,1.6992,1.6414,1.5771,1.5107,1.4678,1.4551,1.4492,1.4182,1.4104,1.4172,1.4473,1.4668,1.4882,1.5127,1.5186,1.5,1.426,1.3987,1.3636,1.2812,1.2295,1.2129,1.2578,1.2201,1.1846,1.1973,1.1885,1.1712,1.1389,1.1719,1.1992,1.1992,1.1833,1.1619,1.1369,1.0928,1.0498,1.0078,1.0049,1.0056,1.0046,1.0223,1.051,1.0899,1.1338,1.1644,0.0,0.0,0.0,0.0,0.0,0.0,0.0,0.0,0.0,0.0,0.0,0.0,0.0,0.0,0.0,0.0,0.0,0.0,0.0,0.0,0.0,0.0,0.0,0.0,0.0,0.0,1.366,1.3946,1.5102,1.5386,1.4119,1.5054,1.549,1.4816,1.494,1.5231,1.5762,1.6046,1.6277,1.6487,1.728,1.8242,1.9391,2.0164,2.107,2.21,2.21,2.21,2.209,2.165,2.1492,2.159,2.1045,2.0879,2.1016,2.0537,1.9991,1.9407,1.8721,1.8437,1.8457,1.8603,1.8564,1.8437,1.8437,1.8252,1.792,1.7321,1.6541,1.5771,1.5371,1.5244,1.5155,1.466,1.4533,1.4601,1.4922,1.5,1.5068,1.5342,1.541,1.5215,1.4484,1.4328,1.4124,1.3437,1.2842,1.2515,1.2856,1.2416,1.2181,1.2574,1.2285,1.2083,1.222,1.2353,1.2451,1.2451,1.2291,1.2086,1.1839,1.1387,1.1027,1.0753,1.0733,1.0733,1.0733,1.0733,1.086,1.1123,1.1297,1.1543,1.1809,0.0,0.0,0.0,0.0,0.0,0.0,0.0,0.0,0.0,0.0,0.0,0.0,0.0,0.0,0.0,0.0,0.0,0.0,0.0,0.0,0.0,0.0,0.0,1.3924,1.4233,1.4575,1.4911,1.6668,1.7253,1.5717,1.7765,1.8829,1.787,1.8293,1.8779,1.9093,1.9352,1.9497,1.9497,1.9542,2.0124,2.1293,2.1337,2.1748,2.2529,2.2529,2.2529,2.2519,2.21,2.2119,2.2451,2.157,2.1484,2.1836,2.1385,2.121,2.1083,1.9853,1.9336,1.9375,1.9785,1.9678,1.9326,1.9307,1.875,1.8047,1.8037,1.7428,1.6658,1.6271,1.6134,1.6046,1.5576,1.5449,1.5449,1.5449,1.5439,1.543,1.543,1.542,1.5293,1.4873,1.4813,1.4658,1.4192,1.3477,1.2935,1.2925,1.2915,1.3042,1.3428,1.3145,0.0,1.3437,1.3135,1.2905,1.2925,1.251,1.2223,1.2223,1.1836,1.1616,1.1606,1.1606,1.1606,1.1606,1.1606,1.1606,1.1626,1.1875,1.2077,1.2223,0.0,0.0,0.0,0.0,0.0,0.0,0.0,0.0,0.0,0.0,0.0,0.0,0.0,0.0,0.0,0.0,0.0,0.0,0.0,0.0,0.0,0.0,1.4261,1.4261,1.4982,1.5677,1.6212,1.7906,1.8527,1.7236,1.8503,1.8943,1.781,1.8656,1.9286,1.9385,1.9439,1.9497,1.9497,2.035,2.098,2.1293,2.2164,2.2717,2.2925,2.2925,2.2925,2.2906,2.2529,2.2236,2.2041,2.1807,2.1592,2.1385,2.1621,2.1709,2.1641,2.0967,2.0498,2.0263,2.038,2.0351,2.0204,1.9853,1.9385,1.8887,1.8564,1.8061,1.7578,1.7148,1.7054,1.6924,1.6463,1.6336,1.6336,1.6336,1.6123,1.5919,1.5919,1.5644,1.5293,1.4873,1.4813,1.4658,1.4192,1.3919,1.3665,1.3389,1.3076,1.2944,1.3062,1.2983,0.0,1.3037,1.2983,1.3023,1.3301,1.2959,1.2705,1.2705,1.2295,1.1904,1.1626,1.1606,1.1606,1.1606,1.1606,1.1731,1.2041,1.2441,1.2656,0.0,0.0,0.0,0.0,0.0,0.0,0.0,0.0,0.0,0.0,0.0,0.0,0.0,0.0,0.0,0.0,0.0,0.0,0.0,0.0,0.0,0.0,1.6726,1.6677,1.6386,1.6327,1.6483,1.7109,1.9007,1.9579,1.787,1.9724,2.0494,1.9314,2.0314,2.0998,2.0998,2.0998,2.0998,2.0998,2.1676,2.2031,2.2031,2.2775,2.3091,2.3091,2.3091,2.3091,2.3091,2.2847,2.2604,0.0,2.2217,2.21,2.1999,2.2119,2.2148,0.0,0.0,0.0,0.0,0.0,2.0723,2.0781,2.0342,1.9912,1.9482,1.9053,1.8588,1.813,1.7568,1.7383,1.7295,1.6824,1.6697,1.6697,1.6697,1.6543,1.6338,1.6338,1.6152,1.584,1.5439,1.5351,1.5224,1.4756,0.0,0.0,1.4082,1.3545,1.3203,1.3379,1.3105,1.2964,1.3125,1.2988,1.2993,1.3213,1.3027,1.2905,1.2905,1.2646,0.0,0.0,0.0,1.2132,1.2132,1.2132,0.0,0.0,0.0,1.2905,1.2905,0.0,0.0,0.0,1.25,1.2637,0.0,0.0,0.0,0.0,0.0,0.0,0.0,0.0,0.0,0.0,0.0,0.0,0.0,0.0,0.0,0.0,1.8927,1.9756,1.9707,1.8419,1.764,1.8133,2.0192,2.069,1.8427,2.1168,2.2589,2.1382,2.2403,2.3091,2.3091,0.0,0.0,0.0,0.0,2.3091,2.3091,2.3091,2.3091,2.3091,2.3091,2.3091,2.3091,2.3091,2.3071,2.3003,2.2682,2.2721,2.3003,2.2715,2.2559,2.2422,2.1531,2.1161,2.1073,2.0752,2.082,0.0,0.0,0.0,0.0,1.9424,1.8994,1.8461,1.7744,1.749,1.7373,1.695,1.6843,1.6843,1.6843,1.6814,1.6775,1.6775,1.6736,1.659,1.6251,1.6173,1.6056,1.5635,1.5215,1.496,1.496,1.418,1.3665,1.3987,1.3428,1.3066,1.3389,1.3105,1.2925,1.2949,0.0,0.0,1.2949,1.2935,1.2905,1.2905,1.2905,1.2905,1.2905,1.2905,1.2905,1.2905,1.2905,1.2905,1.2905,1.2905,1.2905,1.2905,1.2905,1.2905,0.0,0.0,0.0,0.0,0.0,0.0,0.0,0.0,0.0,0.0,0.0,0.0,0.0,0.0,0.0,2.1001,1.9683,1.9476,2.2896,2.228,2.1377,2.1182,2.2453,2.2734,2.1303,2.2335,2.2589,2.1382,2.2403,2.3091,2.3091,2.3091,0.0,2.3091,2.3091,2.3091,2.3091,2.3091,2.3091,2.3091,0.0,0.0,2.3091,2.3091,2.2916,2.2646,2.2867,2.2828,2.2656,2.2867,2.2779,2.2422,2.1531,2.1016,2.0723,2.0635,2.0664,2.0664,2.0185,1.999,1.9844,1.9424,1.8994,1.8568,1.8412,1.812,0.0,1.7783,1.7764,1.7764,1.7764,1.751,1.7256,1.7256,1.6992,1.6677,1.659,1.657,1.6551,1.6463,1.6123,1.584,1.584,1.4814,1.3899,1.3636,1.3486,1.3291,1.3062,1.2954,1.3008,1.335,1.3076,1.3042,1.3359,1.3101,1.2905,1.2905,1.2905,1.2905,1.2905,1.2905,1.2905,1.2905,1.2905,1.2905,1.2905,1.2905,1.2905,1.2905,1.2905,1.2905,0.0,0.0,0.0,0.0,0.0,0.0,0.0,0.0,0.0,0.0,0.0,1.9191,0.0,0.0,1.9818,2.1989,2.1871,2.2182,2.4144,2.4268,2.3671,2.2434,2.335,2.3635,2.2408,2.3161,2.349,2.2874,2.34,2.3734,2.3734,2.3574,2.3467,2.3467,2.3208,2.3091,2.3091,2.3091,2.3091,2.3091,2.3091,2.3091,2.3091,2.3091,2.2984,2.2789,2.3003,2.2974,2.2799,2.3013,2.2847,2.2471,2.1999,2.1611,2.1201,2.0986,2.0898,2.084,2.0391,2.0244,2.0166,1.9736,1.9453,1.9202,1.9023,1.8818,1.8603,1.8389,1.8486,1.8603,1.8344,1.813,1.8008,1.8008,1.7686,1.7314,1.71,1.7061,1.6992,1.6746,1.6553,1.6396,1.6396,1.5829,1.5118,1.4277,1.3965,1.3724,1.3535,1.332,1.3271,1.3486,1.3135,1.2993,1.3174,1.3023,1.2905,1.2905,1.2905,1.2905,1.2905,1.2905,1.2905,1.2905,1.2905,1.2905,1.2905,1.2905,1.2905,1.2905,1.2905,1.2905,0.0,0.0,0.0,0.0,0.0,0.0,0.0,0.0,1.9714,1.9346,1.9626,1.9902,1.9684,2.0549,2.162,2.2584,2.389,2.4734,2.466,2.5245,2.5073,2.3407,2.3974,2.4159,2.3204,2.3897,2.4414,2.4414,2.4414,2.4414,2.4414,2.4092,2.3906,2.3906,2.3574,2.3344,2.3344,2.3344,2.3305,2.3218,2.3218,2.3179,2.3091,2.3091,2.3091,2.3091,2.3091,2.3091,2.3091,2.3091,2.2896,2.2637,2.2637,2.2432,2.207,2.1512,2.1317,2.1299,2.085,2.0732,2.0625,2.0185,1.998,1.9853,1.9512,1.9346,1.9219,1.8822,1.9014,1.9209,1.8822,1.8724,1.8705,1.8617,1.8344,1.8018,1.7598,1.75,1.7402,1.7019,1.6882,1.6824,1.6824,1.6755,1.6287,1.5098,1.4582,1.4289,1.4133,1.3812,1.3603,1.3516,1.3203,1.2969,1.2915,1.2905,1.2905,1.2905,1.2905,1.2905,1.2905,1.2905,1.2905,1.2905,1.2905,1.2905,1.2905,1.2905,1.2905,1.2905,1.2905,1.2905,2.0509,1.9471,1.8803,1.9123,1.9315,1.9925,0.0,0.0,2.1668,2.2003,2.2378,2.2655,2.2674,2.2264,2.252,2.4447,2.4078,2.3959,2.5344,2.5625,2.5596,2.5402,2.5139,2.499,2.4848,2.4545,2.4414,2.4414,2.4414,2.4414,2.4414,2.4375,2.4346,2.4346,2.4297,2.4268,2.4268,2.4268,2.4092,2.3721,2.3721,2.3516,2.3091,2.3091,2.3091,2.3091,2.3091,2.3091,2.3091,2.3091,2.3062,2.3023,2.3023,2.3003,2.2857,2.2109,2.1816,2.1748,2.1309,2.1122,2.1084,2.0635,2.0225,1.9902,1.9853,1.958,1.9277,1.9228,1.9248,1.9277,1.9228,1.9219,1.9121,1.8695,1.8568,1.8412,1.8037,1.7939,1.793,1.7871,1.7568,1.7314,1.7314,1.6992,1.6385,1.5478,1.5303,1.4962,1.4202,1.4065,1.3899,1.3545,1.3467,1.3281,1.2935,1.2905,1.2905,1.2905,1.2905,1.2905,1.2905,1.2905,1.2905,1.2905,1.2905,1.2905,1.2905,1.2905,1.2905,1.2905,1.2905,1.2905,2.1003,2.0385,2.0034,1.9732,2.041,2.1406,2.2305,2.2568,2.2734,2.3174,2.3594,2.3965,2.4264,2.4034,2.4154,0.0,2.5015,2.4927,2.5616,2.5518,2.5352,2.5352,2.4961,2.4893,2.541,2.5059,2.4902,2.5118,2.5138,2.5138,2.5138,2.4932,2.4795,2.4795,2.4551,2.4414,2.4414,2.417,2.3965,2.3789,2.3525,2.3276,2.3091,2.3091,2.3091,2.3091,2.3091,2.3091,2.3091,2.3091,2.3091,2.3091,2.3091,2.3091,2.3023,2.2471,2.2246,2.2187,2.1768,2.1445,2.1161,2.1016,2.0654,2.0293,2.0293,2.0204,2.0018,1.9727,1.9834,2.0008,1.9717,1.9648,1.9609,1.9387,1.9189,1.8965,1.8789,1.875,1.875,1.875,1.8613,1.8408,1.8154,1.7925,1.7516,1.6689,1.6113,1.5694,1.5303,1.4824,1.4258,1.3574,1.3506,1.334,1.2935,1.2905,1.2905,1.2905,1.2905,1.2905,1.2905,1.2905,1.2905,1.2905,1.2905,1.2905,1.2905,1.2905,1.2905,1.2905,1.2905,1.2905,2.1159,2.0973,2.1081,2.0592,2.1582,2.2783,2.3135,2.3457,2.3828,2.4394,2.456,2.4697,2.5057,2.5116,2.5223,2.5498,2.5615,2.5693,2.5693,2.5352,2.5116,2.5116,2.458,2.4541,2.5255,2.5185,2.5254,2.5654,2.5693,2.5693,2.5693,2.543,2.5254,2.5254,2.4941,2.4727,2.46,2.4414,2.415,2.3789,2.3584,2.3325,2.3091,2.3091,2.3091,2.3091,2.3091,2.3091,2.3091,2.3091,2.3091,2.3091,2.3091,2.3091,2.3062,2.275,2.2685,2.2627,2.2207,2.1846,2.1522,2.1414,2.1191,2.0967,2.0967,2.0889,2.0684,2.0361,2.042,2.0537,2.0176,2.0088,2.0059,1.9941,1.9678,1.9434,1.9307,1.9287,1.9287,1.9287,1.9287,1.9189,1.8831,1.8783,1.8564,1.7842,1.7112,1.6506,1.6144,1.5341,1.4502,1.376,1.3682,1.3467,1.2954,1.2988,1.3032,1.2915,1.2988,1.3023,1.2905,1.3023,1.2998,1.2905,1.2905,1.2905,1.2905,1.2905,1.2905,1.2905,1.2905,1.2905,2.1003,2.0901,2.1308,2.1737,2.249,2.3511,2.4754,2.5047,2.5302,2.6133,2.5635,2.5096,2.5116,2.5116,2.5116,2.5135,2.5449,2.5693,2.5693,2.5352,2.5116,2.5116,2.4326,2.3975,0.0,2.4824,2.5254,2.5654,2.5693,2.5693,2.5693,2.5674,2.5664,2.5664,2.5654,2.5488,2.5096,2.5469,2.5039,2.3799,2.4189,2.3945,2.3091,2.3091,2.3091,2.3091,2.3091,2.3091,2.3091,2.3091,2.3091,2.3091,2.3091,2.3091,2.3091,2.3081,2.3081,2.3013,2.2637,2.248,2.2412,2.2002,2.1855,2.1846,2.1846,2.1553,2.1171,2.1161,2.0889,2.0595,2.0586,2.0586,2.0478,2.0019,1.9902,1.9785,1.9375,1.9287,1.9287,1.9287,1.9287,1.9287,1.9268,1.9268,1.9121,1.8637,1.8223,1.75,1.6251,1.5341,1.4619,1.4133,1.4085,1.3753,1.2974,1.3262,1.3311,1.291,1.3262,1.3311,1.2925,1.3271,1.3301,1.2915,1.2905,1.2905,1.2905,1.2905,1.2905,1.2905,1.2905,1.2905,2.2895,2.3165,2.3381,2.3521,2.4443,2.542,2.585,2.5947,2.5859,2.5624,2.4824,2.4219,2.4219,2.4039,2.403,2.4541,2.501,2.54,2.5645,2.5352,2.4961,2.4668,2.4131,0.0,0.0,0.0,0.0,2.5264,2.5566,2.5693,2.5693,2.6016,2.6035,2.5703,2.6016,2.5957,2.5518,2.5371,2.5078,2.4675,2.4209,2.3848,2.3555,2.3227,2.3091,2.3091,2.3091,2.3091,2.3091,2.3091,2.3091,2.3091,2.3091,2.3091,2.3091,2.3091,2.3091,2.3071,2.2935,2.2701,2.249,2.2344,2.2119,2.1885,2.1885,2.1787,2.167,2.167,2.1553,2.1445,2.1445,2.1445,2.1328,2.0849,2.0752,2.0664,2.0234,2.0175,2.0175,2.0175,2.0175,2.0077,1.9746,1.9707,1.9463,1.8705,1.7759,1.6894,1.6193,1.5557,1.5039,1.4609,1.4561,1.4336,1.376,1.3821,1.3831,1.3695,1.3821,1.3831,1.3695,1.3584,1.3437,1.3301,1.3301,1.3164,1.2905,1.3164,1.3154,1.2915,1.3164,1.3154,2.3984,2.4451,2.4726,2.5033,2.5762,2.6426,2.6572,2.625,2.5762,2.5233,2.4141,2.333,2.333,2.2861,2.2803,2.3809,2.4199,2.4697,2.5567,2.5215,2.4853,2.4883,2.4512,2.4355,0.0,0.0,0.0,2.5283,2.5723,2.5967,2.5967,2.6377,2.6416,2.5986,2.624,2.6103,2.5508,2.5371,2.5225,2.5106,2.4346,2.4014,2.4004,2.3564,2.3369,2.3315,2.3159,2.3091,2.3091,2.3091,2.3091,2.3091,2.3091,2.3091,2.3091,2.3091,2.3091,2.3091,2.3091,2.2916,2.2691,2.2691,2.2549,2.2334,2.2334,2.2227,2.2109,2.2109,2.2002,2.1885,2.1885,2.1885,2.1816,2.1533,2.1307,2.1112,2.0869,2.0713,2.0605,2.0605,2.0605,2.0517,2.0195,1.9893,1.9502,1.8919,1.7783,1.6807,1.6357,1.5781,1.5254,1.4834,1.4922,1.4775,1.4163,1.425,1.427,1.4114,1.425,1.427,1.4114,1.3997,1.3887,1.3714,1.3704,1.3525,1.313,1.3525,1.3516,1.3115,1.3535,1.3584,2.4343,2.4852,2.5419,2.624,2.6455,2.6543,2.6904,2.6035,2.5134,2.5045,2.3717,2.2529,0.0,0.0,2.1672,2.3036,2.3247,2.3793,2.5479,2.5021,2.4853,0.0,0.0,0.0,0.0,0.0,0.0,2.5752,0.0,2.6396,2.6416,2.6826,2.6855,2.6435,2.6426,2.6006,2.5184,2.5537,2.5527,2.5145,2.4658,2.4453,2.4434,2.4014,2.3809,2.3769,2.3305,2.311,2.3091,2.3091,2.3091,2.3091,2.3091,2.3091,2.3091,2.3091,2.3091,2.3091,2.3091,2.3091,2.3091,2.3091,2.3091,2.3091,2.3091,2.2818,2.2549,2.2549,2.2256,2.1953,2.1953,2.1953,2.1943,2.1924,2.1602,2.1249,2.1229,2.0918,2.0644,2.0664,2.0654,2.0635,2.0605,1.9891,1.9287,1.9287,1.8203,1.7227,1.6755,1.5946,1.5283,1.4863,1.5176,1.5078,1.4241,1.458,1.4639,1.4202,1.459,1.4629,1.4192,1.458,1.459,1.4143,1.4143,1.3929,1.3545,1.3938,1.3929,1.3545,1.3948,1.4133,2.6061,2.6516,2.665,2.7258,2.7395,2.7258,2.667,2.6334,2.5768,2.4387,2.3582,2.309,0.0,0.0,0.0,2.3965,2.4431,0.0,2.6064,2.6299,0.0,2.623,0.0,2.6055,2.6055,2.6152,0.0,0.0,2.6504,2.6523,2.6836,2.7266,2.7305,2.6865,2.6855,2.6602,2.6055,2.584,2.5635,2.5557,2.5117,2.4902,2.493,2.4453,2.4082,2.3779,2.3672,2.3437,2.3091,2.3091,2.3091,2.3091,2.3091,2.3091,2.3091,2.3091,2.3091,2.3091,2.3091,2.3091,2.3091,2.3091,2.3091,2.3091,2.3091,2.3023,2.2935,2.2935,2.2857,2.2779,2.2779,2.2779,2.2744,2.2432,2.2275,2.21,2.1787,2.1377,2.1162,2.1484,2.1289,2.0957,2.0664,1.9891,1.9287,1.9287,1.8203,1.7227,1.6755,1.624,1.5762,1.5303,1.5352,1.5322,1.5079,1.5186,1.5205,1.5098,1.5195,1.5205,1.5059,1.4893,1.4727,1.4619,1.4619,1.4404,1.3948,1.4404,1.4394,1.3958,1.4424,1.4416,2.6766,2.735,2.7627,2.7881,2.7519,2.6875,2.6006,2.5551,2.4861,2.3276,2.2827,2.2609,2.2418,2.1786,0.0,0.0,0.0,0.0,2.6191,2.6592,2.6855,0.0,2.706,0.0,2.7207,2.706,2.7119,0.0,2.7187,2.7051,2.7285,2.7705,2.7744,2.7314,2.7119,2.6719,2.6113,2.581,2.5693,2.5684,2.5478,2.5361,2.5342,2.4707,2.4287,2.4043,0.0,2.3315,2.3091,2.3091,2.3208,2.3408,2.3169,2.3325,2.3608,2.3237,2.3218,2.3398,2.3159,2.3091,2.3091,2.3091,2.3091,2.3091,2.3091,2.3091,2.3091,2.3091,2.3091,2.3091,2.3091,2.3091,2.3033,2.2799,2.2646,2.2451,2.2207,2.1826,2.1533,2.1592,2.124,2.0859,2.0644,1.9891,1.9287,1.9287,1.8359,1.75,1.707,1.6496,1.5928,1.5459,1.541,1.541,1.541,1.541,1.541,1.541,1.541,1.541,1.541,1.5186,1.5059,1.5059,1.5059,1.4853,1.4424,1.4853,1.4834,1.4434,1.4863,1.4932,2.706,2.7725,2.8281,2.8223,2.7285,2.6123,2.5174,2.4381,2.3541,2.2164,2.2065,2.2068,2.1732,2.1229,2.1302,2.277,0.0,2.4108,2.6172,2.6523,2.7012,2.8232,2.8057,2.7978,2.834,2.8047,2.7959,2.8271,2.7959,2.7806,2.7806,2.8096,2.8076,2.7598,2.7158,2.6543,2.5693,2.5693,2.5693,2.5693,2.5693,2.5693,2.5664,2.4894,2.4521,2.4375,0.0,0.0,2.3179,2.3179,2.3477,2.3838,2.3413,2.3715,2.4316,2.3471,2.3496,2.3799,2.3266,2.313,2.3169,2.311,2.3091,2.3091,2.3091,2.3091,2.3091,2.3091,2.3091,2.3091,2.3091,2.3091,2.3091,2.3091,2.2818,2.2598,2.2598,2.2305,2.1904,2.1375,2.1006,2.0762,2.0703,1.9893,1.9287,1.9287,1.8555,1.7852,1.7432,1.6692,1.6016,1.5547,1.5449,1.541,1.541,1.541,1.541,1.541,1.541,1.541,1.541,1.541,1.541,1.541,1.541,1.5234,1.4873,1.5234,1.5225,1.4873,1.5244,1.541,2.7861,2.8184,2.8203,2.7914,2.708,2.5977,2.4375,2.426,0.0,2.2259,2.2844,2.3759,2.4103,2.3064,2.2896,2.5109,2.475,2.4834,2.665,2.7217,2.7783,0.0,2.875,2.873,2.8809,0.0,0.0,0.0,0.0,2.8184,2.8184,2.8252,2.793,2.7148,2.6719,2.626,2.5693,2.5693,2.5693,2.5693,2.5693,2.5693,2.5684,2.5528,2.506,2.4414,0.0,0.0,2.3682,2.3682,2.3926,2.4307,2.4228,2.4287,2.4355,2.3857,2.3945,2.4199,2.3364,2.3335,2.3613,2.3218,2.3091,2.3091,2.3091,2.3091,2.3091,2.3091,2.3091,2.3091,2.3091,2.3091,2.3091,2.3091,2.3042,2.2984,2.2984,2.2925,2.2652,2.1924,2.1709,2.1543,2.1142,2.0098,1.9287,1.9287,1.8555,1.7852,1.7432,1.6934,1.6445,1.6026,1.5625,1.541,1.541,1.541,1.541,1.541,1.541,1.541,1.541,1.541,1.541,1.541,1.541,1.5381,1.5303,1.5381,1.5371,1.5303,1.5381,1.541,2.9069,2.8857,2.8193,2.7826,2.668,2.5387,2.4115,0.0,0.0,2.2113,2.2785,2.3561,2.3594,2.3425,2.3741,2.5204,2.4746,2.4977,2.7218,2.7002,0.0,2.9053,2.9479,2.9541,0.0,0.0,0.0,0.0,0.0,2.8291,2.8291,2.8086,2.7773,2.7363,2.6943,2.6611,2.6356,2.6396,2.6396,2.6347,2.6182,2.6074,2.6064,2.5596,2.5156,2.4746,2.4521,0.0,2.4111,2.4111,2.4365,2.4727,2.4502,2.4697,2.4982,2.4365,2.4248,2.4326,2.3691,2.3467,2.3418,2.3159,2.3091,2.3091,2.3091,2.3091,2.3091,2.3091,2.3091,2.3091,2.3091,2.3091,2.3091,2.3091,2.3091,2.3091,2.3091,2.2925,2.2652,2.2295,2.2031,2.1748,2.1268,2.0527,1.9873,1.9648,1.8887,1.839,1.8681,1.8119,1.7341,1.6517,1.6221,1.6073,1.6073,1.5879,1.5752,1.5752,1.5537,1.541,1.541,1.541,1.541,1.541,1.541,1.541,1.541,1.541,1.541,1.541,1.541,1.541,2.9848,2.9232,2.8174,2.7656,2.6339,2.4868,2.3894,2.3067,2.2384,2.1965,2.2537,2.3045,2.2843,2.3378,2.4085,2.4808,2.4596,2.5114,2.7352,2.7074,2.7332,0.0,3.0288,0.0,0.0,0.0,0.0,0.0,0.0,0.0,2.8291,2.7891,2.7718,2.7718,2.7535,2.745,2.745,2.745,2.745,2.7399,2.6831,2.6475,2.6367,2.5674,2.5292,2.5096,2.4707,0.0,0.0,2.456,2.4814,2.5176,2.4834,2.5079,2.5596,2.4853,2.4609,2.4629,2.4102,2.3701,2.3354,2.3266,2.3169,2.3091,2.3091,2.3091,2.3091,2.3091,2.3091,2.3091,2.3091,2.3091,2.3091,2.3091,2.3091,2.3091,2.3091,2.2838,2.2646,2.2646,2.2305,2.1914,2.1522,2.0986,2.0555,2.0391,1.9608,1.9354,2.0117,1.9723,1.8933,1.7834,1.7256,1.6908,1.6728,1.6406,1.6242,1.6242,1.5879,1.5654,1.5557,1.5557,1.5557,1.5557,1.5459,1.5508,1.5693,1.5596,1.5557,1.5557,1.5557,1.5498,2.941,2.8946,2.8096,2.7275,2.6064,2.4789,2.3546,0.0,2.2384,2.1965,2.2537,2.3253,2.3754,2.3595,2.3789,2.5113,2.5417,2.5734,2.6535,2.8369,2.9471,2.9021,0.0,0.0,0.0,0.0,0.0,0.0,0.0,0.0,0.0,2.7891,2.7718,2.7718,2.8411,2.8804,2.8804,2.8804,2.8804,2.8804,2.7552,2.6758,2.6387,2.6309,2.583,2.5116,0.0,0.0,0.0,2.5057,2.5273,2.5625,2.5586,2.5615,2.5625,2.5185,2.5264,2.545,2.4648,2.4336,2.4238,2.3857,2.3467,2.3091,2.3091,2.3091,2.3091,2.3091,2.3091,2.3091,2.3091,2.3091,2.3091,2.3091,2.3091,2.3091,2.3091,2.3062,2.3033,2.3033,2.2744,2.2441,2.2402,2.1377,2.0885,2.1683,2.1136,2.0743,2.1219,2.1632,2.1632,2.1041,1.9114,1.7575,1.676,1.6668,1.6638,1.6638,1.6599,1.6426,1.6046,1.6036,1.6036,1.6036,1.5615,1.5781,1.658,1.6201,1.6036,1.6036,1.6036,1.5821,2.9781,2.926,2.8027,2.6914,2.5459,2.4192,2.3697,2.2597,2.1879,2.2504,2.2884,2.317,2.3409,2.3876,2.4305,2.4613,2.4508,2.4948,2.6639,2.6887,2.7533,2.9306,3.0743,0.0,0.0,0.0,0.0,0.0,0.0,0.0,0.0,2.9538,2.9373,3.0444,3.0589,3.0718,3.0952,3.0168,2.9772,2.9772,2.8173,2.7187,2.6758,2.6504,2.6055,2.5469,0.0,0.0,0.0,2.5469,2.5576,2.5693,2.5693,2.5693,2.5761,2.636,2.6513,2.639,2.6023,2.5752,2.5355,2.4187,2.3672,2.3486,2.3169,2.3091,2.3091,2.3091,2.3091,2.3091,2.3091,2.3091,2.3091,2.3091,2.3091,2.3091,2.3091,2.3091,2.3091,2.3091,2.2955,2.2769,2.2559,2.237,2.2047,2.1607,2.184,2.2088,2.2157,2.2639,2.2789,2.2243,2.0889,1.9684,1.8821,1.8187,1.7636,1.7151,1.7362,1.7193,1.6506,1.7469,1.7761,1.7267,1.7052,1.7144,1.7482,1.6792,1.6465,1.6465,1.6465,1.623,2.9737,2.9579,2.8513,2.7486,2.5757,2.4258,2.426,2.2759,2.1675,2.2867,2.3108,2.3108,2.3108,2.4036,2.4607,2.4036,2.4199,2.4815,2.6008,2.5956,2.6615,0.0,0.0,0.0,0.0,0.0,0.0,0.0,0.0,0.0,0.0,3.1967,3.1444,3.2269,3.2415,3.2651,3.2944,3.1988,3.1531,3.148,2.9848,2.8748,2.8116,2.7472,2.6833,2.6245,0.0,0.0,0.0,2.6245,2.6476,2.6791,2.6791,2.6791,2.6887,2.7814,2.7918,2.7607,2.7468,2.7246,2.6836,2.5458,2.4921,2.4757,2.4431,2.3747,2.3091,2.3091,2.3343,2.3507,2.3178,2.3343,2.3507,2.3178,2.3091,2.3091,2.3091,2.3091,2.3091,2.3091,2.3091,2.3003,2.2744,2.2892,2.292,2.2544,2.2934,2.343,2.378,2.4159,2.4177,2.3611,2.2873,2.1829,2.0375,1.9598,1.8945,1.8393,1.8617,1.8426,1.7676,1.8831,1.9196,1.8586,1.8446,1.8522,1.876,1.8009,1.7644,1.7644,1.7644,1.7359,2.8951,2.9634,2.9753,2.93,2.7278,2.5373,2.5373,2.3461,2.1959,2.2914,2.3108,2.3108,2.3108,2.4036,2.4471,2.3456,2.5075,2.5896,2.4249,2.6343,0.0,0.0,0.0,0.0,0.0,0.0,0.0,0.0,0.0,0.0,0.0,3.5066,3.3712,3.2331,3.3662,3.4374,3.4385,3.4385,3.4337,3.4337,3.2944,3.1766,3.0838,2.9573,2.845,0.0,0.0,0.0,0.0,2.7589,2.8272,2.9361,2.9361,2.9361,2.9361,2.9361,2.9361,2.9283,2.8757,2.8679,2.8689,2.8041,2.7603,2.7254,2.7254,2.5305,2.3091,2.3091,2.392,2.45,2.3387,2.392,2.45,2.3387,2.3091,2.3091,2.3091,2.3091,2.3091,2.3091,2.3091,2.3091,2.3091,2.2783,2.3188,2.5257,2.4753,2.4745,2.626,2.6487,2.6248,2.5636,2.5089,2.3628,2.0841,2.059,2.0579,2.059,2.0579,2.0355,1.9893,1.9871,1.9902,1.9871,1.949,1.9696,2.0568,2.0106,1.9871,1.9871,1.9871,1.9385,2.625,2.6823,2.6778,2.5637,2.4596,2.3638,2.2888,2.2256,2.1956,2.2459,2.2844,2.3108,2.3108,2.3722,2.4174,2.3965,2.5016,2.571,2.53,0.0,0.0,0.0,0.0,0.0,0.0,0.0,0.0,0.0,0.0,0.0,0.0,3.6013,3.5559,3.5102,3.5511,3.5763,3.5763,3.4884,3.4385,3.4385,3.2944,3.1827,3.0886,3.05,0.0,0.0,0.0,0.0,0.0,2.8819,2.9039,2.9407,2.9407,2.9407,2.9498,3.0316,3.0631,3.0608,3.0444,3.0386,3.0215,2.8911,2.8442,2.8184,2.7498,2.6402,2.5431,2.5431,2.5136,2.4702,2.4372,2.4542,2.4702,2.4339,2.4253,2.4253,2.4253,2.3627,2.3343,2.4135,2.4253,2.451,2.5305,2.4992,2.4628,2.4639,2.5301,2.5561,2.4989,2.6164,2.6688,2.5699,2.5448,2.4608,2.2733,2.19,2.1227,2.0655,2.1164,2.1158,2.0419,2.1481,2.1842,2.1276,2.1155,2.1206,2.1491,2.0751,2.0387,2.0376,2.0059,1.9534,2.432,2.5247,2.5451,2.4584,2.3709,2.292,2.2265,2.1777,2.1626,2.218,2.2556,2.2857,2.3058,2.3572,2.3951,2.3893,2.4684,2.5345,0.0,0.0,0.0,0.0,0.0,0.0,0.0,0.0,0.0,0.0,0.0,0.0,0.0,0.0,3.6144,3.6405,3.6405,3.6304,3.6056,3.5473,3.492,3.4531,3.3824,3.2968,3.2031,3.1563,0.0,0.0,0.0,0.0,0.0,3.009,3.0361,3.0777,3.0777,3.0777,3.0866,3.1645,3.1921,3.1884,3.1678,3.1739,3.1692,3.0486,3.0102,2.995,2.9092,2.79,2.676,2.6569,2.6429,2.6214,2.5589,2.5744,2.5942,2.5546,2.5462,2.5462,2.5462,2.4882,2.4595,2.5294,2.5462,2.5672,2.6389,2.6173,2.588,2.5706,2.6311,2.6517,2.5749,2.6614,2.6964,2.6047,2.5724,2.5174,2.407,2.3198,2.2342,2.1585,2.2063,2.2125,2.1585,2.2567,2.2854,2.2353,2.2353,2.2353,2.2353,2.1803,2.1542,2.1542,2.1244,2.081,0.0,2.4456,2.5297,2.5247,2.4117,2.2957,2.2882,2.1769,0.0,2.1995,2.2259,2.2443,2.3007,2.3572,2.3896,2.3568,2.434,2.5034,0.0,0.0,0.0,0.0,0.0,0.0,0.0,0.0,0.0,0.0,0.0,0.0,0.0,0.0,3.5717,3.6279,3.6292,3.6019,3.5508,3.6056,3.5768,3.4726,3.5194,3.4881,3.3853,3.2734,0.0,0.0,0.0,0.0,0.0,3.1356,3.2052,3.3124,3.3124,3.3124,3.3124,3.3124,3.3124,3.3006,3.2466,3.2629,3.298,3.2403,3.2215,3.2102,3.1549,2.9623,2.7504,2.6998,2.783,2.8557,2.7053,2.7395,2.7844,2.6842,2.6595,2.6595,2.6595,2.6554,2.6513,2.6607,2.6595,2.6648,2.673,2.6689,2.6964,2.7964,2.768,2.7539,2.7989,2.7646,2.7165,2.6612,2.6034,2.5435,2.4888,2.4343,2.3753,2.3145,2.3108,2.3108,2.3108,2.3108,2.3108,2.3108,2.3108,2.3108,2.3108,2.3108,2.3108,2.3108,2.3108,2.2807,1.9986,0.0,2.2388,2.1948,2.1845,2.1644,0.0,2.0953,2.1282,2.1119,2.1732,2.2443,2.3007,2.3572,2.438,2.5555,2.6268,2.6712,0.0,0.0,0.0,0.0,0.0,0.0,0.0,0.0,0.0,0.0,0.0,0.0,0.0,0.0,3.4931,3.5102,3.5115,3.5253,3.5495,3.5621,3.5345,3.468,3.4806,3.4562,3.3897,3.3619,0.0,0.0,0.0,0.0,3.2655,3.2655,3.284,3.3124,3.3124,3.3124,3.3124,3.3124,3.3124,3.3056,3.2918,3.2968,3.298,3.2403,3.2215,3.2102,3.1549,3.0947,3.04,3.0266,2.96,2.8804,2.8427,2.8231,2.8056,2.7763,2.7723,2.7723,2.7723,2.7087,2.6719,2.7562,2.7723,2.7976,2.887,2.8279,2.7804,2.8044,2.7989,2.7806,2.7512,2.7743,2.7708,2.719,2.6625,2.6059,2.546,2.4544,2.3753,2.3145,2.3108,2.3108,2.3108,2.3108,2.3108,2.3108,2.3108,2.3108,2.3108,2.3108,2.3108,2.3108,2.3108,2.2807,1.8933,2.0049,2.1069,2.0767,2.0918,2.0981,2.0365,2.049,2.0715,2.0691,2.137,2.2184,2.2957,2.3572,2.4544,2.6223,2.6738,0.0,0.0,0.0,0.0,0.0,0.0,0.0,0.0,0.0,0.0,0.0,0.0,0.0,0.0,0.0,3.4462,3.4668,3.4474,3.4487,3.4743,3.4994,3.4718,3.3972,3.4223,3.406,3.352,3.352,0.0,0.0,0.0,0.0,3.3124,3.3124,3.3124,3.3124,3.3124,3.3124,3.3124,3.3124,3.3124,3.3124,3.3124,3.3124,3.3074,3.2717,3.2604,3.2554,3.2252,3.2164,3.2051,3.1537,3.0914,3.035,3.0106,2.9654,2.9264,2.9264,2.908,2.8897,2.8897,2.841,2.8171,2.8779,2.8897,2.9067,2.9702,2.9275,2.8897,2.8897,2.8897,2.8702,2.8114,2.8089,2.7896,2.7379,2.6826,2.626,2.5649,2.5071,2.4393,2.3547,2.3246,2.3108,2.3108,2.3108,2.3108,2.3108,2.3108,2.3108,2.3108,2.3108,2.3108,2.3108,2.3108,2.2945,1.8945,2.0075,2.0993,2.0641,2.0691,2.0792,2.0717,2.0377,2.02,2.0717,2.1257,2.1945,2.3032,2.3803,0.0,2.6361,0.0,0.0,0.0,0.0,0.0,0.0,0.0,0.0,0.0,0.0,0.0,0.0,0.0,0.0,0.0,0.0,0.0,3.4462,3.401,3.3771,3.3771,3.4324,3.4085,3.3124,3.3558,3.3533,3.3124,3.298,3.2943,0.0,0.0,0.0,3.2943,3.2943,3.3006,3.3124,3.3124,3.3124,3.3111,3.298,3.3006,3.3111,3.2968,3.3006,3.3056,3.2923,3.2973,3.3056,3.2968,3.3048,3.2923,3.1913,3.1913,3.2102,3.1637,3.1122,3.0708,3.0633,3.0256,2.9892,2.9817,2.9792,2.9792,2.9792,2.9792,2.9792,2.9792,2.9792,2.9792,2.9792,2.9792,2.9616,2.9088,2.8574,2.8021,2.7469,2.6952,2.6386,2.5774,2.5649,2.5209,2.4305,2.3597,2.3233,2.3233,2.3233,2.3283,2.3358,2.3358,2.3321,2.3233,2.3233,2.3233,2.3233,2.3233,2.3233,1.9409,2.1152,2.2268,2.0413,2.0652,2.127,2.0792,2.0981,2.1282,2.1343,2.1794,2.2535,2.3653,2.4682,2.5749,0.0,0.0,0.0,0.0,0.0,0.0,0.0,0.0,0.0,0.0,0.0,0.0,0.0,0.0,0.0,0.0,0.0,0.0,3.3319,3.3257,3.3206,3.3206,3.3746,3.3709,3.3124,3.3156,3.3156,3.3056,3.2566,3.234,0.0,0.0,3.1913,3.234,3.234,3.2641,3.3124,3.3124,3.3124,3.3061,3.2528,3.2654,3.3048,3.2516,3.2667,3.296,3.1964,3.229,3.298,3.2491,3.2692,3.3043,3.291,3.2528,3.219,3.2102,3.1687,3.116,3.0721,3.0557,3.0357,2.9892,2.9792,2.9792,2.9792,2.9792,2.9792,2.9792,2.9792,2.9792,2.9792,2.9792,2.9767,2.9666,2.9151,2.8549,2.8034,2.7494,2.6964,2.6411,2.5875,2.5523,2.536,2.4418,2.3866,2.3866,2.3866,2.4092,2.4525,2.4525,2.433,2.3866,2.3866,2.3866,2.3866,2.3866,2.3866,1.9221,2.0564,2.1631,2.0891,2.2008,2.3062,2.2196,2.2196,2.2343,2.2343,2.2824,2.3565,0.0,0.0,2.6728,0.0,0.0,0.0,0.0,0.0,0.0,0.0,0.0,0.0,0.0,0.0,0.0,0.0,0.0,0.0,0.0,0.0,0.0,0.0,3.2767,3.2604,3.2604,3.2566,3.2717,3.3124,3.2754,3.2604,3.2591,3.2026,3.1763,3.175,0.0,3.1537,3.1788,3.2089,3.219,3.2202,3.2491,3.2604,3.2616,3.2667,3.2855,3.3043,3.2767,3.2855,3.2993,3.2466,3.2654,3.3011,3.239,3.2616,3.3048,3.2704,3.2641,3.2679,3.2679,3.2039,3.1336,3.1085,3.0595,3.0105,2.9842,2.9792,2.9792,2.9792,2.9792,2.9792,2.9792,2.9792,2.9792,2.9792,2.9792,2.9792,2.9792,2.9289,2.8675,2.816,2.7607,2.709,2.6549,2.6248,2.5812,2.5222,2.4707,2.4443,2.4443,2.4443,2.4537,2.4788,2.4788,2.4662,2.4443,2.4443,2.4443,2.4443,2.4443,2.4443,1.9346,2.0213,2.1144,2.1446,2.2874,2.4073,2.3609,2.3496,2.3572,2.3822,2.4268,0.0,0.0,2.6713,0.0,0.0,0.0,0.0,0.0,0.0,0.0,0.0,0.0,0.0,0.0,0.0,0.0,0.0,0.0,0.0,0.0,0.0,0.0,0.0,3.2315,3.2026,3.2026,3.1599,3.1825,3.2679,3.2227,3.2026,3.2001,3.1461,3.121,3.121,3.121,3.1273,3.1436,3.1989,3.1964,3.1637,3.2202,3.2328,3.2265,3.2717,3.288,3.288,3.288,3.2968,3.3099,3.2918,3.288,3.2817,3.2503,3.2629,3.2805,3.2503,3.2729,3.3124,3.3124,3.2428,3.1712,3.1449,3.0758,3.0093,2.9842,2.9792,2.9792,2.9792,2.9792,2.9792,2.9792,2.9792,2.9792,2.9792,2.9792,2.9792,2.9792,2.9402,2.8875,2.836,2.7921,2.7394,2.6738,2.6562,2.6135,2.5259,2.4938,2.4838,2.4996,2.5008,2.5059,2.5209,2.5209,2.5146,2.5008,2.5008,2.5008,2.5008,2.5008,2.5008,2.0302,2.1355,2.2083,2.1606,2.1995,2.2887,2.4324,2.4675,2.4996,2.6047,2.6285,0.0,0.0,2.8473,0.0,0.0,0.0,0.0,0.0,0.0,0.0,0.0,0.0,0.0,0.0,0.0,0.0,0.0,0.0,0.0,0.0,0.0,0.0,0.0,0.0,3.1449,3.1449,3.1411,3.1436,3.1512,3.1474,3.1449,3.1436,3.0909,3.067,3.067,3.067,3.0947,3.1436,3.1989,3.219,3.2202,3.2792,3.2692,3.2227,3.2252,3.2277,3.2277,3.2277,3.2629,3.2993,3.2453,3.2277,3.2365,3.2867,3.2667,3.2378,3.288,3.3086,3.3124,3.3124,3.3061,3.2692,3.1637,3.1336,3.0997,3.0005,2.9792,2.9792,2.9792,2.9792,2.9792,2.9792,2.9792,2.9792,2.9792,2.9792,2.9792,2.9792,2.9754,2.9515,2.89,2.88,2.8386,2.7318,2.6788,2.6461,2.6386,2.5385,2.5034,2.5523,2.5536,2.5799,2.6361,2.6373,2.6109,2.5536,2.5536,2.5536,2.5536,2.5536,2.5536,1.9623,2.0702,2.1744,2.1543,2.2159,2.3233,2.4921,2.585,2.6666,2.777,2.8285,0.0,0.0,0.0,0.0,0.0,0.0,0.0,0.0,0.0,0.0,0.0,0.0,0.0,0.0,0.0,0.0,0.0,0.0,0.0,0.0,0.0,0.0,0.0,0.0,3.0909,3.0909,3.057,3.0394,3.0394,3.0746,3.0909,3.0884,3.0344,3.0105,3.0105,3.0105,3.0218,3.0444,3.0984,3.1022,3.0758,3.1323,3.1411,3.126,3.1587,3.17,3.175,3.2089,3.2353,3.2503,3.2277,3.2453,3.2654,3.2177,3.2365,3.2717,3.2579,3.2805,3.2993,3.2641,3.229,3.1838,3.1085,3.0645,3.0281,2.988,2.9792,2.9792,2.9792,2.9792,2.9792,2.9792,2.9792,2.9792,2.9792,2.9792,2.9792,2.9792,2.9792,2.9566,2.895,2.8587,2.8247,2.7821,2.7329,2.7002,2.7002,2.6298,2.5959,2.616,2.6172,2.6273,2.6499,2.6499,2.6386,2.6172,2.6172,2.6172,2.6172,2.6172,2.6172,1.8882,1.9723,2.079,2.1169,2.2184,2.3634,2.5674,2.6728,2.7745,2.9365,3.0018,3.0244,3.008,0.0,0.0,0.0,0.0,0.0,0.0,0.0,0.0,0.0,0.0,0.0,0.0,0.0,0.0,0.0,0.0,0.0,0.0,0.0,0.0,0.0,0.0,3.0357,3.0357,2.998,2.9792,2.9792,3.0181,3.0357,3.0344,2.9967,2.9792,2.9804,2.998,3.0055,3.0093,3.0633,3.0633,3.0306,3.0344,3.0557,3.0884,3.1072,3.1248,3.1474,3.2026,3.2215,3.2215,3.2215,3.2365,3.2428,3.1838,3.2064,3.2528,3.2503,3.2641,3.2667,3.2102,3.18,3.1524,3.0984,3.0444,3.0005,2.9829,2.9792,2.9792,2.9792,2.9792,2.9792,2.9792,2.9792,2.9792,2.9792,2.9792,2.9792,2.9792,2.9792,2.9641,2.9239,2.8699,2.836,2.836,2.7858,2.7544,2.7544,2.7065,2.6675,2.6499,2.6499,2.6499,2.6499,2.6499,2.6499,2.6499,2.6499,2.6499,2.6499,2.6499,2.6499,1.8355,1.8594,1.9284,2.0427,2.1933,2.3847,2.6666,2.7341,2.8072,3.0834,3.1386,3.1235,3.0721,0.0,0.0,0.0,0.0,0.0,0.0,0.0,0.0,0.0,0.0,0.0,0.0,0.0,0.0,0.0,0.0,0.0,0.0,0.0,0.0,0.0,0.0,0.0,2.9792,2.9792,2.9792,2.9792,2.9792,2.9792,2.9792,2.9792,2.9792,2.9829,3.0369,3.0608,3.0645,3.1173,3.1373,3.1273,3.0206,3.0444,3.1311,3.0796,3.0934,3.1449,3.2001,3.219,3.2202,3.2202,3.1838,3.1499,3.2051,3.1825,3.1625,3.2797,3.2654,3.2077,3.1537,3.1788,3.2051,3.1499,3.0984,3.0457,2.9905,2.9792,2.9792,2.9792,2.9792,2.9792,2.9792,2.9792,2.9792,2.9792,2.9792,2.9792,2.9792,2.9792,2.9792,2.9792,2.9289,2.89,2.89,2.8436,2.8109,2.8109,2.7595,2.7077,2.6524,2.6499,2.6499,2.6499,2.6499,2.6499,2.6499,2.6499,2.6499,2.6499,2.6499,2.6499,1.8355,1.9171,2.0465,2.1543,2.3088,2.5013,2.7772,2.8448,2.9114,3.1474,3.1662,3.1461,3.17,0.0,0.0,0.0,0.0,0.0,0.0,0.0,0.0,0.0,0.0,0.0,0.0,0.0,0.0,0.0,0.0,0.0,0.0,0.0,0.0,0.0,0.0,0.0,2.9792,2.9792,2.9792,2.9792,2.9792,2.9792,2.9792,2.9792,2.9792,2.9804,2.9967,3.0043,3.0043,3.0206,3.0269,3.0231,2.9917,2.998,3.0244,3.0093,3.0131,3.0344,3.0896,3.1085,3.1148,3.1512,3.1524,3.1499,3.2051,3.1825,3.1537,3.2265,3.2064,3.1599,3.1436,3.1235,3.0947,3.0394,3.0143,2.9993,2.9829,2.9792,2.9792,2.9792,2.9792,2.9792,2.9792,2.9792,2.9792,2.9792,2.9792,2.9792,2.9792,2.9792,2.9792,2.9792,2.9641,2.9528,2.9528,2.9013,2.865,2.865,2.816,2.7607,2.709,2.67,2.6499,2.6499,2.6499,2.6499,2.6499,2.6889,2.6876,2.6499,2.6889,2.6864,1.8242,1.9233,2.0717,2.2246,2.4067,2.6201,2.8925,0.0,0.0,0.0,3.2102,3.175,3.1863,0.0,0.0,0.0,0.0,0.0,0.0,0.0,0.0,0.0,0.0,0.0,0.0,0.0,0.0,0.0,0.0,0.0,0.0,0.0,0.0,0.0,0.0,2.9792,2.9792,2.9792,2.9792,2.9792,2.9792,2.9792,2.9792,2.9792,2.9792,2.9792,2.9792,2.9792,2.9792,2.9792,2.9792,2.9792,2.9792,2.9792,2.9792,2.9792,2.9792,2.988,3.0419,3.062,3.067,3.0984,3.1085,3.1148,3.1474,3.1348,3.1198,3.1738,3.1499,3.1085,3.1085,3.0683,3.0256,3.0143,2.9955,2.9792,2.9792,2.9792,2.9792,2.9792,2.9792,2.9792,2.9792,2.9792,2.9792,2.9792,2.9792,2.9792,2.9792,2.9792,2.9792,2.9792,2.9792,2.9792,2.9792,2.9478,2.9277,2.9277,2.875,2.8285,2.7946,2.7228,2.6826,2.6826,2.6612,2.6713,2.7153,2.704,2.7052,2.714,2.704,2.6927,1.8204,1.9133,2.0501,2.2757,2.5121,0.0,3.0043,3.1813,3.2973,3.2973,0.0,3.1989,0.0,0.0,0.0,0.0,0.0,0.0,0.0,0.0,0.0,0.0,0.0,0.0,0.0,0.0,0.0,0.0,0.0,0.0,0.0,0.0,0.0,0.0,2.9792,2.9792,2.9792,2.9792,2.9792,0.0,2.9792,2.9792,2.9792,2.9792,2.9792,2.9792,2.9792,2.9792,2.9792,2.9792,2.9792,2.9792,2.9792,2.9792,2.9792,2.9792,2.9792,2.9867,3.0369,3.0545,3.0557,3.0595,3.0583,3.0557,3.0658,3.062,3.0658,3.1173,3.0947,3.0545,3.0545,3.0168,2.9917,3.0419,3.0156,2.9792,2.9792,2.9792,2.9792,2.9792,2.9792,2.9792,2.9792,2.9792,2.9792,2.9792,2.9792,2.9792,2.9792,2.9792,2.9792,2.9792,2.9792,2.9792,2.9792,2.9792,2.9792,2.9792,2.9302,2.895,2.8888,2.7921,2.7356,2.7356,2.6901,2.714,2.8109,2.719,2.7168,2.8084,2.7115,2.6889,1.9309,2.0275,2.1757,2.4406,2.7406,2.988,3.0482,3.1198,3.175,3.175,3.165,0.0,0.0,0.0,0.0,0.0,0.0,0.0,0.0,0.0,0.0,0.0,0.0,0.0,0.0,0.0,0.0,0.0,0.0,0.0,0.0,0.0,0.0,2.9792,2.9792,2.9792,2.9792,2.9792,2.9792,0.0,2.9792,2.9792,2.9792,2.9792,2.9792,2.9792,2.9792,2.9792,2.9792,2.9792,2.9792,2.9792,2.9792,2.9792,2.9792,2.9792,2.9792,2.9817,2.993,2.9967,3.0043,3.047,3.0319,3.0131,3.0972,3.0633,3.008,3.0633,3.0394,2.9967,2.9967,2.988,2.9829,2.9942,2.988,2.9792,2.9792,2.9792,2.9792,2.9792,2.9792,2.9792,2.9792,2.9792,2.9792,2.9792,2.9792,2.9792,2.9792,2.9792,2.9792,2.9792,2.9792,2.9792,2.9792,2.9792,2.9792,2.9792,2.9679,2.9402,2.8913,2.8285,2.7921,2.7921,2.7808,2.7871,2.8109,2.8298,2.8298,2.8097,2.7858,2.7582,1.9585,2.0627,2.2284,2.5586,0.0,2.9916,3.0495,3.062,3.0696,3.0959,0.0,0.0,0.0,0.0,0.0,0.0,0.0,0.0,0.0,0.0,0.0,0.0,0.0,0.0,0.0,0.0,0.0,0.0,0.0,0.0,0.0,2.8988,2.8988,2.8988,2.8988,2.8988,2.8988,2.9252,2.9377,2.939,2.9666,2.9792,2.9792,2.9792,2.9792,2.9792,2.9792,2.9792,2.9792,2.9792,2.9792,2.9792,2.9792,2.9792,2.9792,2.9792,2.9792,2.9792,2.9792,2.9792,2.9842,3.0131,3.003,2.9892,3.0457,3.0231,2.9854,3.0143,3.0018,2.9792,2.9792,2.9792,2.9792,2.9792,2.9792,2.9792,2.9792,2.9792,2.9792,2.9792,2.9792,2.9792,2.9792,2.9792,2.9792,2.9792,2.9792,2.9792,2.9792,2.9792,2.9792,2.9792,2.9792,2.9792,2.9792,2.9792,2.9792,2.9792,2.9792,2.9654,2.9352,2.9063,2.8787,2.8511,2.8235,2.8373,2.8913,2.8662,2.8662,2.89,2.836,2.8097,1.9851,2.0985,2.2761,2.6298,2.7896,0.0,2.9942,2.9905,2.9767,0.0,0.0,0.0,0.0,0.0,0.0,0.0,0.0,0.0,0.0,0.0,0.0,0.0,0.0,0.0,0.0,0.0,0.0,0.0,0.0,0.0,2.8109,2.8109,2.8109,2.8109,2.8109,2.8109,2.8109,2.8561,2.88,2.89,2.9515,2.9792,2.9792,2.9792,2.9792,2.9792,2.9792,2.9792,2.9792,2.9792,2.9792,2.9792,2.9792,2.9792,2.9792,2.9792,2.9792,2.9792,2.9792,2.9792,2.9792,2.9792,2.9792,2.9792,2.9792,2.9792,2.9792,2.9792,2.9792,2.9792,2.9792,2.9792,2.9792,2.9792,2.9792,2.9792,2.9792,2.9792,2.9792,2.9792,2.9792,2.9792,2.9792,2.9792,2.9792,2.9792,2.9792,2.9792,2.9792,2.9792,2.9792,2.9792,2.9792,2.9792,2.9792,2.9792,2.9792,2.9792,2.9792,2.9792,2.9792,2.9792,2.9566,2.9089,2.8637,2.8863,2.9792,2.885,2.8875,2.9767,2.8725,2.8499,2.1184,2.2501,2.413,0.0,2.7065,2.767,0.0,0.0,2.9026,0.0,0.0,0.0,0.0,0.0,0.0,0.0,0.0,0.0,0.0,0.0,0.0,0.0,0.0,0.0,0.0,0.0,0.0,0.0,0.0,0.0,2.8109,2.8109,2.8109,2.8109,2.8109,2.8109,2.8109,2.8185,2.8461,2.89,2.9515,2.9792,2.9792,2.9792,2.9792,2.9792,2.9792,2.9792,2.9792,2.9792,2.9792,2.9792,2.9792,2.9792,2.9792,2.9792,2.9792,2.9792,2.9792,2.9792,2.9792,2.9792,2.9792,2.9792,2.9792,2.9792,2.9792,2.9792,2.9792,2.9792,2.9792,2.9792,2.9792,2.9792,2.9792,2.9792,2.9792,2.9792,2.9792,2.9792,2.9792,2.9792,2.9792,2.9792,2.9792,2.9792,2.9792,2.9792,2.9792,2.9792,2.9792,2.9792,2.9792,2.9792,2.9792,2.9792,2.9792,2.9792,2.9792,2.9792,2.9792,2.9792,2.9754,2.9679,2.9603,2.9641,2.9792,2.9641,2.9641,2.9779,2.9126,2.8813,2.1546,2.2082,2.2987,0.0,2.5498,2.6214,2.7381,0.0,0.0,0.0,0.0,0.0,0.0,0.0,0.0,0.0,0.0,0.0,0.0,0.0,0.0,0.0,0.0,0.0,0.0,0.0,0.0,0.0,0.0,2.718,2.718,2.718,2.718,2.718,2.718,2.718,2.718,2.7494,2.7921,2.8461,2.8725,2.9013,2.9315,2.9315,2.9478,2.9792,2.9792,2.9792,2.9792,2.9792,2.9792,2.9792,2.9792,2.9792,2.9792,2.9792,2.9792,2.9792,2.9792,2.9792,2.9792,2.9792,2.9792,2.9792,2.9792,2.9792,2.9792,2.9792,2.9792,2.9792,2.9792,2.9792,2.9792,2.9792,2.9792,2.9792,2.9792,2.9792,2.9792,2.9792,2.9792,2.9792,2.9792,2.9792,2.9792,2.9792,2.9792,2.9792,2.9792,2.9792,2.9792,2.9792,2.9792,2.9792,2.9792,2.9792,2.9792,2.9792,2.9792,2.9792,2.9792,2.9792,2.9792,2.9792,2.9792,2.9792,2.9792,2.9792,2.9792,2.9779,2.9528,2.9415,2.1487,0.0,2.183,2.3072,2.3879,2.4725,0.0,0.0,0.0,0.0,0.0,0.0,0.0,0.0,0.0,0.0,0.0,0.0,0.0,0.0,0.0,0.0,0.0,0.0,0.0,0.0,0.0,0.0,0.0,2.6273,2.6273,2.6273,2.6336,2.6487,2.6348,2.6348,2.6499,2.704,2.7494,2.7896,2.8034,2.8323,2.8687,2.8687,2.895,2.9377,2.9666,2.9792,2.9792,2.9792,2.9792,2.9792,2.9792,2.9792,2.9792,2.9792,2.9792,2.9792,2.9792,2.9792,2.9792,2.9792,2.9792,2.9792,2.9792,2.9792,2.9792,2.9792,2.9792,2.9792,2.9792,2.9792,2.9792,2.9792,2.9792,2.9792,2.9792,2.9792,2.9792,2.9792,2.9792,2.9792,2.9792,2.9792,2.9792,2.9792,2.9792,2.9792,2.9792,2.9792,2.9792,2.9792,2.9792,2.9792,2.9792,2.9792,2.9792,2.9792,2.9792,2.9792,2.9792,2.9792,2.9792,2.9792,2.9792,2.9792,2.9792,2.9792,2.9792,2.9792,2.9792,2.9792,0.0,2.122,0.0,2.1622,2.2435,0.0,0.0,0.0,0.0,0.0,0.0,0.0,0.0,0.0,0.0,0.0,0.0,0.0,0.0,0.0,0.0,0.0,0.0,0.0,0.0,0.0,0.0,0.0,0.0,2.5636,2.5636,2.5636,2.5921,2.6474,2.5959,2.59,2.6487,2.704,2.7293,2.7331,2.7858,2.8122,2.8147,2.8147,2.816,2.8247,2.9327,2.9792,2.9792,2.9792,2.9792,2.9792,2.9792,2.9792,2.9792,2.9792,2.9792,2.9792,2.9792,2.9792,2.9792,2.9792,2.9792,2.9792,2.9792,2.9792,2.9792,2.9792,2.9792,2.9792,2.9792,2.9792,2.9792,2.9792,2.9792,2.9792,2.9792,2.9792,2.9792,2.9792,2.9792,2.9792,2.9792,2.9792,2.9792,2.9792,2.9792,2.9792,2.9792,2.9792,2.9792,2.9792,2.9792,2.9792,2.9792,2.9792,2.9792,2.9792,2.9792,2.9792,2.9792,2.9792,2.9792,2.9792,2.9792,2.9792,2.9792,2.9792,2.9792,2.9792,2.9792,2.9792,0.0,0.0,0.0,2.1471,2.1559,2.1882,0.0,0.0,0.0,0.0,0.0,0.0,0.0,0.0,0.0,0.0,0.0,0.0,0.0,0.0,0.0,0.0,0.0,0.0,0.0,0.0,0.0,0.0,0.0,0.0,2.5096,2.5096,2.5347,2.5887,2.5385,2.536,2.5933,2.6101,2.6389,2.6788,2.6989,2.7231,2.7582,2.7582,2.777,2.8134,2.8536,2.8913,2.9239,2.9239,2.9453,2.9792,2.9792,2.9792,2.9792,2.9792,2.9792,2.9792,2.9792,2.9792,2.9792,2.9792,2.9792,2.9792,2.9792,2.9792,2.9792,2.9792,2.9792,2.9792,2.9792,2.9792,2.9792,2.9792,2.9792,2.9792,2.9792,2.9792,2.9792,2.9792,2.9792,2.9792,2.9792,2.9792,2.9792,2.9792,2.9792,2.9792,2.9792,2.9792,2.9792,2.9792,2.9792,2.9792,2.9792,2.9792,2.9792,2.9792,2.9792,2.9792,2.9792,2.9792,2.9792,2.9792,2.9792,2.9792,2.9792,2.9792,2.9792,2.9792,2.9792,2.9792,2.2777,2.2081,0.0,0.0,0.0,2.1331,0.0,0.0,0.0,0.0,0.0,0.0,0.0,0.0,0.0,0.0,0.0,0.0,0.0,0.0,0.0,0.0,0.0,0.0,0.0,0.0,0.0,0.0,0.0,0.0,2.4544,2.4544,2.4707,2.5046,2.4908,2.5071,2.5586,2.5423,2.5711,2.6499,2.6298,2.6499,2.704,2.704,2.7241,2.7557,2.7557,2.7971,2.8612,2.8612,2.8988,2.9503,2.9503,2.9616,2.9792,2.9792,2.9792,2.9792,2.9792,2.9792,2.9792,2.9792,2.9792,2.9869,3.0177,3.0279,3.0279,3.0279,3.0279,3.0216,2.9895,2.9792,2.9792,2.9792,2.9792,2.9792,2.9792,2.9792,2.9792,2.9792,2.9792,2.9792,2.9792,2.9792,2.9792,2.9792,2.9792,2.9792,2.9792,2.9792,2.9792,2.9792,2.9792,2.9792,2.9792,2.9792,2.9792,2.9792,2.9792,2.9792,2.9792,2.9792,2.9792,2.9792,3.0101,3.0279,3.0279,2.9934,2.9972,3.0279,3.0279,3.0279,0.0,0.0,0.0,0.0,0.0,0.0,0.0,0.0,0.0,0.0,0.0,0.0,0.0,0.0,0.0,0.0,0.0,0.0,0.0,0.0,0.0,0.0,0.0,0.0,0.0,0.0,0.0,0.0,0.0,2.3966,2.3966,2.3991,2.3991,2.3966,2.4506,2.5046,2.5548,2.5059,2.536,2.6461,2.5921,2.5912,2.6499,2.6499,2.6499,2.6499,2.6499,2.7102,2.8059,2.8072,2.8411,2.8888,2.8888,2.9289,2.9792,2.9792,2.9792,2.9792,2.9792,2.9792,2.9792,2.9792,2.9792,2.9972,3.0932,3.1217,3.1217,3.1217,3.1254,3.1044,3.0101,2.9895,2.9869,2.9869,2.983,2.983,2.983,2.983,2.9792,2.9792,2.9792,2.9792,2.9792,2.9792,2.9792,2.9792,2.9792,2.9792,2.9792,2.9792,2.9792,2.9792,2.9792,2.9792,2.9792,2.9792,2.9792,2.9792,2.9792,2.9792,2.9792,2.9792,2.9792,2.9792,3.0696,3.118,3.1217,3.0279,3.0317,3.1254,3.1254,3.1254,2.4838,0.0,0.0,0.0,0.0,0.0,0.0,0.0,0.0,0.0,0.0,0.0,0.0,0.0,0.0,0.0,0.0,0.0,0.0,0.0,0.0,0.0,0.0,0.0,0.0,0.0,0.0,0.0,2.3346,2.3346,2.3346,2.3766,2.3803,2.3358,2.3929,2.4293,2.4431,2.4695,2.5159,2.5837,2.6135,2.6336,2.6499,2.6499,2.6499,2.6499,2.6499,2.6663,2.6977,2.7344,2.8072,2.8888,2.8888,2.9289,2.9792,2.9792,2.9792,2.9792,2.9792,2.9792,2.9792,2.9792,2.9792,2.9972,3.0932,3.1217,3.1352,3.2033,3.2213,3.2141,3.1901,3.1829,3.1646,3.097,3.0796,3.0796,3.0796,3.0279,2.9792,2.9792,2.9792,2.9792,2.9792,2.9792,2.9792,2.9792,2.9792,2.9792,2.9792,2.9792,2.9792,2.9792,2.9792,2.9792,2.9792,2.9792,2.9792,2.9792,2.9792,2.9792,2.9792,2.9792,2.9792,2.9792,3.0075,3.052,3.1217,3.0932,3.1291,3.2213,3.2213,3.2213,2.5615,2.5349,2.5072,0.0,0.0,0.0,2.3865,2.359,0.0,0.0,0.0,0.0,0.0,0.0,0.0,0.0,0.0,0.0,0.0,0.0,0.0,0.0,0.0,0.0,0.0,0.0,0.0,2.3133,2.3108,2.3108,2.3108,2.3421,2.3446,2.3108,2.3434,2.3753,2.4004,2.4318,2.4858,2.5598,2.5971,2.626,2.6499,2.6499,2.6499,2.6499,2.6499,2.6499,2.6512,2.6839,2.7595,2.8586,2.8586,2.9076,2.9792,2.9792,2.9792,2.9792,2.9792,2.9792,2.9856,3.0241,3.0381,3.0633,3.196,3.2393,3.25,3.3031,3.289,3.2593,3.2593,3.2593,3.2464,3.1924,3.1779,3.1779,3.1779,3.1328,3.0846,3.0457,3.0075,2.9792,2.9792,2.9792,2.9792,2.9792,2.9792,2.9792,2.9792,2.9792,2.9792,2.9792,2.9792,2.9792,2.9792,2.9792,2.9792,2.9792,2.9792,2.9792,2.9792,2.9792,2.9792,2.9792,3.0177,3.0833,3.1779,3.1389,3.1888,3.3171,3.3171,3.3171,2.5944,2.5884,2.5824,0.0,0.0,0.0,2.4696,2.4096,2.3548,0.0,0.0,0.0,0.0,0.0,0.0,0.0,0.0,0.0,0.0,0.0,0.0,0.0,0.0,0.0,0.0,2.3108,2.3108,2.3108,2.3108,2.3108,2.3108,2.3108,2.3108,2.3108,2.3108,2.3358,2.3891,2.4029,2.4569,2.5511,2.5636,2.5996,2.6499,2.6499,2.6499,2.6499,2.6499,2.6499,2.6499,2.6499,2.7115,2.8021,2.8084,2.8762,2.9704,2.9767,2.9792,2.9792,2.9792,2.9792,2.996,3.0895,3.1217,3.1536,3.3415,3.3993,3.4027,3.4129,3.3567,3.2925,3.2925,3.2925,3.289,3.2784,3.2749,3.2749,3.2749,3.2664,3.2393,3.1633,3.0733,3.0075,2.9972,2.9972,2.9972,2.9972,2.9972,3.0011,3.0113,3.0113,3.0075,2.9972,2.9972,2.9895,2.9792,2.9792,2.9792,2.9792,2.9792,2.9869,2.9934,2.9972,2.9972,2.9972,3.0871,3.1779,3.2593,3.196,3.2464,3.3993,3.4095,3.4177,0.0,0.0,0.0,0.0,0.0,0.0,2.6227,2.5519,2.4843,0.0,0.0,0.0,0.0,0.0,0.0,0.0,0.0,0.0,0.0,0.0,0.0,0.0,0.0,0.0,0.0,2.3108,2.3108,2.3108,2.3108,2.3108,2.3108,2.3108,2.3108,2.3108,2.3108,2.3158,2.3271,2.4173,2.4738,2.4983,2.5896,2.6386,2.6499,2.6499,2.6499,2.6499,2.6499,2.6499,2.6499,2.6499,2.6889,2.7494,2.7934,2.8511,2.9113,2.9616,2.9792,2.9792,2.9792,2.9792,2.996,3.0895,3.1217,3.1536,3.3415,3.3993,3.4177,3.4986,3.5067,3.492,3.492,3.492,3.4739,3.3925,3.3739,3.3739,3.3739,3.3136,3.2784,3.3345,3.2713,3.1829,3.1044,3.0932,3.0932,3.0932,3.0932,3.118,3.1974,3.2046,3.1756,3.1007,3.0932,3.062,2.9856,2.9792,2.9792,2.9792,2.9792,3.0139,3.0908,3.0932,3.0932,3.0932,3.1852,3.2429,3.2593,3.3988,3.4442,3.4027,3.4839,3.5213,0.0,0.0,0.0,2.8603,0.0,0.0,0.0,2.6458,2.5728,0.0,0.0,0.0,0.0,0.0,0.0,0.0,0.0,0.0,0.0,0.0,0.0,0.0,0.0,0.0,0.0,2.2782,2.3108,2.3108,2.3108,2.3108,2.3108,2.3108,2.3108,2.3108,2.3108,2.3108,2.3108,2.396,2.4556,2.48,2.5636,2.6223,2.6499,2.6905,2.7095,2.7095,2.7095,2.7095,2.7061,2.6692,2.6663,2.6989,2.7783,2.8448,2.8963,2.9578,2.9792,2.9869,3.0355,3.0482,3.0733,3.2141,3.2593,3.2855,3.4293,3.4758,3.4839,3.5359,3.5504,3.5504,3.5504,3.5504,3.5359,3.4872,3.4758,3.4758,3.4758,3.4375,3.4192,3.4658,3.4375,3.3581,3.2141,3.1888,3.1888,3.1888,3.1888,3.2069,3.2522,3.2593,3.2429,3.196,3.1888,3.1719,3.123,3.0771,3.0482,3.0482,3.0482,3.0696,3.118,3.1633,3.1888,3.1888,3.282,3.331,3.331,3.4773,3.5246,3.4758,3.5279,3.5504,0.0,0.0,0.0,0.0,0.0,2.8639,0.0,0.0,0.0,2.5937,0.0,0.0,0.0,0.0,0.0,0.0,0.0,0.0,0.0,0.0,0.0,0.0,0.0,0.0,0.0,2.2828,2.3306,2.317,2.3153,2.3191,2.3322,2.3185,2.3108,2.3108,2.3108,2.3108,2.3108,2.3703,2.428,2.48,2.5347,2.6001,2.6748,2.7384,2.7802,2.7953,2.7953,2.7953,2.7887,2.7263,2.6973,2.7041,2.7687,2.8285,2.88,2.9415,2.9691,2.9934,3.0871,3.1217,3.1499,3.338,3.4129,3.4428,3.5246,3.5504,3.5504,3.5504,3.5504,3.5504,3.5504,3.5504,3.5504,3.5504,3.5504,3.5504,3.5504,3.5504,3.5504,3.5504,3.5504,3.492,3.3171,3.289,3.289,3.289,3.289,3.2925,3.3136,3.315,3.3066,3.289,3.289,3.282,3.2629,3.1924,3.1462,3.1462,3.1462,3.1536,3.1742,3.2464,3.289,3.289,3.3602,3.3993,3.3993,3.5019,3.5504,3.5504,3.5504,3.5504,0.0,0.0,0.0,0.0,2.9547,0.0,0.0,0.0,2.7373,2.7291,0.0,0.0,0.0,0.0,0.0,0.0,0.0,0.0,0.0,0.0,0.0,0.0,0.0,0.0,0.0,0.0,2.4014,2.3403,2.3317,2.3524,2.4121,2.3484,2.3108,2.3108,2.3108,2.3108,2.3108,2.3703,2.428,2.48,2.5347,2.6276,2.7571,2.767,2.8117,2.8844,2.8844,2.8844,2.8844,2.8748,2.8716,2.8624,2.7721,2.7708,2.826,2.8787,2.9352,2.9934,3.0871,3.1217,3.1499,3.338,3.461,3.5359,3.5472,3.5504,3.5504,3.5504,3.5504,3.5504,3.5504,3.5504,3.5504,3.5504,3.5504,3.5504,3.5504,3.5504,3.5504,3.5504,3.5504,3.5133,3.4027,3.3842,3.3842,3.3842,3.3842,3.4177,3.5067,3.518,3.4839,3.3959,3.3842,3.3484,3.2664,3.25,3.2464,3.2464,3.2464,3.282,3.3671,3.3774,3.3842,3.3842,3.3959,3.3993,3.3993,3.5019,3.5504,3.5504,3.5504,3.5504,0.0,0.0,0.0,0.0,0.0,0.0,3.0035,0.0,2.8623,0.0,0.0,0.0,0.0,0.0,0.0,0.0,0.0,0.0,0.0,0.0,0.0,0.0,0.0,0.0,0.0,0.0,0.0,0.0,0.0,2.4037,2.4295,2.3972,2.3573,2.3108,2.356,2.3573,2.3108,2.4236,2.485,2.4993,2.6025,2.7001,2.7895,2.8805,2.9411,2.9766,2.9766,2.9766,2.9721,2.9223,2.9002,2.8967,2.8483,2.8313,2.8511,2.9944,3.0312,3.0416,3.2212,3.282,3.3066,3.4442,3.5166,3.5504,3.5504,3.5504,3.5504,3.5504,3.5504,3.5504,3.5504,3.5504,3.5504,3.5504,3.5504,3.5504,3.5504,3.5504,3.5504,3.5504,3.5504,3.5359,3.4953,3.4872,3.4872,3.4872,3.4872,3.5019,3.5439,3.5504,3.5359,3.492,3.4872,3.4691,3.4308,3.3754,3.3415,3.3415,3.3415,3.3856,3.4839,3.4872,3.4872,3.4872,3.4872,3.4872,3.4872,3.5279,3.5504,3.5504,3.5504,3.5504,2.9209,0.0,0.0,0.0,0.0,0.0,0.0,0.0,0.0,0.0,0.0,0.0,0.0,0.0,0.0,2.736,0.0,0.0,0.0,0.0,0.0,0.0,0.0,0.0,0.0,0.0,0.0,0.0,0.0,0.0,2.461,2.4416,2.4031,2.3454,2.4002,2.4031,2.3424,2.4914,2.5666,2.5688,2.6898,2.788,2.8675,2.9811,3.0419,3.0614,3.0614,3.0614,3.0584,2.995,2.969,2.969,2.969,2.941,2.9185,3.0801,3.1085,3.1034,3.3067,3.3917,3.4295,3.5187,3.5504,3.5504,3.5504,3.5504,3.5504,3.5504,3.5504,3.5504,3.5504,3.5504,3.5504,3.5504,3.5504,3.5504,3.5504,3.5504,3.5504,3.5504,3.5504,3.5504,3.5504,3.5504,3.5504,3.5504,3.5504,3.5504,3.5504,3.5504,3.5504,3.5504,3.5504,3.5504,3.5504,3.4839,3.4394,3.4394,3.4394,3.4725,3.5472,3.5504,3.5504,3.5504,3.5504,3.5504,3.5504,3.5504,3.5504,3.5504,3.5504,3.5504,0.0,0.0,0.0,3.1226,0.0,0.0,0.0,0.0,3.0477,0.0,0.0,0.0,0.0,0.0,2.739,2.6746,2.6602,0.0,0.0,0.0,0.0,0.0,0.0,0.0,0.0,0.0,0.0,0.0,0.0,0.0,2.544,2.4708,2.4292,2.4263,2.4292,2.4292,2.4263,2.5664,2.663,2.715,2.7848,2.8886,3.024,3.0284,3.0718,3.1467,3.1467,3.1467,3.1467,3.1438,3.1409,3.1409,3.1409,3.094,3.0289,3.068,3.113,3.1709,3.2753,3.3735,3.459,3.5295,3.5504,3.5504,3.5504,3.5504,3.5504,3.5504,3.5504,3.5504,3.5504,3.5504,3.5504,3.5504,3.5504,3.5504,3.5504,3.5504,3.5504,3.5504,3.5504,3.5504,3.5504,3.5504,3.5504,3.5504,3.5504,3.5504,3.5504,3.5504,3.5504,3.5504,3.5504,3.5504,3.5504,3.5472,3.5457,3.5457,3.5457,3.5472,3.5504,3.5504,3.5504,3.5504,3.5504,3.5504,3.5504,3.5504,3.5504,3.5504,3.5504,3.5504,0.0,0.0,2.9232,3.0571,0.0,0.0,0.0,0.0,0.0,0.0,0.0,0.0,0.0,2.8412,2.8038,2.7375,2.6896,2.6437,0.0,0.0,0.0,0.0,0.0,0.0,0.0,0.0,0.0,0.0,0.0,0.0,0.0,2.5661,2.5536,2.5035,2.5508,2.5508,2.5035,2.6911,2.7699,2.7428,2.8986,2.9957,3.0466,3.0881,3.1248,3.1511,3.1511,3.1511,3.1511,3.1511,3.1511,3.1511,3.1511,3.1322,3.1161,3.1728,3.1957,3.2174,3.353,3.4235,3.4548,3.4741,3.4848,3.4906,3.537,3.5504,3.5504,3.5504,3.5504,3.5504,3.5504,3.5504,3.5504,3.5504,3.5504,3.5504,3.5504,3.5504,3.5504,3.5504,3.5504,3.5504,3.5504,3.5504,3.5504,3.5504,3.5504,3.5504,3.5504,3.5504,3.5504,3.5504,3.5504,3.5504,3.5504,3.5504,3.5504,3.5504,3.5504,3.5504,3.5504,3.5504,3.5504,3.5504,3.5504,3.5504,3.5504,3.5504,3.5504,3.5504,3.5504,3.5504,2.8699,2.8718,0.0,3.0263,3.0516,0.0,3.2066,0.0,0.0,0.0,0.0,0.0,0.0,0.0,2.8457,2.8034,2.7405,2.6806,0.0,2.551,0.0,0.0,0.0,0.0,0.0,0.0,0.0,0.0,0.0,0.0,0.0,0.0,2.6113,2.616,2.6339,2.6466,2.6469,2.8328,2.905,2.8583,3.0119,3.0866,3.0881,3.1301,3.1511,3.1511,3.1511,3.1511,3.1511,3.1511,3.1511,3.1511,3.1511,3.1645,3.1929,3.2617,3.2908,3.3182,3.4433,3.4713,3.4548,3.4788,3.4846,3.4921,3.537,3.5504,3.5504,3.5504,3.5504,3.5504,3.5504,3.5504,3.5504,3.5504,3.5504,3.5504,3.5504,3.5504,3.5504,3.5504,3.5504,3.5504,3.5504,3.5504,3.5504,3.5504,3.5504,3.5504,3.5504,3.5504,3.5504,3.5504,3.5504,3.5504,3.5504,3.5504,3.5504,3.5504,3.5504,3.5504,3.5504,3.5504,3.5609,3.5848,3.5624,3.5624,3.5848,3.5624,3.5504,3.5504,3.5504,3.5504]}]]